     2              OBSERVATION DATA    GPS                 RINEX VERSION / TYPE
ASHTORIN MIT 28 - OCT - 96 11:08                            PGM / RUN BY / DATE
                                                            COMMENT
CHINA LAKE 1996 P-Code Ashtech data EXPT #2                 COMMENT
Original Marker Name: TTAP                                  COMMENT
Campaign Name: China Lake Nov 1996                          COMMENT
4-Character Station Name: _TAP                              COMMENT
6-Character Antenna Code: ASHP12                            COMMENT
Vertical Measurement Point: TGP                             COMMENT
Vertical Offset to Rinex Ref. Point: 0.0640                 COMMENT
Radial Measurement Point: OOH                               COMMENT
Radial Offset to Rinex Ref. Point: 0.1318                   COMMENT
Antenna Height from Field Measurement: 0.7210 m             COMMENT
Additional Antenna Identification Info.:                    COMMENT
Ashtech L1/L2 Revision B (700228DE)                         COMMENT
Original XYZ: -2455781.9300 -4602727.8900 3658823.2300      COMMENT
New XYZ position is based on association with SCEC monument COMMENT
E1F2N9C3+0011. Position of that monument is believed to be  COMMENT
valid to within 1 m horizontally; vertical accuracy         COMMENT
should be no worse than 3-times this value.                 COMMENT
                                                            COMMENT
Revised Rinex header created by UCSD GPS archive for        COMMENT
GSAC on 31-Jul-2000 (2000:213) 22:25:29 GMT                 COMMENT
For assistance contact dagnew@ucsd.edu                      COMMENT
or anderson@python.ucsd.edu                                 COMMENT
                                                            COMMENT
DMA TAP 1991                                                MARKER NAME
                                                            MARKER NUMBER
RES US DEFENSE MAPPING AGENCY                               OBSERVER / AGENCY
426 ASHTECH Z-XII3 1G001C7                                  REC # / TYPE / VERS
452 ASHTECH GEODETIC P                                      ANT # / TYPE
 -2445260.6453 -4625367.7584  3636841.4133                  APPROX POSITION XYZ
        0.6449        0.0000        0.0000                  ANTENNA: DELTA H/E/N
     1     1     0                                          WAVELENGTH FACT L1/2
     7    L1    L2    C1    P1    P2    D1    D2            # / TYPES OF OBSERV
    30                                                      INTERVAL
  1996    10     9    15    23    0.000000                  TIME OF FIRST OBS
  1996    10     9    21    30   30.000000                  TIME OF LAST OBS
                                                            END OF HEADER
 96 10  9 15 23  0.0000000  0  7 30 28 21 17  6 26 23                0.000169165
     22105.88619      4339.78452  22783073.104           0.0005          0.0005
     -2409.773       -1877.745
    -36896.72819     -7401.78353  21345347.566           0.0005          0.0005
      4101.172        3195.718
    -41660.18719     -7772.71652  23542586.857           0.0005          0.0005
      4325.794        3370.749
    -18308.88919     -3772.68655  19768119.990           0.0005          0.0005
      2086.111        1625.541
     -6041.24719     -2219.99758  19095951.605           0.0005   19095957.3725
       338.473         263.745
    -18949.81719     -3816.15752  21087958.655           0.0005          0.0005
      2114.001        1647.274
    -29508.32019     -5932.18851  20420712.019           0.0005          0.0005
      3279.151        2555.183
 96 10  9 15 23 30.0000000  0  8 30 28 22 21 17  6 26 23             0.000147985
     94292.311 9     60588.41845  22796813.177           0.0004          0.0004
     -2403.786       -1873.080
   -159957.162 9   -103292.95857  21321930.618    21321932.1025   21321936.9435
      4101.525        3195.994
    -57728.70919     -3997.02352  22471795.448           0.0005          0.0005
      2243.538        1748.211
   -171495.158 9   -108942.54556  23517881.990           0.0004   23517885.0345
      4328.271        3372.679
    -80928.962 9    -52567.42458  19756205.201    19756204.6205   19756210.7765
      2087.138        1626.341
    -16061.648 9    -10028.10948  19094043.641    19094045.8315   19094050.8604
       328.307         255.824
    -82222.705 9    -53119.63958  21075918.075    21075919.4615   21075925.3945
      2102.928        1638.645
   -127818.890 9    -82971.32556  20402003.049           0.0004          0.0005
      3273.452        2550.742
 96 10  9 15 24  0.0000000  0  8 30 28 22 21 17  6 26 23             0.000932419
    166297.978 9    116696.76856  24309482.002           0.0004   24309484.4095
     -2396.544       -1867.437
   -282992.858 9   -199164.919 9  22797481.893    22797481.626    22797486.331
      4103.038        3197.172
   -124861.544 9    -56308.24956  23957985.358           0.0004   23957987.4165
      2233.614        1740.478
   -301369.137 9   -210142.98646  24992124.307    24992124.7475   24992133.7804
      4332.150        3375.701
   -143553.967 9   -101366.13448  21243248.896    21243249.8054   21243255.8294
      2089.256        1627.992
    -25767.760 9    -17591.31848  20591160.171    20591160.8254   20591166.1984
       319.759         249.163
   -145140.029 9   -102146.12148  22562907.924    22562909.4164   22562914.9084
      2093.079        1630.971
   -225919.541 9   -159844.90855  21882299.408           0.0004          0.0005
      3268.513        2546.893
 96 10  9 15 24 30.0000000  0  8 30 28 22 21 17  6 26 23             0.000910993
    238154.231 9    172688.59546  24323153.882    24323153.9745   24323159.2944
     -2391.482       -1863.492
   -406031.405 9   -295039.10519  22774069.136    22774068.3351   22774072.9811
      4101.836        3196.236
   -191651.988 9   -108352.74046  23945269.212    23945271.9775   23945277.6464
      2221.412        1730.970
   -431316.494 9   -311400.60656  24967391.343    24967395.9165   24967405.9805
      4333.228        3376.541
   -206185.571 9   -150169.97958  21231328.138    21231331.3545   21231337.4445
      2088.320        1627.262
    -35167.099 9    -24915.50058  20589370.258    20589372.1655   20589377.5605
       309.221         240.951
   -207707.809 9   -150900.22358  22550998.157    22551003.2265   22551008.6595
      2080.396        1621.088
   -323825.974 9      -739.94152  21863666.967           0.0005          0.0005
      3260.921        2540.977
 96 10  9 15 25  0.0000000  0  8 30 28 22 21 17  6 26 23             0.000889526
    309784.792 9    228504.56056  24336785.084    24336783.5435   24336789.7595
     -2384.124       -1857.759
   -529108.101 9   -390943.014 9  22750648.402    22750647.756    22750652.429
      4103.137        3197.250
   -258156.525 9   -160174.44156  23932614.555    23932616.6515   23932622.6305
      2212.013        1723.646
   -561361.603 9   -412734.42046  24942641.635    24942648.9834   24942659.4594
      4336.334        3378.962
   -268851.001 9   -199000.17848  21219405.660    21219406.4054   21219412.6184
      2089.106        1627.875
    -44329.217 9    -32054.82948  20587626.757    20587628.7494   20587634.0564
       301.374         234.837
   -269972.518 9   -199418.15748  22539149.580    22539154.5754   22539160.0604
      2070.461        1613.346
   -421586.069 9    -76796.27756  21845065.135           0.0004          0.0005
      3256.390        2537.447
 96 10  9 15 25 30.0000000  0  8 30 28 22 21 17  6 26 23             0.000867923
    381208.094 9    284159.01346  24350373.263    24350374.9634   24350381.5374
     -2377.249       -1852.402
   -652211.270 9   -486867.551 9  22727222.558    22727222.014    22727226.856
      4103.698        3197.687
   -324380.563 9   -211777.61646  23920012.338    23920014.6144   23920020.8514
      2203.018        1716.637
   -691482.321 9   -514127.16147  24917880.123    24917888.2824   24917898.3294
      4338.373        3380.550
   -331522.193 9   -247834.87248  21207479.889    21207480.4834   21207486.7144
      2088.784        1627.624
    -53243.307 9    -39000.89348  20585930.712    20585932.5474   20585937.8534
       292.784         228.143
   -331931.692 9   -247698.03348  22527360.009    22527364.1164   22527369.5914
      2059.996        1605.192
   -519202.681 9   -152749.26655  21826489.400           0.0004          0.0005
      3251.151        2533.364
 96 10  9 15 26  0.0000000  0  8 30 28 22 21 17  6 26 23             0.000846197
    452445.021 9    339668.24246  24363927.978    24363931.3134   24363937.5054
     -2372.167       -1848.442
   -775306.457 9   -582785.863 9  22703798.184    22703797.693    22703802.767
      4102.279        3196.581
   -390323.392 9   -263161.62846  23907464.461    23907466.2304   23907472.2874
      2192.675        1708.578
   -821646.593 9   -615553.82447  24893113.902    24893119.4924   24893128.8104
      4338.943        3380.995
   -394151.558 9   -296636.97648  21195561.829    21195562.5954   21195568.8054
      2086.207        1625.616
    -61871.575 9    -45724.22448  20584289.095    20584290.6594   20584296.0014
       281.931         219.686
   -393543.330 9   -295707.09648  22515636.150    22515639.8704   22515645.2864
      2047.073        1595.122
   -616630.717 9         0.000 1  21807949.304           0.000           0.000
      3243.713        2527.569
 96 10  9 15 26 30.0000000  0  8 30 28 22 21 17  6 26 23             0.000824377
    523526.422 9    395056.28746  24377454.923    24377457.6004   24377463.9434
     -2366.608       -1844.110
   -898357.186 9   -678669.533 9  22680382.065    22680381.831    22680387.098
      4100.960        3195.553
   -455950.021 9   -314299.25746  23894976.788    23894977.8544   23894983.9234
      2182.066        1700.311
   -951829.744 9   -716995.19647  24868343.193    24868347.0844   24868355.5464
      4339.772        3381.640
   -456705.131 9   -345380.01848  21183658.163    21183659.0224   21183665.2514
      2083.831        1623.764
    -70169.254 9    -52189.95948  20582710.257    20582711.7124   20582717.0304
       271.011         211.177
   -454774.044 9   -343419.32848  22503984.991    22503988.1244   22503993.4934
      2034.812        1585.568
   -713836.267 9    -71424.56658  21789451.222    21789452.1725   21789457.7535
      3236.338        2521.822
 96 10  9 15 27  0.0000000  0  8 30 28 22 21 17  6 26 23             0.000802411
    594410.954 9    450290.92246  24390945.502    24390946.7594   24390952.9434
     -2360.223       -1839.135
  -1021397.868 9   -774545.377 9  22656967.898    22656967.930    22656973.318
      4100.537        3195.224
   -521282.106 9   -365207.39046  23882544.479    23882545.5104   23882551.6954
      2172.103        1692.548
  -1082062.099 9   -818474.93446  24843561.725    24843564.9634   24843572.9134
      4341.263        3382.802
   -519216.852 9   -394090.44748  21171762.686    21171763.4644   21171769.6024
      2082.489        1622.719
    -78161.036 9    -58417.33448  20581189.775    20581190.9314   20581196.2654
       260.493         202.982
   -515666.479 9   -390867.97248  22492397.501    22492400.7094   22492406.1664
      2023.501        1576.754
   -810840.424 9   -147012.22348  21770992.297    21770992.9525   21770998.4524
      3229.361        2516.385
 96 10  9 15 27 30.0000000  0  8 30 28 22 21 17  6 26 23             0.000780335
    665128.671 9    505395.58546  24404403.344    24404404.0124   24404410.2394
     -2354.089       -1834.355
  -1144390.728 9   -870383.963 9  22633562.702    22633563.144    22633568.568
      4099.164        3194.154
   -586271.692 9   -415848.63646  23870177.054    23870178.5434   23870184.6804
      2160.664        1683.634
  -1212308.920 9   -919965.95946  24818777.304    24818779.8684   24818787.3694
      4342.049        3383.415
   -581661.073 9   -442748.28348  21159880.213    21159880.8254   21159886.8784
      2080.677        1621.307
    -85798.386 9    -64368.52648  20579736.514    20579737.6454   20579742.9924
       248.870         193.925
   -576178.963 9   -438020.55948  22480883.120    22480885.5424   22480891.1154
      2010.951        1566.975
   -907590.756 9   -222402.05448  21752581.039    21752581.5994   21752587.6014
      3220.784        2509.702
 96 10  9 15 28  0.0000000  0  8 30 28 22 21 17  6 26 23             0.000758162
    735691.185 9    560379.30546  24417831.208    24417831.5904   24417837.9714
     -2349.690       -1830.927
  -1267314.629 9   -966168.806 9  22610170.927    22610171.479    22610176.852
      4096.208        3191.850
   -650877.419 9   -466190.76046  23857883.559    23857884.5084   23857890.6784
      2146.620        1672.691
  -1342557.672 9  -1021458.45646  24793992.895    24793994.0994   24794001.5374
      4341.734        3383.169
   -644026.573 9   -491344.77648  21148012.527    21148013.1104   21148019.1754
      2077.676        1618.968
    -93060.815 9    -70027.58048  20578354.661    20578355.6694   20578361.0244
       235.696         183.659
   -636294.679 9   -484863.96448  22469443.335    22469445.9054   22469451.3754
      1997.364        1556.388
  -1004054.782 9   -297568.82648  21734224.600    21734225.1804   21734231.0544
      3210.785        2501.910
 96 10  9 15 28 30.0000000  0  8 30 28 22 21 17  6 26 23             0.000735920
    806131.365 9    615267.68946  24431235.444    24431236.0134   24431242.3494
     -2346.329       -1828.308
  -1390137.675 9  -1061875.066 9  22586798.612    22586799.039    22586804.276
      4091.843        3188.449
   -715032.444 9   -516181.68246  23845675.546    23845676.2454   23845682.3724
      2130.381        1660.037
  -1472789.543 9  -1122937.77546  24769210.323    24769211.6824   24769219.0224
      4340.184        3381.962
   -706296.009 9   -539866.40448  21136163.117    21136163.5664   21136169.7254
      2073.521        1615.731
    -99911.400 9    -75365.72248  20577051.156    20577052.0814   20577057.4814
       220.885         172.118
   -695992.943 9   -531382.08248  22458083.075    22458085.6934   22458091.1274
      1982.364        1544.699
  -1100210.305 9   -372495.18648  21715926.365    21715927.3364   21715933.2474
      3199.491        2493.110
 96 10  9 15 29  0.0000000  0  8 30 28 22 21 17  6 26 23             0.000713598
    876418.826 9    670037.08546  24444610.625    24444611.2614   24444617.6554
     -2340.923       -1824.096
  -1512881.332 9  -1157519.470 9  22563441.361    22563441.738    22563446.860
      4089.687        3186.769
   -778758.066 9   -565838.03346  23833549.110    23833549.6414   23833555.7124
      2116.693        1649.371
  -1603023.238 9  -1224418.52746  24744426.116    24744429.0244   24744436.5084
      4340.659        3382.332
   -768496.459 9   -588334.28848  21124326.797    21124327.2654   21124333.4274
      2071.879        1614.451
   -106368.750 9    -80397.43648  20575822.399    20575823.2984   20575828.7264
       208.280         162.296
   -755286.816 9   -577585.10848  22446800.292    22446802.5004   22446807.9584
      1969.143        1534.397
  -1196085.242 9   -447202.92748  21697682.198    21697683.0054   21697688.8514
      3191.040        2486.525
 96 10  9 15 29 30.0000000  0  8 30 28 22 21 17  6 26 23             0.000691242
    946613.507 9    724734.17246  24457968.509    24457968.8234   24457975.2514
     -2338.595       -1822.282
  -1635487.836 9  -1253057.005 9  22540109.930    22540110.583    22540115.617
      4084.193        3182.488
   -842005.811 9   -615122.00946  23821513.176    23821514.1744   23821519.9884
      2100.195        1636.515
  -1733197.349 9  -1325852.86646  24719655.029    24719657.6074   24719665.4854
      4337.670        3380.003
   -830578.940 9   -636710.25548  21112512.703    21112513.4124   21112519.4454
      2067.052        1610.690
   -112379.051 9    -85080.80248  20574678.802    20574679.5564   20574685.0334
       192.511         150.008
   -814104.344 9   -623416.94148  22435607.887    22435609.9114   22435615.4014
      1952.254        1521.237
  -1291643.340 9   -521663.75848  21679497.908    21679498.8814   21679504.7374
      3179.632        2477.635
 96 10  9 15 30  0.0000000  0  8 30 28 22 21 17  6 26 23             0.000668852
   1016723.515 9    779365.30646  24471310.195    24471310.4934   24471316.7804
     -2335.084       -1819.546
  -1757949.276 9  -1348481.496 9  22516806.762    22516807.053    22516812.014
      4080.171        3179.354
   -904783.552 9   -664039.73346  23809567.192    23809567.9734   23809573.5944
      2085.384        1624.975
  -1863302.245 9  -1427233.30546  24694898.312    24694899.5364   24694907.5244
      4336.176        3378.838
   -892532.804 9   -684985.98348  21100723.066    21100723.9564   21100730.0134
      2063.556        1607.966
   -117932.989 9    -89408.55348  20573622.252    20573622.7564   20573628.1824
       178.122         138.796
   -872438.750 9   -668872.32048  22424507.104    22424509.2674   22424514.6434
      1936.866        1509.246
  -1386881.451 9   -595875.25548  21661374.671    21661375.6564   21661381.6094
      3169.947        2470.089
 96 10  9 15 30 30.0000000  0  8 30 28 22 21 17  6 26 23             0.000646445
   1086765.211 9    833943.18746  24484638.119    24484639.0114   24484645.1824
     -2333.274       -1818.136
  -1880247.877 9  -1443779.093 9  22493534.200    22493534.418    22493539.475
      4074.269        3174.755
   -967090.562 9   -712590.65146  23797711.060    23797711.2584   23797717.0844
      2069.812        1612.841
  -1993309.975 9  -1528538.03546  24670159.126    24670160.0854   24670167.8774
      4332.048        3375.622
   -954341.123 9   -733148.30948  21088961.415    21088962.2384   21088968.3554
      2058.074        1603.694
   -123021.580 9    -93373.70748  20572653.833    20572654.4444   20572659.8544
       162.530         126.647
   -930256.498 9   -713925.10448  22413505.002    22413506.9174   22413512.2654
      1918.844        1495.203
  -1481789.732 9   -669829.75048  21643314.123    21643315.2044   21643321.0994
      3158.538        2461.198
 96 10  9 15 31  0.0000000  0  8 30 28 22 21 17  6 26 23             0.000624028
   1156757.488 9    888482.57846  24497955.949    24497957.9794   24497964.3534
     -2332.832       -1817.791
  -2002372.731 9  -1538941.302 9  22470294.171    22470294.852    22470299.994
      4067.359        3169.371
  -1028943.870 9   -760788.04946  23785940.454    23785941.0314   23785946.9804
      2053.659        1600.254
  -2123182.781 9  -1629737.61346  24645444.946    24645446.3364   24645453.8534
      4326.245        3371.100
  -1015979.182 9   -781177.96848  21077232.090    21077232.9384   21077239.0464
      2051.144        1598.294
   -127657.819 9    -96986.38248  20571771.655    20571772.2164   20571777.6914
       146.587         114.224
   -987535.943 9   -758558.43448  22402605.200    22402606.9704   22402612.3374
      1899.864        1480.414
  -1576362.373 9   -743522.71648  21625317.625    21625318.7194   21625324.4864
      3146.268        2451.637
 96 10  9 15 31 30.0000000  0  8 30 28 22 21 17  6 26 23             0.000601620
   1226720.681 9    942999.27746  24511270.056    24511271.7804   24511278.1164
     -2331.060       -1816.410
  -2124296.149 9  -1633946.553 9  22447092.352    22447093.622    22447098.765
      4061.116        3164.506
  -1090323.480 9   -808616.32146  23774259.460    23774260.8264   23774266.8204
      2038.560        1588.488
  -2252892.159 9  -1730809.81646  24620762.811    24620763.6074   24620770.9794
      4321.372        3367.303
  -1077410.365 9   -829046.41748  21065542.130    21065543.0034   21065549.0934
      2044.565        1593.168
   -131826.547 9   -100234.75548  20570977.779    20570978.9074   20570984.4434
       131.457         102.434
  -1044258.274 9   -802757.65048  22391811.555    22391813.1114   22391818.4514
      1882.018        1466.508
  -1670563.548 9   -816926.20648  21607391.905    21607392.7854   21607398.6274
      3133.997        2442.075
 96 10  9 15 32  0.0000000  0  8 30 28 22 21 17  6 26 23             0.000579211
   1296643.531 8    997484.54146  24524578.027    24524577.8524   24524584.0474
     -2330.710       -1816.138
  -2246011.394 9  -1728789.602 9  22423930.581    22423932.056    22423937.097
      4053.031        3158.206
  -1151226.228 9   -856073.00746  23762671.183    23762671.5264   23762677.2964
      2021.305        1575.043
  -2382441.417 9  -1831757.25446  24596110.750    24596111.1724   24596118.5734
      4315.028        3362.359
  -1138634.523 9   -876753.55248  21053891.742    21053892.4264   21053898.4784
      2036.813        1587.127
   -135522.719 9   -103114.90148  20570274.523    20570275.5774   20570281.1154
       114.849          89.493
  -1100433.357 9   -846530.43148  22381121.904    22381123.3914   22381128.7564
      1862.630        1451.400
  -1764387.143 9   -890035.48848  21589537.734    21589538.7554   21589544.5904
      3120.764        2431.764
 96 10  9 15 32 30.0000000  0  8 30 28 22 21 17  6 26 23             0.000556813
   1366537.298 8   1051947.16345  24537878.481    24537878.0024   24537884.4974
     -2329.042       -1814.838
  -2367497.092 9  -1823453.772 9  22400813.075    22400814.132    22400819.144
      4045.755        3152.536
  -1211620.259 9   -903133.29846  23751178.844    23751178.9244   23751184.5854
      2004.538        1561.978
  -2511803.260 9  -1932558.63946  24571493.051    24571494.2584   24571501.8804
      4308.982        3357.648
  -1199640.461 9   -924290.64448  21042282.676    21042283.4194   21042289.4634
      2029.950        1581.779
   -138737.445 9   -105619.89648  20569663.014    20569663.8704   20569669.4274
        99.081          77.206
  -1156039.482 9   -889859.87548  22370540.348    22370541.9044   22370547.2994
      1844.332        1437.142
  -1857826.009 9   -962844.98048  21571757.089    21571757.9704   21571763.7904
      3108.198        2421.972
 96 10  9 15 33  0.0000000  0  8 30 28 22 21 17  6 26 23             0.000534408
   1436371.975 8   1106363.71045  24551167.354    24551167.0984   24551173.5734
     -2326.962       -1813.217
  -2488763.629 9  -1917947.161 9  22377736.908    22377737.812    22377742.884
      4038.149        3146.610
  -1271498.298 9   -949791.51246  23739783.876    23739784.4354   23739790.3244
      1986.756        1548.121
  -2640994.175 9  -2033226.83446  24546907.594    24546909.7754   24546917.6904
      4303.432        3353.324
  -1260444.126 9   -971670.11948  21030711.995    21030712.9224   21030718.9594
      2023.283        1576.584
   -141464.676 9   -107745.03348  20569143.916    20569144.9354   20569150.5684
        82.124          63.993
  -1211109.923 9   -932771.89648  22360061.019    22360062.3474   22360067.6734
      1826.572        1423.303
  -1950877.124 9  -1035352.34248  21554049.962    21554050.9614   21554056.6924
      3094.723        2411.472
 96 10  9 15 33 30.0000000  0  8 30 28 22 21 17  6 26 23             0.000511995
   1506151.299 8   1160737.15845  24564445.318    24564445.5954   24564452.2764
     -2323.971       -1810.886
  -2609786.442 9  -2012250.641 9  22354706.888    22354707.858    22354713.027
      4031.167        3141.169
  -1330827.170 9   -996021.83346  23728493.348    23728494.5414   23728500.5404
      1969.557        1534.720
  -2770017.763 9  -2133764.66646  24522355.910    24522357.1444   24522365.1584
      4299.188        3350.017
  -1321045.056 9  -1018891.62248  21019180.048    21019180.9704   21019186.9514
      2017.993        1572.462
   -143656.238 9   -109452.76948  20568726.951    20568727.9314   20568733.5504
        65.188          50.796
  -1265632.826 9   -975257.25848  22349686.238    22349687.0504   22349692.3624
      1809.388        1409.913
  -2043505.248 9  -1107530.08048  21536423.429    21536424.3604   21536430.2244
      3081.695        2401.321
 96 10  9 15 34  0.0000000  0  8 30 28 22 21 17  6 26 23             0.000489587
   1575879.605 8   1215070.81945  24577714.159    24577714.6134   24577721.0444
     -2323.688       -1810.666
  -2730565.814 9  -2106364.421 9  22331723.292    22331724.221    22331729.531
      4021.809        3133.877
  -1389594.135 9  -1041814.24846  23717310.855    23717311.6344   23717317.4714
      1949.327        1518.956
  -2898881.166 9  -2234177.70446  24497834.603    24497835.3284   24497842.9504
      4292.629        3344.906
  -1381456.886 9  -1065965.77148  21007683.648    21007684.9304   21007690.9204
      2010.232        1566.415
   -145306.491 9   -110738.69948  20568413.047    20568413.9244   20568419.5284
        46.019          35.859
  -1319605.746 9  -1017314.07848  22339415.980    22339416.3564   22339421.6674
      1789.762        1394.620
  -2135712.256 9  -1179379.69048  21518877.303    21518877.9984   21518883.7954
      3066.320        2389.340
 96 10  9 15 34 30.0000000  0  8 30 28 22 21 17  6 26 23             0.000467208
   1645610.511 8   1269406.51645  24590983.193    24590984.2344   24590990.4754
     -2324.729       -1811.477
  -2851054.854 9  -2200251.976 9  22308794.605    22308795.936    22308801.227
      4011.176        3125.592
  -1447753.434 9  -1087133.18946  23706244.370    23706244.3434   23706250.2434
      1928.441        1502.681
  -3027542.927 9  -2334433.61446  24473351.133    24473352.2004   24473359.1704
      4285.246        3339.153
  -1441618.730 9  -1112845.12348  20996235.146    20996236.4974   20996242.5364
      2000.940        1559.174
   -146375.353 9   -111571.59148  20568209.759    20568210.5404   20568216.1714
        25.595          19.944
  -1372983.741 9  -1058907.30648  22329258.667    22329258.8824   22329264.0954
      1769.208        1378.604
  -2227430.784 9  -1250848.66448  21501423.707    21501424.5314   21501430.3114
      3048.741        2375.642
 96 10  9 15 35  0.0000000  0  8 30 28 22 21 17  6 26 23             0.000444849
   1715343.314 8   1323743.73845  24604253.704    24604253.8104   24604259.8214
     -2324.292       -1811.137
  -2971255.737 9  -2293914.996 9  22285921.328    22285922.550    22285927.668
      4002.133        3118.545
  -1505329.745 9  -1131997.87346  23695287.570    23695287.7874   23695293.6844
      1910.102        1488.391
  -3156022.260 9  -2434547.36346  24448903.473    24448903.5384   24448910.3064
      4279.830        3334.932
  -1501534.322 9  -1159532.60648  20984834.066    20984835.0304   20984841.0234
      1993.421        1553.315
   -146865.625 9   -111953.63648  20568116.316    20568117.2864   20568122.9244
         7.125           5.552
  -1425770.655 9  -1100039.96148  22319214.057    22319213.9124   22319219.0764
      1749.760        1363.449
  -2318658.871 9  -1321935.46848  21484063.453    21484064.3924   21484070.2924
      3033.212        2363.542
 96 10  9 15 35 30.0000000  0  8 30 28 22 21 17  6 26 23             0.000422529
   1785098.781 8   1378098.59945  24617527.753    24617527.9444   24617533.5574
     -2324.783       -1811.519
  -3091158.820 9  -2387345.960 9  22263104.360    22263105.706    22263110.745
      3992.559        3111.085
  -1562337.854 9  -1176419.76246  23684438.620    23684439.5914   23684445.4014
      1891.720        1474.068
  -3284303.175 9  -2534506.49246  24424491.223    24424492.2914   24424499.3304
      4273.320        3329.860
  -1561192.746 9  -1206019.67448  20973481.163    20973482.3284   20973488.4324
      1984.787        1546.587
   -146788.500 9   -111893.55148  20568130.747    20568132.0014   20568137.6274
       -11.013          -8.582
  -1477933.850 9  -1140686.59748  22309287.754    22309287.5564   22309292.7884
      1728.948        1347.232
  -2409406.763 9  -1392648.10448  21466795.134    21466795.6814   21466801.5184
      3017.816        2351.545
 96 10  9 15 36  0.0000000  0  8 30 28 22 21 17  6 26 23             0.000400248
   1854860.253 8   1432458.10845  24630803.768    24630803.4734   24630809.0034
     -2325.016       -1811.701
  -3210776.008 9  -2480554.151 9  22240341.891    22240343.248    22240348.289
      3982.780        3103.465
  -1618808.197 9  -1220422.64847  23673693.262    23673693.6754   23673699.7854
      1873.956        1460.225
  -3412389.735 9  -2634314.17846  24400115.669    24400118.0854   24400125.3024
      4266.582        3324.609
  -1620589.130 9  -1252302.57048  20962178.582    20962179.6334   20962185.6874
      1975.734        1539.533
   -146179.896 9   -111419.33748  20568246.408    20568247.8014   20568253.4574
       -28.732         -22.389
  -1529476.734 9  -1180849.87148  22299479.125    22299479.1924   22299484.5634
      1708.068        1330.962
  -2499704.691 9  -1463010.10648  21449611.872    21449612.5714   21449618.4854
      3002.988        2339.991
 96 10  9 15 36 30.0000000  0  8 30 28 22 21 17  6 26 23             0.000377999
   1924623.748 8   1486819.19445  24644077.794    24644078.9634   24644084.8654
     -2324.921       -1811.627
  -3330099.087 9  -2573533.169 9  22217634.870    22217636.708    22217641.772
      3972.944        3095.801
  -1674751.969 9  -1264015.21646  23663047.291    23663047.8514   23663054.1034
      1856.370        1446.522
  -3540267.853 9  -2733959.44247  24375781.810    24375783.6644   24375790.9794
      4259.359        3318.981
  -1679720.832 9  -1298379.21948  20950926.247    20950927.2714   20950933.2704
      1967.250        1532.922
   -145039.277 9   -110530.56448  20568463.421    20568464.9024   20568470.5664
       -46.576         -36.293
  -1580387.487 9  -1220520.58948  22289790.964    22289791.2724   22289796.5924
      1686.797        1314.387
  -2589564.570 9  -1533030.79248  21432512.248    21432512.8364   21432518.6964
      2988.679        2328.841
 96 10  9 15 37  0.0000000  0  8 30 28 22 21 17  6 26 23             0.000355787
   1994361.089 7   1541159.90745  24657345.308    24657349.1434   24657355.0564
     -2324.774       -1811.512
  -3449139.069 9  -2666291.594 9  22194982.331    22194984.072    22194989.114
      3962.431        3087.609
  -1730180.520 9  -1307206.29446  23652500.051    23652500.2704   23652506.1824
      1838.017        1432.221
  -3667932.782 9  -2833438.59647  24351488.157    24351489.9104   24351497.3464
      4250.981        3312.453
  -1738609.057 9  -1344266.15148  20939720.220    20939721.2994   20939727.2134
      1957.934        1525.663
   -143378.361 9   -109236.37248  20568779.566    20568780.9694   20568786.6774
       -64.905         -50.575
  -1630662.664 9  -1259696.04648  22280223.656    22280224.2824   22280229.5054
      1664.389        1296.926
  -2679021.897 9  -1602737.78548  21415489.172    21415489.6554   21415495.5744
      2974.308        2317.642
 96 10  9 15 37 30.0000000  0  8 30 28 22 21 17  6 26 23             0.000333611
   2064064.748 8   1595474.38845  24670607.807    24670612.4544   24670620.3394
     -2323.326       -1810.384
  -3567888.787 9  -2758823.831 9  22172385.337    22172386.656    22172391.704
      3952.852        3080.144
  -1785078.673 9  -1349984.08846  23642052.693    23642053.5494   23642059.3244
      1820.425        1418.513
  -3795375.484 9  -2932744.58547  24327237.199    24327238.4164   24327245.9374
      4243.905        3306.939
  -1797238.457 9  -1389951.39648  20928563.349    20928564.4674   20928570.3804
      1949.310        1518.943
   -141193.187 9   -107533.65448  20569195.337    20569196.8214   20569202.5174
       -82.252         -64.092
  -1680299.433 9  -1298374.03248  22270777.432    22270778.6994   22270783.9704
      1643.547        1280.686
  -2768065.909 9  -1672122.71848  21398544.606    21398545.1684   21398551.0964
      2960.437        2306.834
 96 10  9 15 38  0.0000000  0  8 30 28 22 21 17  6 26 23             0.000311484
   2133751.613 8   1649775.72345  24683869.959    24683873.0774   24683880.5174
     -2321.661       -1809.086
  -3686314.522 9  -2851103.618 9  22149849.693    22149850.946    22149856.064
      3943.072        3072.524
  -1839408.562 9  -1392319.08647  23631714.472    23631714.9624   23631720.6684
      1802.212        1404.321
  -3922576.152 9  -3031861.97147  24303032.689    24303032.8884   24303040.5074
      4236.838        3301.432
  -1855584.359 9  -1435415.73548  20917460.712    20917461.6204   20917467.5994
      1941.249        1512.662
   -138445.552 9   -105392.65248  20569718.413    20569719.7214   20569725.3714
      -100.148         -78.037
  -1729289.339 9  -1336547.99348  22261454.689    22261456.2074   22261461.5674
      1623.371        1264.964
  -2856658.555 9  -1741155.94048  21381685.950    21381686.5164   21381692.4164
      2946.570        2296.028
 96 10  9 15 38 30.0000000  0  8 30 28 22 21 17  6 26 23             0.000289378
   2203382.277 8   1704033.28945  24697124.187    24697124.5634   24697131.3104
     -2319.855       -1807.679
  -3804449.905 9  -2943157.167 9  22127369.051    22127370.549    22127375.723
      3933.175        3064.812
  -1893183.446 9  -1434221.60047  23621481.961    23621481.9234   23621487.8524
      1783.272        1389.562
  -4049564.501 9  -3130813.90747  24278867.227    24278867.8344   24278875.3284
      4229.756        3295.914
  -1913691.649 9  -1480694.14048  20906403.393    20906404.1744   20906410.1404
      1933.147        1506.348
   -135159.471 9   -102832.08748  20570343.887    20570345.1274   20570350.7504
      -118.221         -92.120
  -1777685.213 9  -1374259.06648  22252245.346    22252246.7994   22252252.0734
      1603.748        1249.674
  -2944829.192 9  -1809860.32248  21364907.507    21364908.2034   21364914.0124
      2932.086        2284.742
 96 10  9 15 39  0.0000000  0  8 30 28 22 21 17  6 26 23             0.000267274
   2272957.149 7   1758247.44245  24710363.470    24710364.4434   24710371.2834
     -2318.005       -1806.238
  -3922286.063 9  -3034977.554 9  22104945.426    22104947.123    22104952.378
      3923.170        3057.015
  -1946387.548 9  -1475679.34347  23611357.248    23611357.5294   23611363.4754
      1764.327        1374.800
  -4176346.933 9  -3229605.37347  24254741.157    24254741.9794   24254749.2664
      4223.214        3290.816
  -1971545.826 9  -1525775.31548  20895393.869    20895394.8644   20895400.8554
      1924.640        1499.719
   -131332.514 9    -99850.06848  20571072.351    20571073.3814   20571079.0814
      -136.256        -106.174
  -1825502.084 9  -1411518.96048  22243146.499    22243147.6234   22243152.7884
      1584.793        1234.904
  -3032562.585 9  -1878223.99848  21348212.684    21348213.0474   21348218.8404
      2917.360        2273.267
 96 10  9 15 39 30.0000000  0  8 30 28 22 21 17  6 26 23             0.000245170
   2342476.65017   1812418.43854  24723592.582    24723592.2325          0.0005
     -2317.302       -1805.690
  -4039830.984 9  -3126570.985 9  22082577.499    22082579.080    22082584.470
      3912.686        3048.846
  -1999025.394 9  -1516695.85347  23601339.965    23601340.8744   23601346.8244
      1744.419        1359.288
  -4302948.740 9  -3328256.08747  24230650.207    24230650.3764   24230657.7294
      4216.475        3285.565
  -2029167.083 9  -1570674.99848  20884429.090    20884429.9124   20884435.8734
      1916.391        1493.292
   -126975.632 9    -96455.09548  20571901.237    20571902.4774   20571908.2164
      -154.684        -120.533
  -1872770.513 9  -1448351.49248  22234151.202    22234152.6984   22234157.9584
      1565.778        1220.087
  -3119860.142 9  -1946248.05248  21331600.487    21331600.9294   21331606.7284
      2902.156        2261.420
 96 10  9 15 40  0.0000000  0  8 30 28 22 21 17  6 26 23             0.000223100
   2411965.275 8   1866565.33955  24736813.731    24736815.6284          0.0005
     -2316.202       -1804.833
  -4157065.192 9  -3217922.314 9  22060269.191    22060270.181    22060275.615
      3902.253        3040.717
  -2051058.759 9  -1557241.36347  23591438.751    23591439.2024   23591445.1984
      1723.889        1343.290
  -4429350.191 9  -3426750.70947  24206597.183    24206596.8254   24206604.3704
      4209.481        3280.115
  -2086551.130 9  -1615389.84348  20873509.232    20873510.0584   20873516.0164
      1908.318        1487.001
   -122069.436 9    -92632.09648  20572834.778    20572836.1014   20572841.8484
      -173.039        -134.835
  -1919458.988 9  -1484732.11248  22225267.211    22225268.1444   22225273.4524
      1545.936        1204.625
  -3206713.786 9  -2013926.21248  21315072.770    21315073.2494   21315079.0114
      2887.389        2249.914
 96 10  9 15 40 30.0000000  0  8 30 28 22 21 17  6 26 23             0.000201098
   2481447.644 7   1920707.31454  24750041.069    24750038.2855          0.0005
     -2314.692       -1803.656
  -4273969.110 9  -3309016.273 9  22038023.194    22038024.163    22038029.605
      3892.533        3033.142
  -2102467.604 9  -1597300.19047  23581656.227    23581656.5214   23581662.3564
      1704.652        1328.300
  -4555527.465 9  -3525070.65546  24182586.274    24182586.1444   24182593.6054
      4203.489        3275.446
  -2143669.331 9  -1659897.53048  20862639.862    20862640.8024   20862646.8104
      1900.741        1481.097
   -116598.498 9    -88369.04848  20573875.602    20573877.2094   20573882.9534
      -190.335        -148.313
  -1965522.883 9  -1520626.05848  22216501.551    22216502.5464   22216507.7394
      1526.044        1189.125
  -3293105.326 9  -2081244.27548  21298632.830    21298633.4714   21298639.2904
      2873.255        2238.900
 96 10  9 15 41  0.0000000  0  8 30 28 22 21 17  6 26 23             0.000179130
   2550885.94317         0.000 1  24763256.572           0.000           0.000
     -2314.581       -1803.570
  -4390588.280 9  -3399888.342 9  22015831.357    22015832.346    22015837.793
      3881.747        3024.738
  -2153313.894 9  -1636920.67547  23571980.413    23571980.7844   23571986.5364
      1684.833        1312.857
  -4681532.949 9  -3623256.74546  24158608.165    24158608.2284   24158615.3714
      4196.420        3269.938
  -2200568.048 9  -1704234.19048  20851812.465    20851813.3714   20851819.4114
      1892.236        1474.470
   -110623.864 9    -83713.51748  20575012.703    20575014.1784   20575019.9684
      -208.374        -162.369
  -2010979.306 9  -1556046.64748  22207851.395    22207852.4244   22207857.6264
      1504.001        1171.949
  -3379073.833 9  -2148232.72648  21282273.534    21282274.2824   21282280.0014
      2857.605        2226.705
 96 10  9 15 41 30.0000000  0  8 30 28 22 21 17  6 26 23             0.000157209
   2620293.42417     52785.91853  24776459.115           0.0005          0.0005
     -2313.399       -1802.649
  -4506910.084 9  -3490528.706 9  21993696.244    21993697.116    21993702.491
      3872.013        3017.153
  -2203588.918 9  -1676096.05247  23562412.663    23562413.7544   23562419.7064
      1666.051        1298.222
  -4807344.277 9  -3721291.53446  24134667.275    24134667.2344   24134674.1454
      4189.915        3264.869
  -2257239.359 9  -1748393.66548  20841028.724    20841029.2914   20841035.2034
      1884.785        1468.664
   -104127.223 9    -78651.21848  20576249.131    20576250.4444   20576256.2164
      -225.605        -175.796
  -2055785.026 9  -1590960.18548  22199325.238    22199326.1454   22199331.4334
      1482.068        1154.858
  -3464596.113 9  -2214873.44748  21265998.989    21265999.9004   21266005.7124
      2842.890        2215.239
 96 10  9 15 42  0.0000000  0  8 30 28 22 21 17  6 26 23             0.000135380
   2689678.109 7    106912.42954  24789668.573           0.0004          0.0005
     -2311.623       -1801.265
  -4622914.838 9  -3580922.016 9  21971621.868    21971622.264    21971627.544
      3862.177        3009.488
  -2253291.450 9  -1714825.30147  23552955.256    23552955.7644   23552961.8264
      1648.204        1284.315
  -4932930.546 9  -3819150.92846  24110769.318    24110768.7474   24110775.7554
      4182.924        3259.421
  -2313656.488 9  -1792355.06248  20830292.491    20830293.3304   20830299.3274
      1876.879        1462.503
    -97094.469 9    -73171.16448  20577587.508    20577588.7494   20577594.4714
      -242.678        -189.100
  -2099904.569 9  -1625339.05848  22190929.907    22190930.5664   22190935.7614
      1460.125        1137.760
  -3549653.382 9  -2281151.82948  21249813.056    21249813.9814   21249819.7964
      2828.102        2203.716
 96 10  9 15 42 30.0000000  0  8 30 28 22 21 17  6 26 23             0.000113566
   2759000.698 7    160990.54654  24802864.720           0.0004          0.0005
     -2309.418       -1799.546
  -4738633.517 9  -3671092.407 9  21949601.393    21949601.746    21949607.071
      3852.622        3002.043
  -2302485.076 9  -1753158.00547  23543594.029    23543594.6274   23543600.4724
      1631.475        1271.279
  -5058311.647 9  -3916850.46946  24086910.504    24086909.4714   24086916.5214
      4176.074        3254.084
  -2369845.050 9  -1836138.35448  20819600.295    20819601.0274   20819606.9934
      1869.457        1456.720
    -89557.129 9    -67297.91748  20579021.925    20579023.0994   20579028.7944
      -259.555        -202.251
  -2143392.922 9  -1659226.09048  22182654.080    22182654.9744   22182660.1424
      1439.470        1121.665
  -3634271.229 9  -2347087.80548  21233710.896    21233711.7254   21233717.4884
      2813.360        2192.229
 96 10  9 15 43  0.0000000  0  8 30 28 22 21 17  6 26 23             0.000091697
   2828271.17917     48178.90353  24816047.552           0.0005          0.0005
     -2307.525       -1798.071
  -4854045.536 9  -3761023.848 9  21927638.634    21927639.531    21927644.885
      3842.365        2994.051
  -2351149.857 9  -1791078.61247  23534333.601    23534334.0134   23534339.9114
      1613.738        1257.458
  -5183467.095 9  -4014374.19446  24063094.378    24063093.3334   24063100.2124
      4168.382        3248.090
  -2425801.449 9  -1879740.74448  20808952.195    20808952.9034   20808958.9014
      1861.775        1450.734
    -81493.358 9    -61014.47048  20580556.503    20580557.6094   20580563.3084
      -277.350        -216.117
  -2186252.116 9  -1692622.86348  22174498.227    22174499.1734   22174504.4364
      1418.805        1105.562
  -3718425.056 9  -2412662.20248  21217696.828    21217697.8024   21217703.6204
      2797.905        2180.186
 96 10  9 15 43 30.0000000  0  8 30 28 22 21 17  6 26 23             0.000069927
   2897474.84817    102024.04354  24829219.660           0.0005          0.0005
     -2305.388       -1796.406
  -4969155.186 9  -3850719.685 9  21905733.749    21905734.925    21905740.210
      3832.174        2986.110
  -2399289.464 9  -1828590.00247  23525172.841    23525173.3434   23525179.3734
      1596.199        1243.791
  -5308389.331 9  -4111716.16046  24039323.072    24039321.6254   24039328.5444
      4160.368        3241.845
  -2481530.553 9  -1923166.02148  20798347.128    20798348.0264   20798354.0434
      1853.963        1444.646
    -72893.538 9    -54313.33148  20582192.793    20582194.0884   20582199.7974
      -295.261        -230.074
  -2228511.882 9  -1725552.54948  22166456.450    22166457.4234   22166462.6894
      1399.204        1090.289
  -3802136.513 9  -2477891.90548  21201767.414    21201768.0434   21201773.8394
      2783.555        2169.004
 96 10  9 15 44  0.0000000  0  8 30 28 22 21 17  6 26 23             0.000048121
   2966605.64717    155812.39654  24842375.365           0.0005          0.0005
     -2303.031       -1794.570
  -5083965.549 9  -3940182.299 9  21883886.031    21883887.230    21883892.463
      3822.136        2978.288
  -2446910.249 9  -1865697.11447  23516110.742    23516111.4804   23516117.5034
      1578.625        1230.097
  -5433081.870 9  -4208879.15846  24015595.284    24015593.5004   24015600.5684
      4152.880        3236.010
  -2537025.645 9  -1966408.94148  20787786.578    20787787.6264   20787793.6534
      1846.017        1438.455
    -63761.764 9    -47197.68048  20583930.499    20583931.8464   20583937.5454
      -313.270        -244.106
  -2270203.164 9  -1758039.27848  22158522.678    22158523.8134   22158528.9924
      1380.555        1075.757
  -3885430.482 9  -2542796.27948  21185916.960    21185917.7004   21185923.5574
      2769.727        2158.229
 96 10  9 15 44 30.0000000  0  8 30 28 22 21 17  6 26 23             0.000026302
   3035669.96417     44432.11152  24855513.853           0.0005          0.0005
     -2301.221       -1793.159
  -5198454.755 9  -4029394.663 9  21862098.984    21862100.657    21862105.837
      3810.443        2969.176
  -2493974.060 9  -1902370.24247  23507155.044    23507155.4584   23507161.5994
      1558.756        1214.615
  -5557540.320 9  -4305859.74646  23991912.308    23991909.7134   23991917.0734
      4144.414        3229.414
  -2592269.262 9  -2009455.92348  20777273.896    20777275.0484   20777281.0474
      1836.922        1431.368
    -54072.656 9    -39647.74548  20585774.384    20585775.6354   20585781.3104
      -332.632        -259.194
  -2311318.698 9  -1790077.35748  22150698.625    22150699.8094   22150705.0434
      1360.302        1059.976
  -3968291.109 9  -2607362.99948  21170149.093    21170149.8794   21170155.6484
      2754.229        2146.152
 96 10  9 15 45  0.0000000  0  7 28 22 21 17  6 26 23                0.000004481
  -5312645.430 9  -4118374.398 9  21840369.460    21840370.857    21840376.093
      3801.573        2962.265
  -2540486.255 9  -1938613.51547  23498304.405    23498304.5094   23498310.5814
      1541.423        1201.109
  -5681804.736 9  -4402689.16046  23968264.394    23968262.9034   23968270.1844
      4139.101        3225.274
  -2647292.937 9  -2052331.51248  20766803.047    20766804.3594   20766810.3374
      1830.508        1426.370
    -43863.233 9    -31692.37348  20587717.291    20587718.4524   20587724.0934
      -348.667        -271.689
  -2351875.485 9  -1821680.04048  22142981.012    22142982.1184   22142987.4224
      1342.695        1046.256
  -4050742.041 9  -2671610.46148  21154459.251    21154459.9114   21154465.8734
      2741.856        2136.511
 96 10  9 15 45 30.0000000  0  7 28 22 21 17  6 26 23               -0.000017329
  -5426493.884 9  -4207087.468 9  21818704.838    21818706.133    21818711.414
      3789.010        2952.475
  -2586404.576 9  -1974394.01947  23489566.034    23489566.5604   23489572.5404
      1520.448        1184.765
  -5805837.488 9  -4499338.05846  23944661.101    23944660.2774   23944667.1844
      4130.568        3218.624
  -2702042.970 9  -2094993.88348  20756385.079    20756385.8894   20756391.7664
      1820.285        1418.404
    -33099.736 9    -23305.25248  20589765.807    20589766.7434   20589772.3084
      -368.052        -286.794
  -2391825.028 9  -1852809.57148  22135379.006    22135380.0024   22135385.2824
      1321.287        1029.574
  -4132750.746 9  -2735513.33948  21138853.561    21138854.1924   21138860.2034
      2725.913        2124.088
 96 10  9 15 45 59.9990000  0  7 28 22 21 17  6 26 23               -0.000039110
  -5540015.360 9  -4295545.762 9  21797102.417    21797103.667    21797108.986
      3778.830        2944.543
  -2631745.441 9  -2009724.58347  23480937.813    23480938.4934   23480944.5814
      1501.920        1170.327
  -5929672.731 9  -4595833.05846  23921095.494    23921095.2934   23921101.9174
      4124.939        3214.238
  -2756551.892 9  -2137468.37048  20746012.648    20746013.2164   20746019.0534
      1813.383        1413.026
    -21815.043 9    -14512.00948  20591913.152    20591914.1614   20591919.6974
      -384.744        -299.800
  -2431181.308 9  -1883476.80248  22127889.389    22127890.6924   22127895.9814
      1301.882        1014.454
  -4214320.321 9  -2799074.03948  21123331.393    21123332.0314   21123338.0074
      2711.683        2113.000
 96 10  9 15 46 29.9990000  0  7 28 22 21 17  6 26 23               -0.000060833
  -5653215.588 9  -4383753.728 9  21775561.247    21775562.382    21775567.718
      3768.113        2936.192
  -2676519.013 9  -2044613.10047  23472417.929    23472418.3704   23472424.5914
      1483.339        1155.849
  -6053314.187 9  -4692177.02946  23897567.488    23897567.0304   23897573.7904
      4117.979        3208.815
  -2810845.727 9  -2179775.24848  20735680.538    20735681.3454   20735687.3164
      1806.412        1407.594
    -10021.450 9     -5322.21148  20594157.531    20594158.4614   20594163.9774
      -401.273        -312.680
  -2469928.046 9  -1913669.06848  22120515.580    22120517.4974   22120522.6674
      1281.493         998.566
  -4295441.856 9  -2862285.61248  21107894.268    21107895.1064   21107901.0964
      2696.740        2101.356
 96 10  9 15 46 59.9990000  0  7 28 22 21 17  6 26 23               -0.000082505
  -5766087.805 9  -4471706.098 9  21754082.348    21754083.585    21754088.864
      3757.081        2927.596
  -2720737.647 9  -2079069.18047  23464003.351    23464003.8994   23464010.0184
      1465.008        1141.565
  -6176740.611 9  -4788353.44247  23874079.004    23874079.6504   23874086.5824
      4110.702        3203.144
  -2864920.961 9  -2221911.79648  20725390.341    20725391.1644   20725397.1654
      1798.962        1401.789
      2278.890 9      4262.45348  20596498.123    20596499.1704   20596504.6894
      -418.448        -326.063
  -2508054.212 9  -1943377.77248  22113260.955    22113262.3674   22113267.5414
      1260.714         982.375
  -4376122.150 9  -2925153.36448  21092541.315    21092542.2204   21092548.2294
      2682.401        2090.182
 96 10  9 15 47 29.9990000  0  7 28 22 21 17  6 26 23               -0.000104149
  -5878638.024 9  -4559407.565 9  21732664.854    21732666.054    21732671.340
      3746.985        2919.729
  -2764423.721 9  -2113110.27147  23455690.122    23455690.7194   23455696.7884
      1448.108        1128.396
  -6299954.031 9  -4884363.86147  23850632.756    23850632.9054   23850639.8974
      4104.323        3198.174
  -2918780.203 9  -2263880.03648  20715141.046    20715142.0614   20715148.0524
      1792.439        1396.706
     15093.785 9     14248.06848  20598936.532    20598937.7244   20598943.2224
      -435.160        -339.086
  -2545564.084 9  -1972606.25548  22106123.199    22106124.4434   22106129.7034
      1240.766         966.831
  -4456381.753 9  -2987693.30948  21077268.318    21077269.3484   21077275.3194
      2668.901        2079.663
 96 10  9 15 47 59.9990000  0  7 28 22 21 17  6 26 23               -0.000125780
  -5990878.993 9  -4646868.057 9  21711306.406    21711307.350    21711312.628
      3735.536        2910.807
  -2807601.857 9  -2146755.59547  23447473.826    23447474.1194   23447480.3064
      1430.310        1114.527
  -6422970.249 9  -4980220.62447  23827223.536    23827223.8214   23827230.6584
      4096.544        3192.112
  -2972440.075 9  -2305692.93148  20704930.252    20704931.0344   20704936.9144
      1784.616        1390.610
     28418.040 9     24630.58748  20601472.144    20601473.2504   20601478.7654
      -453.274        -353.201
  -2582468.054 9  -2001362.60648  22099100.578    22099101.8754   22099107.1244
      1219.258         950.071
  -4536230.457 9  -3049913.07248  21062073.742    21062074.6844   21062080.6384
      2654.210        2068.216
 96 10  9 15 48 29.9990000  0  7 28 22 21 17  6 26 23               -0.000147416
  -6102812.965 9  -4734089.323 9  21690006.535    21690007.057    21690012.338
      3725.483        2902.974
  -2850285.530 9  -2180015.61447  23439351.099    23439351.8034   23439357.9404
      1413.945        1101.775
  -6545788.386 9  -5075923.04247  23803852.186    23803852.2574   23803859.1384
      4090.191        3187.162
  -3025891.586 9  -2347343.45648  20694758.925    20694759.6284   20694765.4934
      1777.643        1385.176
     42246.230 9     35405.77748  20604103.537    20604104.7114   20604110.2214
      -469.901        -366.157
  -2618765.209 9  -2029646.10348  22092192.963    22092194.7364   22092199.9834
      1199.527         934.696
  -4615677.037 9  -3111819.48448  21046955.452    21046956.4794   21046962.4934
      2641.108        2058.006
 96 10  9 15 48 59.9990000  0  7 28 22 21 17  6 26 23               -0.000169030
  -6214392.402 9  -4821034.338 9  21668773.544    21668774.243    21668779.467
      3714.162        2894.152
  -2892416.636 9  -2212845.05347  23431334.028    23431334.6034   23431340.6004
      1395.729        1087.581
  -6668375.322 9  -5171445.31447  23780523.911    23780524.6444   23780531.7174
      4083.215        3181.726
  -3079074.427 9  -2388784.63148  20684638.693    20684639.2694   20684645.1274
      1769.041        1378.474
     56632.969 9     46616.20448  20606841.675    20606842.4934   20606847.9694
      -488.125        -380.357
  -2654422.677 9  -2057431.15548  22085408.179    22085409.3944   22085414.6014
      1178.731         918.492
  -4694675.663 9  -3173376.85048  21031922.450    21031923.5454   21031929.5514
      2626.402        2046.547
 96 10  9 15 49 29.9990000  0  7 28 22 21 17  6 26 23               -0.000190645
  -6325650.808 9  -4907729.197 9  21647601.667    21647602.554    21647607.696
      3702.984        2885.442
  -2934020.584 9  -2245263.72847  23423417.229    23423417.5254   23423423.6074
      1377.656        1073.498
  -6790764.023 9  -5266813.10147  23757235.063    23757234.8334   23757242.0494
      4076.004        3176.107
  -3132024.385 9  -2430044.34248  20674562.681    20674563.2134   20674569.1584
      1761.001        1372.208
     71542.685 9     58234.15248  20609678.720    20609679.7284   20609685.1634
      -505.786        -394.119
  -2689476.331 9  -2084745.69248  22078737.748    22078738.8754   22078744.0344
      1158.129         902.438
  -4773238.798 9  -3234594.86248  21016972.487    21016973.4794   21016979.5204
      2611.066        2034.597
 96 10  9 15 49 59.9990000  0  7 28 22 21 17  6 26 23               -0.000212240
  -6436579.406 9  -4994167.050 9  21626492.842    21626493.565    21626498.697
      3692.252        2877.079
  -2975081.982 9  -2277259.62947  23415603.190    23415603.8254   23415609.8384
      1359.886        1059.651
  -6912939.714 9  -5362014.89347  23733986.204    23733985.6324   23733992.8704
      4068.969        3170.625
  -3184749.172 9  -2471128.58448  20664529.463    20664529.9854   20664535.9934
      1753.978        1366.736
     86963.473 9     70250.33748  20612613.004    20612614.1514   20612619.6594
      -522.171        -406.886
  -2723923.964 9  -2111587.99848  22072182.403    22072183.7024   22072188.8824
      1138.293         886.982
  -4851353.918 9  -3295463.77948  21002107.682    21002108.6534   21002114.6434
      2596.728        2023.424
 96 10  9 15 50 29.9990000  0  7 28 22 21 17  6 26 23               -0.000233800
  -6547164.924 9  -5080337.577 9  21605449.018    21605449.864    21605454.935
      3679.792        2867.370
  -3015585.300 9  -2308820.66447  23407895.623    23407896.2624   23407902.3524
      1339.952        1044.118
  -7034881.318 9  -5457034.27647  23710780.748    23710780.9074   23710788.2274
      4060.185        3163.781
  -3237243.796 9  -2512033.48748  20654540.203    20654540.6084   20654546.6374
      1745.385        1360.040
    102892.868 9     82662.83548  20615644.097    20615645.3924   20615650.9324
      -540.108        -420.863
  -2757760.675 9  -2137954.26348  22065743.812    22065744.8314   22065750.0914
      1117.287         870.613
  -4929022.309 9  -3355984.58948  20987327.881    20987328.8864   20987334.8494
      2581.042        2011.202
 96 10  9 15 50 59.9990000  0  7 28 22 21 17  6 26 23               -0.000255310
  -6657394.370 9  -5166230.650 9  21584472.626    21584473.846    21584478.890
      3668.432        2858.518
  -3055508.392 9  -2339929.58147  23400298.946    23400299.1854   23400305.3484
      1321.355        1029.627
  -7156577.530 9  -5551862.46747  23687622.722    23687622.9054   23687630.1074
      4052.465        3157.765
  -3289505.567 9  -2552756.94748  20644595.125    20644595.5854   20644601.4714
      1738.254        1354.484
    119340.329 9     95479.01148  20618773.949    20618775.2844   20618780.8704
      -556.736        -433.820
  -2790983.314 9  -2163842.03348  22059421.486    22059422.7434   22059428.0664
      1097.101         854.884
  -5006249.082 9  -3416161.28948  20972632.385    20972633.1474   20972639.0254
      2567.036        2000.288
 96 10  9 15 51 29.9990000  0  7 28 22 21 17  6 26 23               -0.000276778
  -6767269.262 9  -5251847.447 9  21563564.020    21563565.304    21563570.314
      3655.858        2848.721
  -3094875.107 9  -2370604.95647  23392807.621    23392808.0664   23392814.2194
      1302.492        1014.929
  -7278027.097 9  -5646498.49647  23664512.266    23664511.9544   23664518.9084
      4043.710        3150.943
  -3341544.183 9  -2593306.52748  20634692.524    20634692.9694   20634698.7824
      1730.144        1348.164
    136291.068 9    108687.35548  20621999.919    20622000.9834   20622006.5344
      -573.968        -447.248
  -2823588.896 9  -2189248.98848  22053216.897    22053218.1734   22053223.4414
      1075.930         838.387
  -5083054.933 9  -3476009.99648  20958016.705    20958017.4964   20958023.3454
      2552.743        1989.150
 96 10  9 15 51 59.9990000  0  7 28 22 21 17  6 26 23               -0.000298234
  -6876798.711 9  -5337195.069 9  21542721.315    21542722.492    21542727.456
      3644.399        2839.791
  -3133715.487 9  -2400870.19847  23385416.252    23385416.9074   23385423.1164
      1285.211        1001.463
  -7399256.308 9  -5740962.80047  23641442.813    23641442.7154   23641449.6574
      4036.642        3145.435
  -3393360.751 9  -2633683.06948  20624832.023    20624832.5464   20624838.3334
      1722.545        1342.243
    153725.319 9    122272.46548  20625317.722    20625318.6284   20625324.1664
      -590.117        -459.831
  -2855589.750 9  -2214184.70848  22047127.517    22047128.6154   22047133.8634
      1055.784         822.689
  -5159471.082 9  -3535555.04148  20943475.310    20943475.9934   20943481.7774
      2539.862        1979.113
 96 10  9 15 52 29.9990000  0  7 28 22 21 17  6 26 23               -0.000319679
  -6985975.629 9  -5422267.996 9  21521945.690    21521946.686    21521951.694
      3633.952        2831.651
  -3172025.788 9  -2430722.38147  23378126.256    23378126.8354   23378132.9084
      1268.672         988.576
  -7520277.693 9  -5835265.17047  23618413.056    23618413.0014   23618419.9694
      4031.461        3141.398
  -3444936.240 9  -2673871.76548  20615017.096    20615018.0094   20615023.8694
      1715.676        1336.890
    171658.522 9    136246.37848  20628730.408    20628731.1934   20628736.7124
      -605.649        -471.934
  -2886975.772 9  -2238641.35848  22041154.861    22041156.0954   22041161.2234
      1036.604         807.743
  -5235482.735 9  -3594784.89348  20929010.619    20929011.4644   20929017.2224
      2527.350        1969.364
 96 10  9 15 52 59.9990000  0  7 28 22 21 17  6 26 23               -0.000341140
  -7094820.069 9  -5507081.840 9  21501233.220    21501234.249    21501239.218
      3624.799        2824.519
  -3209828.829 9  -2460179.31347  23370932.880    23370933.1924   23370939.2564
      1254.050         977.182
  -7641120.869 9  -5929428.65447  23595416.727    23595417.3534   23595424.2534
      4027.326        3138.176
  -3496281.379 9  -2713880.96448  20605246.759    20605247.3904   20605253.2654
      1709.751        1332.274
    190083.200 9    150603.25848  20632236.512    20632237.2894   20632242.8634
      -620.245        -483.308
  -2917763.831 9  -2262632.03348  22035296.233    22035297.2534   22035302.5574
      1018.421         793.575
  -5311094.974 9  -3653703.51648  20914622.167    20914622.9584   20914628.6524
      2515.678        1960.269
 96 10  9 15 53 29.9990000  0  7 28 22 21 17  6 26 23               -0.000362667
  -7203389.325 9  -5591681.256 9  21480573.282    21480574.300    21480579.123
      3612.525        2814.955
  -3247192.700 9  -2489294.03647  23363822.553    23363823.1194   23363829.2294
      1236.187         963.263
  -7761845.956 9  -6023500.11947  23572442.934    23572444.1104   23572451.0934
      4020.333        3132.727
  -3547444.766 9  -2753748.52848  20595510.523    20595511.3954   20595517.3094
      1700.577        1325.125
    208948.335 9    165303.34748  20635826.189    20635827.2544   20635832.8304
      -638.128        -497.243
  -2948011.919 9  -2286201.96448  22029540.299    22029541.2214   22029546.6484
       997.587         777.341
  -5386341.608 9  -3712337.24048  20900303.226    20900304.0224   20900309.8094
      2500.113        1948.140
 96 10  9 15 53 59.9990000  0  7 28 22 21 17  6 26 23               -0.000384195
  -7311590.516 9  -5675993.859 9  21459983.910    21459984.432    21459989.187
      3598.473        2804.005
  -3284010.671 9  -2517983.37047  23356816.308    23356816.7984   23356822.9694
      1215.784         947.364
  -7882352.779 9  -6117401.52647  23549510.821    23549512.3994   23549519.4244
      4010.912        3125.386
  -3598335.987 9  -2793404.02948  20585826.524    20585827.1924   20585833.0164
      1689.946        1316.841
    228357.693 9    180427.50048  20639519.731    20639520.7344   20639526.3484
      -658.187        -512.873
  -2977635.086 9  -2309284.95948  22023902.738    22023904.0774   22023909.3454
       974.995         759.736
  -5461108.794 9  -3770597.37448  20886075.385    20886076.2414   20886082.0414
      2481.963        1933.997
 96 10  9 15 54 29.9990000  0  7 28 22 21 17  6 26 23               -0.000405695
  -7419413.366 9  -5760011.651 9  21439465.541    21439466.448    21439471.258
      3585.069        2793.560
  -3320255.069 9  -2546225.74347  23349919.374    23349919.7854   23349925.8644
      1196.023         931.966
  -8002616.220 9  -6211113.28147  23526625.601    23526627.0344   23526633.9954
      4001.897        3118.361
  -3648957.956 9  -2832849.70948  20576193.268    20576194.1314   20576199.9954
      1680.202        1309.248
    248324.399 9    195985.95648  20643319.563    20643320.2954   20643325.8734
      -677.446        -527.880
  -3006632.904 9  -2331880.65048  22018384.765    22018385.9624   22018391.1614
       953.649         743.103
  -5535370.681 9  -3828463.77148  20871943.977    20871944.7224   20871950.4174
      2464.331        1920.258
 96 10  9 15 54 59.9990000  0  7 28 22 21 17  6 26 23               -0.000427148
  -7526803.836 9  -5843692.545 9  21419029.626    21419030.690    21419035.565
      3573.668        2784.676
  -3355881.999 9  -2573987.01247  23343139.841    23343140.2474   23343146.3254
      1178.461         918.281
  -8122568.793 9  -6304582.80347  23503800.610    23503800.8434   23503807.7884
      3994.335        3112.469
  -3699261.266 9  -2872047.10648  20566620.913    20566621.6854   20566627.5704
      1672.870        1303.535
    268893.268 9    212013.61448  20647233.696    20647234.4574   20647240.0464
      -694.226        -540.955
  -3034960.340 9  -2353953.97348  22012994.455    22012995.4264   22013000.6694
       934.399         728.103
  -5609081.989 9  -3885901.15548  20857917.172    20857917.8744   20857923.5274
      2449.178        1908.450
 96 10  9 15 55 29.9990000  0  7 28 22 21 17  6 26 23               -0.000448576
  -7633820.829 9  -5927082.403 9  21398665.113    21398665.943    21398670.909
      3560.374        2774.317
  -3390948.320 9  -2601311.43847  23336467.201    23336467.3354   23336473.4404
      1158.833         902.987
  -8242265.680 9  -6397853.07547  23481023.023    23481023.3604   23481030.2424
      3984.984        3105.182
  -3749326.411 9  -2911058.89948  20557093.536    20557094.4984   20557100.4194
      1664.452        1296.976
    289986.374 9    228449.77248  20651247.801    20651248.3854   20651253.9224
      -712.272        -555.017
  -3062685.855 9  -2375558.26648  22007718.793    22007719.4434   22007724.6774
       913.518         711.832
  -5682312.940 9  -3942964.22348  20843981.749    20843982.4784   20843988.1044
      2432.754        1895.652
 96 10  9 15 55 59.9990000  0  7 28 22 21 17  6 26 23               -0.000469973
  -7740476.812 9  -6010190.965 9  21378368.952    21378369.976    21378374.987
      3552.461        2768.151
  -3425460.533 9  -2628204.07947  23329899.609    23329899.9264   23329905.9624
      1144.491         891.811
  -8361717.192 9  -6490932.15547  23458292.956    23458292.4824   23458299.3804
      3981.054        3102.120
  -3799180.848 9  -2949906.51848  20547606.869    20547607.5514   20547613.3464
      1661.540        1294.706
    311573.030 9    245270.52548  20655355.643    20655356.2494   20655361.7694
      -724.345        -564.425
  -3089817.057 9  -2396699.45648  22002556.113    22002556.5544   22002561.7984
       897.630         699.452
  -5755102.469 9  -3999683.32948  20830130.278    20830131.1084   20830136.7394
      2422.393        1887.579
 96 10  9 15 56 29.9990000  0  7 28 22 21 17  6 26 23               -0.000491346
  -7846774.093 9  -6093020.003 9  21358141.407    21358142.286    21358147.376
      3536.809        2755.955
  -3459437.763 9  -2654679.84347  23323433.885    23323434.3414   23323440.3244
      1123.512         875.464
  -8480946.519 9  -6583838.08447  23435603.914    23435603.7434   23435610.7584
      3970.238        3093.692
  -3848828.414 9  -2988592.92748  20538159.452    20538160.0064   20538165.7394
      1651.096        1286.568
    333637.214 9    262463.38148  20659554.167    20659554.8724   20659560.4884
      -743.878        -579.645
  -3116350.623 9  -2417374.94748  21997506.532    21997507.3904   21997512.6604
       873.882         680.947
  -5827471.668 9  -4056074.89448  20816358.696    20816359.6354   20816365.3734
      2405.148        1874.141
 96 10  9 15 56 59.9990000  0  7 28 22 21 17  6 26 23               -0.000512685
  -7952715.306 9  -6175571.600 9  21337980.988    21337982.372    21337987.512
      3524.479        2746.347
  -3492899.590 9  -2680754.01047  23317066.614    23317066.7314   23317072.7704
      1105.735         861.612
  -8599959.894 9  -6676575.76247  23412956.174    23412956.2754   23412963.1434
      3962.563        3087.711
  -3898278.342 9  -3027125.33648  20528749.322    20528750.0174   20528755.7244
      1644.160        1281.164
    356178.133 9    280027.70948  20663843.433    20663844.2804   20663849.9154
      -760.207        -592.369
  -3142275.803 9  -2437576.39048  21992572.850    21992573.9874   21992579.2504
       853.076         664.735
  -5899450.996 9  -4112162.68048  20802661.615    20802662.4754   20802668.1644
      2391.978        1863.879
 96 10  9 15 57 29.9990000  0  7 28 22 21 17  6 26 23               -0.000533992
  -8058300.197 9  -6257845.536 9  21317889.146    21317890.287    21317895.420
      3514.913        2738.893
  -3525847.879 9  -2706428.01247  23310796.744    23310796.8194   23310803.0284
      1091.274         850.343
  -8718760.462 9  -6769147.61647  23390348.875    23390349.2444   23390356.0314
      3957.884        3084.065
  -3947533.037 9  -3065505.62948  20519377.051    20519377.2524   20519382.9454
      1639.685        1277.677
    379190.396 9    297959.32848  20668222.751    20668223.3974   20668229.0074
      -773.628        -602.827
  -3167586.851 9  -2457299.27748  21987756.171    21987757.4394   21987762.7364
       834.749         650.454
  -5971052.267 9  -4167955.86848  20789036.439    20789037.2474   20789042.8324
      2381.867        1856.000
 96 10  9 15 57 59.9990000  0  7 28 22 21 17  6 26 23               -0.000555262
  -8163485.950 9  -6339808.452 9  21297872.920    21297874.143    21297879.197
      3501.015        2728.064
  -3558258.984 9  -2731683.43447  23304628.506    23304629.2274   23304635.3894
      1073.193         836.254
  -8837306.176 9  -6861520.88547  23367789.608    23367790.6804   23367797.5214
      3948.733        3076.935
  -3996529.342 9  -3103684.56448  20510053.145    20510053.5354   20510059.2854
      1630.365        1270.414
    402718.488 9    316292.88848  20672700.101    20672700.7134   20672706.2704
      -791.586        -616.820
  -3192236.219 9  -2476506.57848  21983065.037    21983066.8464   21983072.2054
       812.253         632.924
  -6042233.095 9  -4223421.44248  20775491.432    20775491.9994   20775497.5444
      2366.988        1844.406
 96 10  9 15 58 29.9990000  0  7 28 22 21 17  6 26 23               -0.000576492
  -8268245.172 9  -6421439.014 9  21277937.696    21277939.145    21277944.075
      3483.637        2714.522
  -3590128.101 9  -2756516.50447  23298564.214    23298564.7294   23298570.8594
      1051.936         819.690
  -8955564.022 9  -6953669.82547  23345286.491    23345287.0194   23345293.8774
      3935.753        3066.821
  -4045245.036 9  -3141644.83848  20500782.671    20500783.2144   20500789.0144
      1618.049        1260.817
    426800.451 9    335058.03148  20677282.750    20677283.3924   20677288.9084
      -813.092        -633.578
  -3216207.717 9  -2495185.66448  21978502.923    21978505.2254   21978510.5684
       786.607         612.941
  -6112956.376 9  -4278530.47948  20762033.103    20762033.7734   20762039.3614
      2348.610        1830.086
 96 10  9 15 58 59.9990000  0  7 28 22 21 17  6 26 23               -0.000597714
  -8372624.706 9  -6502773.704 9  21258075.409    21258076.448    21258081.261
      3472.236        2705.638
  -3621491.676 9  -2780955.68847  23292596.583    23292596.4634   23292602.6584
      1036.137         807.379
  -9073568.921 9  -7045621.67247  23322830.683    23322831.3894   23322838.2584
      3928.708        3061.331
  -4093725.300 9  -3179421.66548  20491557.288    20491557.7064   20491563.4714
      1611.223        1255.498
    451381.040 9    354211.71448  20681960.307    20681960.9374   20681966.4724
      -828.239        -645.381
  -3239556.331 9  -2513379.38348  21974059.879    21974062.1724   21974067.4514
       767.269         597.872
  -6183260.234 9  -4333312.69848  20748654.638    20748655.3784   20748660.9534
      2335.436        1819.820
 96 10  9 15 59 29.9990000  0  7 28 22 21 17  6 26 23               -0.000618938
  -8476611.356 9  -6583802.254 9  21238287.958    21238288.423    21238293.367
      3457.374        2694.058
  -3652333.621 9  -2804988.37947  23286726.959    23286727.4824   23286733.6294
      1017.066         792.519
  -9191320.000 9  -7137375.74847  23300422.573    23300424.0884   23300430.9084
      3918.588        3053.445
  -4141950.637 9  -3216999.84548  20482379.969    20482380.7034   20482386.4994
      1600.933        1247.480
    476463.947 9    373756.81448  20686733.362    20686734.0964   20686739.6234
      -846.829        -659.867
  -3262277.922 9  -2531084.50748  21969736.361    21969738.3834   21969743.6414
       744.761         580.333
  -6253109.951 9  -4387741.02948  20735362.554    20735363.3514   20735369.1164
      2318.403        1806.548
 96 10  9 15 59 59.9990000  0  7 28 22 21 17  6 26 23               -0.000640136
  -8580167.745 9  -6664495.538 9  21218581.357    21218582.207    21218587.334
      3448.650        2687.260
  -3682609.411 9  -2828579.89947  23280966.176    23280966.1974   23280972.2364
      1003.501         781.949
  -9308783.754 9  -7228905.93547  23278070.673    23278071.5484   23278078.4034
      3914.691        3050.409
  -4189883.936 9  -3254350.47348  20473258.620    20473259.3184   20473265.0254
      1597.002        1244.417
    502091.525 9    393726.33348  20691610.326    20691610.9204   20691616.4604
      -859.412        -669.672
  -3284345.441 9  -2548279.97848  21965537.431    21965539.1194   21965544.3814
       728.702         567.820
  -6322457.380 9  -4441777.98848  20722166.311    20722167.0704   20722172.7424
      2307.166        1797.792
 96 10  9 16  0 29.9990000  0  7 28 22 21 17  6 26 23               -0.000661327
  -8683357.291 9  -6744902.968 9  21198944.577    21198945.727    21198951.060
      3429.812        2672.581
  -3712359.313 9  -2851761.66047  23275304.952    23275304.9904   23275311.0164
       978.968         762.832
  -9426033.977 9  -7320269.71447  23255759.036    23255759.5654   23255766.5244
      3901.258        3039.941
  -4237596.621 9  -3291529.19548  20464179.447    20464179.9734   20464185.5564
      1582.943        1233.462
    528200.358 9    414070.85348  20696578.932    20696579.2904   20696584.8874
      -881.811        -687.125
  -3305819.334 9  -2565012.88048  21961451.402    21961452.8294   21961457.9994
       702.089         547.082
  -6391365.991 9  -4495473.00148  20709053.511    20709054.1954   20709059.7944
      2285.980        1781.283
 96 10  9 16  0 59.9990000  0  8 28 22 21 17  6 26 23  3            -0.000682428
  -8786063.718 9  -6824933.942 9  21179399.976    21179401.264    21179406.739
      3416.862        2662.490
  -3741454.072 9  -2874432.90147  23269768.416    23269768.4224   23269774.4754
       960.362         748.334
  -9542966.541 9  -7411385.96347  23233507.755    23233508.0244   23233515.0634
      3893.881        3034.193
  -4284963.685 9  -3328438.59048  20455165.709    20455166.3814   20455171.8304
      1574.568        1226.936
    554896.206 9    434872.78048  20701658.750    20701659.3354   20701664.9814
      -898.415        -700.064
  -3326578.204 9  -2581188.61948  21957501.514    21957502.4954   21957507.6374
       681.524         531.058
  -6459723.439 9  -4548738.52948  20696045.533    20696046.1984   20696051.8744
      2270.840        1769.486
  -2090256.29218  -1612519.86755  24980609.581    24980608.4035   24980615.3925
      4686.573        3651.875
 96 10  9 16  1 29.9990000  0  8 28 22 21 17  6 26 23  3            -0.000703488
  -8888363.628 9  -6904648.148 9  21159932.966    21159934.277    21159939.754
      3402.033        2650.935
  -3769974.308 9  -2896656.47547  23264341.010    23264341.1604   23264347.2954
       940.000         732.468
  -9659660.399 9  -7502316.21947  23211301.311    23211301.9314   23211308.9004
      3884.590        3026.953
  -4332071.690 9  -3365146.12448  20446201.551    20446202.0424   20446207.5104
      1564.954        1219.445
    582110.419 9    456078.63948  20706837.452    20706838.0754   20706843.7384
      -916.876        -714.449
  -3346704.908 9  -2596871.77148  21953671.414    21953672.5474   21953677.6184
       659.362         513.788
  -6527616.284 9  -4601642.03948  20683126.013    20683126.6704   20683132.2664
      2254.364        1756.647
  -2230812.964 8  -1722044.53645  24953869.645    24953862.3634   24953867.8664
      4682.736        3648.885
 96 10  9 16  1 59.9990000  0  8 28 22 21 17  6 26 23  3            -0.000724495
  -8990264.021 9  -6984051.043 9  21140542.410    21140543.286    21140548.768
      3391.436        2642.677
  -3797929.296 9  -2918439.61847  23259021.364    23259021.4514   23259027.5804
       923.950         719.961
  -9776123.780 9  -7593066.89547  23189138.691    23189139.6804   23189146.5574
      3879.646        3023.101
  -4378944.434 9  -3401670.34048  20437281.818    20437282.4314   20437287.8634
      1560.055        1215.627
    609827.147 9    477676.06248  20712111.526    20712112.3754   20712118.1694
      -930.736        -725.249
  -3366216.602 9  -2612075.66848  21949959.003    21949959.5934   21949964.7574
       641.489         499.862
  -6595066.503 9  -4654200.64348  20670290.720    20670291.3144   20670296.8884
      2242.502        1747.404
  -2371296.988 8  -1831512.63445  24927140.478    24927129.5904   24927134.2604
      4683.109        3649.176
 96 10  9 16  2 29.9990000  0  8 28 22 21 17  6 26 23  3            -0.000745462
  -9091770.821 9  -7063147.247 9  21121226.242    21121227.197    21121232.719
      3375.427        2630.203
  -3825339.953 9  -2939798.56947  23253805.130    23253805.4314   23253811.5384
       903.369         703.924
  -9892356.840 9  -7683638.09147  23167020.427    23167021.2574   23167028.1194
      3868.929        3014.750
  -4425598.624 9  -3438024.25148  20428403.754    20428404.3934   20428409.9554
      1550.040        1207.823
    638032.378 9    499654.14148  20717479.194    20717479.6404   20717485.4264
      -949.750        -740.065
  -3385117.376 9  -2626803.54748  21946362.711    21946362.9144   21946368.0834
       618.504         481.951
  -6662089.149 9  -4706426.07148  20657536.862    20657537.3384   20657543.0124
      2225.438        1734.108
  -2511713.070 8  -1940927.77945  24900418.951    24900409.9804   24900413.1524
      4677.838        3645.069
 96 10  9 16  2 59.9990000  0  8 28 22 21 17  6 26 23  3            -0.000766369
  -9192820.444 9  -7141887.203 9  21101997.484    21101998.139    21102003.592
      3360.239        2618.368
  -3852168.873 9  -2960704.22147  23248700.186    23248700.1004   23248706.1614
       884.343         689.098
 -10008285.443 9  -7773972.05547  23144960.201    23144960.8664   23144967.7434
      3858.758        3006.824
  -4471980.048 9  -3474165.61848  20419577.770    20419578.2994   20419583.9014
      1541.002        1200.781
    666781.125 9    522055.74248  20722949.773    20722950.3614   20722956.1324
      -967.788        -754.120
  -3403364.249 9  -2641021.90048  21942890.426    21942890.6294   21942895.7804
       597.087         465.263
  -6728630.079 9  -4758276.13448  20644874.386    20644874.9504   20644880.7334
      2209.725        1721.864
  -2652001.103 8  -2050243.16645  24873719.014    24873714.3254   24873717.4074
      4673.681        3641.829
 96 10  9 16  3 29.9990000  0  8 28 22 21 17  6 26 23  3            -0.000787241
  -9293417.479 9  -7220274.502 9  21082854.634    21082855.166    21082860.531
      3345.931        2607.219
  -3878437.273 9  -2981173.12447  23243701.122    23243701.3674   23243707.4984
       866.749         675.389
 -10123915.092 9  -7864073.07347  23122956.519    23122957.2844   23122964.2094
      3849.599        2999.688
  -4518090.185 9  -3510095.59348  20410803.308    20410803.7764   20410809.4714
      1532.657        1194.278
    696064.029 9    544873.56948  20728522.008    20728522.6554   20728528.5064
      -984.757        -767.343
  -3420973.871 9  -2654743.67248  21939538.796    21939539.6324   21939544.8724
       576.478         449.204
  -6794710.474 9  -4809767.34048  20632299.524    20632300.2044   20632305.9684
      2195.315        1710.635
  -2792167.464 8  -2159463.72845  24847043.492    24847041.6734   24847044.3324
      4670.512        3639.360
 96 10  9 16  3 59.9990000  0  8 28 22 21 17  6 26 23  3            -0.000808099
  -9393589.570 9  -7298330.673 9  21063791.956    21063793.049    21063798.324
      3331.225        2595.760
  -3904189.879 9  -3001240.09747  23238800.646    23238800.8484   23238806.9474
       849.033         661.584
 -10239275.840 9  -7953964.54747  23101004.634    23101004.8684   23101011.7344
      3840.048        2992.245
  -4563946.187 9  -3545827.54048  20402077.041    20402077.6594   20402083.4094
      1523.290        1186.979
    725853.739 9    568086.30648  20734190.522    20734191.4474   20734197.3494
     -1002.208        -780.941
  -3437962.925 9  -2667981.89848  21936305.541    21936306.7614   21936311.9094
       555.038         432.497
  -6860362.653 9  -4860924.88148  20619806.450    20619807.0984   20619812.6894
      2180.408        1699.019
  -2932247.843 8  -2268617.34845  24820387.994    24820385.6174   24820388.7134
      4667.109        3636.708
 96 10  9 16  4 29.9990000  0  8 28 22 21 17  6 26 23  3            -0.000828930
  -9493311.420 9  -7376036.008 9  21044815.831    21044816.631    21044821.776
      3318.039        2585.485
  -3929401.317 9  -3020885.38547  23234003.375    23234003.3214   23234009.4574
       832.936         649.041
 -10354338.244 9  -8043623.53047  23079108.185    23079109.0494   23079115.9924
      3832.013        2985.984
  -4609505.077 9  -3581327.97048  20393407.310    20393408.0574   20393413.8344
      1515.165        1180.648
    756176.204 9    591714.17548  20739961.046    20739961.6154   20739967.5734
     -1018.038        -793.276
  -3454296.631 9  -2680709.46948  21933197.458    21933198.4794   21933203.5884
       535.105         416.965
  -6925555.321 9  -4911724.36448  20607400.831    20607401.4254   20607406.9244
      2166.932        1688.518
  -3072216.337 8  -2377683.69345  24793755.316    24793750.4654   24793754.6674
      4665.454        3635.419
 96 10  9 16  4 59.9990000  0  8 28 22 21 17  6 26 23  3            -0.000849757
  -9592602.668 9  -7453405.811 9  21025921.520    21025922.199    21025927.256
      3302.995        2573.762
  -3954095.039 9  -3040127.25947  23229303.870    23229304.2464   23229310.4224
       814.904         634.990
 -10469131.194 9  -8133072.55347  23057263.398    23057264.6194   23057271.6254
      3822.533        2978.597
  -4654785.663 9  -3616611.55748  20384791.124    20384791.5684   20384797.2004
      1505.196        1172.880
    787005.284 9    615736.80748  20745827.607    20745828.2294   20745834.1964
     -1035.743        -807.072
  -3469993.413 9  -2692940.72648  21930210.542    21930211.5104   21930216.6874
       512.958         399.708
  -6990310.902 9  -4962183.23548  20595078.004    20595078.7214   20595084.4194
      2151.713        1676.659
  -3212107.943 8  -2486690.06145  24767134.853    24767129.7774   24767135.2834
      4662.092        3632.799
 96 10  9 16  5 29.9990000  0  8 28 22 21 17  6 26 23  3            -0.000870568
  -9691481.713 9  -7530454.406 9  21007105.868    21007106.119    21007111.282
      3287.029        2561.321
  -3978284.297 9  -3058976.05047  23224700.896    23224701.2204   23224707.3344
       795.656         619.992
 -10583684.579 9  -8222334.91047  23035465.431    23035465.8514   23035472.8844
      3812.439        2970.732
  -4699813.154 9  -3651697.91648  20376223.085    20376223.2144   20376228.7404
      1494.978        1164.918
    818333.154 9    640148.12348  20751789.171    20751789.7864   20751795.6924
     -1054.626        -821.786
  -3485063.874 9  -2704683.93448  21927342.922    21927343.7744   21927348.9274
       489.954         381.782
  -7054640.728 9  -5012310.35548  20582836.256    20582837.1084   20582842.9194
      2134.883        1663.545
  -3351934.296 8  -2595645.62845  24740523.169    24740521.5214   24740528.4304
      4657.693        3629.371
 96 10  9 16  5 59.9990000  0  8 28 22 21 17  6 26 23  3            -0.000891305
  -9789874.714 9  -7607124.277 9  20988382.234    20988382.515    20988387.858
      3273.232        2550.570
  -4001876.976 9  -3077359.94947  23220211.611    23220211.6734   23220217.7604
       777.824         606.097
 -10697924.125 9  -8311352.71347  23013725.961    23013726.6784   23013733.7474
      3804.285        2964.378
  -4744538.684 9  -3686548.97948  20367711.940    20367712.2704   20367717.6994
      1487.596        1159.166
    850226.929 9    665000.38348  20757858.289    20757858.9594   20757864.8984
     -1070.702        -834.313
  -3499444.924 9  -2715889.94548  21924606.063    21924607.1264   21924612.1704
       469.681         365.985
  -7118454.225 9  -5062035.15648  20570693.295    20570693.8824   20570699.5694
      2120.099        1652.025
  -3491615.532 8  -2704488.17745  24713936.726    24713941.2484   24713948.5534
      4655.103        3627.353
 96 10  9 16  6 29.9990000  0  8 28 22 21 17  6 26 23  3            -0.000912029
  -9887888.894 9  -7683498.969 9  20969730.464    20969731.012    20969736.428
      3262.053        2541.859
  -4024976.531 9  -3095359.60747  23215815.965    23215815.9224   23215822.0314
       763.190         594.693
 -10811959.138 9  -8400211.15347  22992025.877    22992026.5094   22992033.5174
      3799.102        2960.339
  -4789097.805 9  -3721270.36848  20359231.919    20359232.8484   20359238.3664
      1483.990        1156.356
    882566.082 9    690199.69748  20764012.029    20764012.8694   20764018.7724
     -1084.204        -844.834
  -3513269.566 9  -2726662.39848  21921975.384    21921976.4264   21921981.5354
       453.060         353.034
  -7181864.742 9  -5111445.94648  20558626.809    20558627.3654   20558632.9134
      2108.281        1642.816
  -3631257.148 8  -2813299.85245  24687358.862    24687368.6064   24687375.7974
      4655.363        3627.556
 96 10  9 16  6 59.9990000  0  8 28 22 21 17  6 26 23  3            -0.000932758
  -9985536.387 9  -7759587.911 9  20951149.245    20951149.332    20951154.754
      3248.397        2531.218
  -4047608.168 9  -3112994.66947  23211509.253    23211509.2954   23211515.4744
       746.040         581.330
 -10925808.497 9  -8488924.91547  22970361.037    22970361.6934   22970368.6644
      3791.563        2954.465
  -4833521.216 9  -3755886.01048  20350778.306    20350779.3404   20350784.8784
      1478.040        1151.719
    915337.944 9    715736.19948  20770248.540    20770249.1754   20770255.0024
     -1099.983        -857.130
  -3526569.701 9  -2737026.12948  21919444.785    21919445.5184   21919450.6454
       434.243         338.371
  -7244892.854 9  -5160558.74748  20546632.975    20546633.5014   20546639.0674
      2094.205        1631.848
  -3770873.970 9  -2922092.15445  24660796.246    24660800.9144   24660807.2514
      4652.854        3625.601
 96 10  9 16  7 29.9990000  0  8 28 22 21 17  6 26 23  3            -0.000953417
 -10082695.959 9  -7835296.663 9  20932660.073    20932660.451    20932665.892
      3230.988        2517.653
  -4069639.570 9  -3130162.00147  23207316.607    23207316.7944   23207323.1244
       724.867         564.831
 -11039354.513 9  -8577402.28947  22948753.438    22948754.6014   22948761.5524
      3780.220        2945.626
  -4877682.059 9  -3790297.05648  20342375.273    20342375.8374   20342381.3604
      1467.977        1143.878
    948654.359 9    741697.01248  20776588.739    20776589.1064   20776595.0434
     -1118.765        -871.765
  -3539232.138 9  -2746892.97048  21917035.651    21917035.9264   21917040.9984
       412.015         321.051
  -7307419.126 9  -5209280.49748  20534734.490    20534735.0384   20534740.6934
      2076.331        1617.920
  -3910333.579 9  -3030761.93045  24634264.808    24634262.8114   24634268.7304
      4646.703        3620.808
 96 10  9 16  7 59.9990000  0  8 28 22 21 17  6 26 23  3            -0.000974044
 -10179404.103 9  -7910653.662 9  20914256.825    20914257.553    20914262.842
      3216.228        2506.152
  -4091121.346 9  -3146901.06247  23203229.085    23203228.9514   23203235.2904
       707.477         551.281
 -11152629.227 9  -8665668.28847  22927199.041    22927199.2374   22927206.0524
      3771.500        2938.831
  -4921603.259 9  -3824521.37248  20334017.568    20334017.9394   20334023.4954
      1459.913        1137.595
    982454.527 9    768034.77148  20783020.509    20783021.1434   20783027.0604
     -1134.605        -884.108
  -3551291.999 9  -2756290.26248  21914740.920    21914740.9604   21914746.0424
       391.917         305.390
  -7369492.307 9  -5257649.20448  20522922.343    20522922.9084   20522928.5544
      2061.893        1606.670
  -4049688.547 9  -3139350.17545  24607749.831    24607744.3954   24607750.2464
      4643.669        3618.443
 96 10  9 16  8 29.9990000  0  8 28 22 21 17  6 26 23  3            -0.000994688
 -10275689.683 9  -7985681.378 9  20895934.485    20895935.101    20895940.156
      3202.303        2495.301
  -4112119.228 9  -3163263.05447  23199232.777    23199233.2684   23199239.5124
       691.745         539.022
 -11265670.142 9  -8753752.10247  22905687.000    22905688.1624   22905694.9854
      3764.009        2932.994
  -4965287.532 9  -3858561.06248  20325704.651    20325705.0744   20325710.6804
      1451.619        1131.132
   1016714.970 9    794731.20348  20789540.103    20789540.7044   20789546.5054
     -1149.867        -896.000
  -3562760.666 9  -2765226.89048  21912558.501    21912558.6114   21912563.6834
       371.953         289.834
  -7431151.774 9  -5305695.53548  20511189.311    20511189.6544   20511195.2674
      2048.255        1596.043
  -4188976.541 8  -3247886.21645  24581243.082    24581238.4214   24581244.6224
      4641.679        3616.893
 96 10  9 16  8 59.9990000  0  8 28 22 21 17  6 26 23  3            -0.001015341
 -10371549.187 9  -8060377.098 9  20877692.824    20877693.682    20877698.680
      3188.891        2484.850
  -4132630.536 9  -3179245.91047  23195330.201    23195330.1034   23195336.4224
       676.243         526.942
 -11378471.966 9  -8841649.58747  22884221.747    22884222.6114   22884229.5464
      3756.611        2927.229
  -5008694.178 9  -3892384.42348  20317444.669    20317445.0174   20317450.7344
      1442.735        1124.209
   1051433.109 9    821784.29348  20796146.903    20796147.3554   20796153.0694
     -1164.165        -907.142
  -3573604.419 9  -2773676.56248  21910494.199    21910495.0714   21910500.1964
       351.580         273.958
  -7492396.493 9  -5353418.68648  20499534.656    20499535.1404   20499540.7734
      2035.269        1585.924
  -4328189.458 8  -3356363.80645  24554744.209    24554746.9894   24554753.6524
      4639.693        3615.345
 96 10  9 16  9 29.9980000  0  8 28 22 21 17  6 26 23  3            -0.001036006
 -10466967.538 9  -8134729.059 9  20859535.747    20859536.127    20859541.145
      3171.867        2471.585
  -4152652.211 9  -3194847.21747  23191520.272    23191520.1564   23191526.4304
       657.902         512.651
 -11491015.830 9  -8929346.06947  22862805.441    22862806.2624   22862813.2814
      3745.735        2918.755
  -5051800.165 9  -3925973.50048  20309241.774    20309242.2134   20309247.9594
      1430.545        1114.710
   1086617.497 9    849200.67248  20802842.018    20802842.7194   20802848.5464
     -1182.295        -921.269
  -3583806.113 9  -2781625.93348  21908552.501    21908553.7084   21908558.8774
       327.913         255.517
  -7553212.213 9  -5400807.55648  20487961.618    20487962.2364   20487967.8954
      2018.576        1572.916
  -4467304.526 8  -3464765.17545  24528267.389    24528274.6234   24528281.5644
      4634.263        3611.114
 96 10  9 16  9 59.9980000  0  8 28 22 21 17  6 26 23  3            -0.001056624
 -10561855.997 9  -8208668.125 9  20841478.699    20841479.464    20841484.415
      3154.285        2457.884
  -4172105.577 9  -3210005.68347  23187817.763    23187818.3304   23187824.6504
       638.988         497.913
 -11603213.994 9  -9016773.20047  22841455.188    22841455.7354   22841462.6404
      3734.377        2909.904
  -5094525.241 9  -3959265.77048  20301111.651    20301111.9204   20301117.7264
      1418.135        1105.040
   1122376.806 9    877065.03048  20809646.956    20809647.5024   20809653.4334
     -1201.464        -936.206
  -3593273.922 9  -2789003.44248  21906750.951    21906752.0094   21906757.2084
       303.560         236.540
  -7613508.267 9  -5447791.48448  20476487.728    20476488.2254   20476493.9234
      2001.386        1559.522
  -4606234.460 8  -3573022.24245  24501835.282    24501837.6774   24501844.2234
      4627.961        3606.203
 96 10  9 16 10 29.9980000  0  8 28 22 21 17  6 26 23  3            -0.001077183
 -10656227.031 9  -8282203.992 9  20823520.485    20823521.325    20823526.168
      3138.695        2445.736
  -4190984.459 9  -3224716.52747  23184225.379    23184225.8174   23184232.1504
       621.056         483.940
 -11715079.633 9  -9103941.22147  22820168.426    22820168.4244   22820175.2024
      3724.864        2902.491
  -5136890.376 9  -3992277.56648  20293049.473    20293050.1214   20293055.9184
      1408.020        1097.158
   1158696.829 9    905366.30948  20816558.044    20816558.9244   20816564.9414
     -1218.194        -949.242
  -3602029.763 9  -2795826.18048  21905085.319    21905085.8564   21905091.0624
       281.777         219.566
  -7673292.158 9  -5494376.33348  20465111.428    20465111.8244   20465117.4394
      1985.879        1547.438
  -4744986.896 8  -3681140.96945  24475435.694    24475433.9694   24475440.0354
      4623.829        3602.984
 96 10  9 16 10 59.9980000  0  8 28 22 21 17  6 26 23  3            -0.001097729
 -10750163.857 9  -8355401.515 9  20805645.019    20805645.751    20805650.545
      3123.696        2434.049
  -4209356.555 9  -3239032.45647  23180729.708    23180729.7334   23180736.0704
       603.795         470.490
 -11826690.055 9  -9190910.35447  22798928.721    22798929.6484   22798936.4384
      3715.746        2895.386
  -5179006.075 9  -4025094.99548  20285034.965    20285035.7664   20285041.5924
      1399.806        1090.758
   1195477.928 9    934026.88048  20823557.073    20823558.1984   20823564.2054
     -1233.980        -961.543
  -3610176.007 9  -2802173.90748  21903535.313    21903535.7804   21903540.9454
       261.509         203.773
  -7732643.724 9  -5540624.29848  20453817.178    20453817.6424   20453823.3244
      1970.854        1535.730
  -4883650.880 8  -3789190.79145  24449049.544    24449046.9074   24449052.7804
      4620.409        3600.319
 96 10  9 16 11 29.9980000  0  8 28 22 21 17  6 26 23  3            -0.001118258
 -10843649.255 9  -8428247.277 9  20787855.038    20787856.085    20787860.807
      3108.645        2422.321
  -4227207.933 9  -3252942.64847  23177332.678    23177332.6894   23177339.0484
       586.172         456.757
 -11938031.648 9  -9277670.01447  22777742.231    22777742.0964   22777748.8804
      3706.890        2888.486
  -5220889.617 9  -4057731.52748  20277064.642    20277065.6304   20277071.3934
      1392.325        1084.928
   1232736.901 9    963059.82848  20830647.309    20830648.4454   20830654.3774
     -1249.977        -974.008
  -3617725.096 9  -2808056.30648  21902098.479    21902099.2014   21902104.3444
       241.693         188.332
  -7791539.457 9  -5586517.06648  20442609.513    20442610.0874   20442615.8514
      1955.644        1523.878
  -5022212.948 8  -3897161.20045  24422681.077    24422679.2054   24422685.0044
      4617.048        3597.700
 96 10  9 16 11 59.9980000  0  8 28 22 21 17  6 26 23  3            -0.001138739
 -10936665.450 9  -8500727.427 9  20770154.875    20770155.680    20770160.415
      3092.818        2409.988
  -4244504.907 9  -3266420.80547  23174040.791    23174041.2194   23174047.4454
       567.393         442.124
 -12049084.477 9  -9364204.65147  22756608.343    22756609.3654   22756616.2294
      3697.074        2880.837
  -5262527.127 9  -4090176.34548  20269141.509    20269142.3344   20269148.0104
      1383.815        1078.297
   1270488.546 9    992476.65048  20837831.328    20837832.3244   20837838.2874
     -1266.470        -986.860
  -3624656.072 9  -2813457.07648  21900779.140    21900780.2864   21900785.3614
       220.804         172.055
  -7849972.468 9  -5632049.27748  20431489.963    20431490.5914   20431496.3254
      1940.333        1511.948
  -5160658.257 8  -4005040.63545  24396334.875    24396334.1064   24396339.4364
      4612.979        3594.529
 96 10  9 16 12 29.9980000  0  8 28 22 21 17  6 26 23  3            -0.001159175
 -11029224.891 9  -8572851.672 9  20752541.185    20752542.181    20752546.996
      3077.188        2397.809
  -4261267.622 9  -3279482.65547  23170851.258    23170851.4644   23170857.6764
       549.623         428.278
 -12159863.978 9  -9450526.31147  22735527.784    22735528.5924   22735535.6054
      3687.602        2873.456
  -5303928.556 9  -4122437.20448  20261263.514    20261263.9664   20261269.5974
      1375.803        1072.054
   1308718.742 9   1022266.38048  20845106.649    20845107.3544   20845113.2504
     -1282.813        -999.595
  -3630979.194 9  -2818384.18048  21899575.381    21899576.9604   21899582.1814
       200.218         156.014
  -7907965.846 9  -5677238.91848  20420454.361    20420454.8204   20420460.5554
      1925.326        1500.254
  -5299005.990 8  -4112844.05345  24370009.034    24370007.5564   24370012.7594
      4609.445        3591.775
 96 10  9 16 12 59.9980000  0  8 28 22 21 17  6 26 23  3            -0.001179564
 -11121318.364 9  -8644612.822 9  20735016.559    20735017.371    20735022.227
      3062.561        2386.411
  -4277507.162 9  -3292136.86147  23167761.091    23167761.2334   23167767.4374
       533.235         415.508
 -12270359.726 9  -9536626.86847  22714501.243    22714502.0174   22714509.0414
      3679.016        2866.766
  -5345101.144 9  -4154519.73848  20253428.760    20253429.0744   20253434.6764
      1369.065        1066.804
   1347443.079 9   1052441.16448  20852475.576    20852476.3504   20852482.2644
     -1298.694       -1011.969
  -3636686.935 9  -2822831.77548  21898489.526    21898490.8264   21898496.0494
       180.554         140.691
  -7965518.071 9  -5722084.80048  20409502.517    20409503.0284   20409508.7684
      1911.716        1489.649
  -5437238.709 8  -4220557.85045  24343704.668    24343702.6484   24343707.6644
      4606.284        3589.312
 96 10  9 16 13 29.9980000  0  8 28 22 21 17  6 26 23  3            -0.001199896
 -11212935.689 9  -8716002.945 9  20717582.432    20717583.163    20717588.073
      3046.795        2374.126
  -4293216.277 9  -3304377.77347  23164771.445    23164771.8094   23164778.1184
       515.659         401.812
 -12380566.675 9  -9622502.39147  22693530.313    22693530.3604   22693537.3984
      3669.622        2859.446
  -5386023.029 9  -4186406.93048  20245641.593    20245641.9024   20245647.5244
      1360.549        1060.168
   1386687.840 9   1083021.46848  20859943.290    20859944.4064   20859950.3084
     -1316.061       -1025.502
  -3641764.861 9  -2826788.60748  21897523.612    21897524.6054   21897529.7164
       159.382         124.194
  -8022629.395 9  -5766587.12348  20398634.512    20398635.0534   20398640.8524
      1897.298        1478.414
  -5575342.020 8  -4328170.77545  24317424.183    24317421.9104   24317427.4894
      4602.121        3586.068
 96 10  9 16 13 59.9980000  0  8 28 22 21 17  6 26 23  3            -0.001220090
 -11304063.580 9  -8787011.689 9  20700241.691    20700242.093    20700246.971
      3029.057        2360.304
  -4308391.395 9  -3316202.56547  23161883.818    23161884.0824   23161890.3454
       496.810         387.125
 -12490477.727 9  -9708147.34947  22672614.015    22672614.9624   22672621.9884
      3658.592        2850.851
  -5426670.176 9  -4218080.03548  20237906.274    20237906.9054   20237912.5594
      1350.040        1051.979
   1426467.028 9   1114018.20448  20867513.281    20867514.2204   20867520.1364
     -1335.078       -1040.321
  -3646187.868 9  -2830235.09548  21896682.007    21896682.8334   21896688.1414
       136.249         106.168
  -8079296.452 9  -5810743.26348  20387850.828    20387851.5584   20387857.4484
      1881.080        1465.777
  -5713307.842 9  -4435676.58345  24291169.124    24291167.5764   24291173.2474
      4596.236        3581.483
 96 10  9 16 14 29.9980000  0  8 28 22 21 17  6 26 23  3            -0.001240333
 -11394748.388 9  -8857675.174 9  20682984.636    20682985.363    20682990.246
      3015.332        2349.609
  -4323095.578 9  -3327660.37747  23159085.813    23159085.9784   23159092.3084
       482.183         375.727
 -12600149.310 9  -9793605.71147  22651744.079    22651745.1054   22651752.1004
      3651.478        2845.308
  -5467101.520 9  -4249584.98048  20230212.217    20230213.0654   20230218.7284
      1344.178        1047.411
   1466718.516 9   1145382.96948  20875172.477    20875173.8614   20875179.7924
     -1349.411       -1051.489
  -3650010.105 9  -2833213.46248  21895954.891    21895955.5344   21895960.7254
       117.486          91.547
  -8135561.232 9  -5854585.94248  20377144.164    20377144.7524   20377150.6594
      1868.685        1456.118
  -5851186.095 9  -4543114.18245  24264931.269    24264929.8974   24264935.6924
      4594.308        3579.980
 96 10  9 16 14 59.9980000  0  8 28 22 21 17  6 26 23  3            -0.001260561
 -11484992.418 9  -8927995.200 9  20665811.656    20665812.417    20665817.394
      3000.908        2338.370
  -4337330.510 9  -3338752.53947  23156376.923    23156377.1794   23156383.5284
       466.885         363.806
 -12709581.361 9  -9878877.41747  22630920.231    22630920.8374   22630927.8404
      3644.086        2839.548
  -5507320.724 9  -4280924.61548  20222558.427    20222559.5314   20222565.2504
      1337.022        1041.835
   1507419.472 9   1177097.96748  20882918.250    20882918.9454   20882924.9294
     -1363.925       -1062.799
  -3653241.803 9  -2835731.67248  21895339.625    21895340.5454   21895345.5704
        98.011          76.372
  -8191428.281 9  -5898118.70748  20366512.980    20366513.6534   20366519.4014
      1855.780        1446.062
  -5988975.250 8  -4650482.36245  24238709.935    24238709.1044   24238714.9644
      4591.680        3577.932
 96 10  9 16 15 29.9980000  0  8 28 22 21 17  6 26 23  3            -0.001280772
 -11574760.292 9  -8997944.197 9  20648729.295    20648730.119    20648735.167
      2983.279        2324.633
  -4351062.905 9  -3349453.11847  23153763.707    23153763.9414   23153770.3144
       448.323         349.343
 -12818757.969 9  -9963950.06547  22610144.519    22610145.1374   22610152.2744
      3633.975        2831.669
  -5547276.449 9  -4312058.95748  20214955.170    20214956.2444   20214961.9264
      1326.518        1033.650
   1548584.657 9   1209174.70848  20890751.206    20890752.4574   20890758.3994
     -1380.629       -1075.815
  -3655847.200 9  -2837761.84648  21894843.615    21894844.7064   21894849.8404
        75.497          58.829
  -8246864.934 9  -5941316.09648  20355963.742    20355964.3844   20355970.0874
      1839.684        1433.520
  -6126643.201 8  -4757756.10845  24212509.937    24212511.5894   24212517.4034
      4585.814        3573.361
 96 10  9 16 15 59.9980000  0  8 28 22 21 17  6 26 23  3            -0.001300977
 -11664068.877 9  -9067535.297 9  20631734.615    20631735.259    20631740.325
      2968.340        2312.992
  -4364310.250 9  -3359775.77947  23151243.031    23151243.0214   23151249.5154
       432.531         337.037
 -12927697.270 9 -10048837.81247  22589413.963    22589414.6644   22589421.8774
      3626.372        2825.744
  -5586992.122 9  -4343006.23548  20207397.839    20207398.5884   20207404.2814
      1318.901        1027.715
   1590170.335 9   1241579.10348  20898665.231    20898665.9584   20898671.9444
     -1393.957       -1086.200
  -3657857.939 9  -2839328.65248  21894460.936    21894462.1584   21894467.3274
        56.393          43.943
  -8301889.059 9  -5984192.02348  20345493.012    20345493.6044   20345499.4044
      1826.286        1423.080
  -6264204.490 9  -4864946.73345  24186332.084    24186334.6174   24186340.1604
      4582.538        3570.809
 96 10  9 16 16 29.9980000  0  8 28 22 21 17  6 26 23  3            -0.001321145
 -11752851.170 9  -9136716.312 9  20614839.846    20614840.603    20614845.647
      2950.474        2299.071
  -4377003.304 9  -3369666.49347  23148827.489    23148827.6244   23148834.2774
       413.685         322.352
 -13036322.648 9 -10133480.92847  22568742.721    22568743.8834   22568751.1844
      3615.260        2817.086
  -5626393.741 9  -4373708.80348  20199900.337    20199900.7124   20199906.3774
      1307.821        1019.081
   1632232.127 9   1274354.48148  20906669.267    20906670.1004   20906676.0994
     -1410.270       -1098.912
  -3659221.117 9  -2840390.87548  21894201.486    21894202.7254   21894207.8234
        34.598          26.959
  -8356429.298 9  -6026690.90848  20335114.183    20335114.9574   20335120.7314
      1809.694        1410.151
  -6401580.208 9  -4971992.74645  24160191.847    24160192.8334   24160198.2144
      4575.780        3565.543
 96 10  9 16 16 59.9980000  0  8 28 22 21 17  6 26 23  3            -0.001341264
 -11841085.756 9  -9205470.533 9  20598049.601    20598050.128    20598055.254
      2932.701        2285.222
  -4389120.502 9  -3379108.49347  23146521.905    23146521.7954   23146528.3674
       394.963         307.763
 -13144605.869 9 -10217857.44947  22548137.950    22548138.3934   22548145.5544
      3604.574        2808.759
  -5665442.689 9  -4404136.56048  20192469.944    20192469.9504   20192475.5024
      1296.410        1010.190
   1674802.231 9   1307525.97348  20914770.563    20914770.9344   20914776.9064
     -1426.814       -1111.803
  -3659924.891 9  -2840939.26648  21894067.559    21894068.8204   21894073.8164
        13.224          10.304
  -8410454.425 9  -6068788.39948  20324833.416    20324834.2994   20324840.1044
      1792.893        1397.059
  -6538738.168 9  -5078869.07145  24134093.925    24134092.4994   24134097.9154
      4569.024        3560.278
 96 10  9 16 17 29.9980000  0  8 28 22 21 17  6 26 23  3            -0.001361377
 -11928824.293 9  -9273838.220 9  20581353.227    20581354.049    20581359.184
      2915.906        2272.135
  -4400710.463 9  -3388139.63947  23144316.248    23144316.3154   23144322.8744
       377.090         293.836
 -13252599.507 9 -10302008.32247  22527587.324    22527587.9114   22527594.9664
      3594.224        2800.694
  -5704194.089 9  -4434332.45948  20185095.829    20185095.7324   20185101.3204
      1286.419        1002.404
   1717826.693 9   1341051.50148  20922957.556    20922958.2064   20922964.2104
     -1442.201       -1123.793
  -3660035.186 9  -2841025.20648  21894046.640    21894047.7344   21894052.8444
        -6.504          -5.068
  -8464019.306 9  -6110527.26948  20314640.641    20314641.2814   20314646.9684
      1777.454        1385.029
  -6675732.926 9  -5185618.21945  24108026.259    24108023.1334   24108028.7294
      4563.325        3555.838
 96 10  9 16 17 59.9980000  0  8 28 22 21 17  6 26 23  3            -0.001381489
 -12016085.782 9  -9341834.189 9  20564747.930    20564748.704    20564753.854
      2901.719        2261.080
  -4411800.321 9  -3396781.12447  23142206.144    23142205.9354   23142212.6194
       362.459         282.435
 -13360303.896 9 -10385933.79547  22507091.596    22507092.3854   22507099.4594
      3586.264        2794.491
  -5742674.275 9  -4464317.03148  20177773.753    20177773.2284   20177778.7764
      1279.107         996.707
   1761297.228 9   1374924.61348  20931230.027    20931230.3944   20931236.4884
     -1455.655       -1134.277
  -3659581.667 9  -2840671.81948  21894133.313    21894134.0874   21894139.1354
       -23.694         -18.463
  -8517147.047 9  -6151925.50248  20304530.642    20304531.3664   20304537.0814
      1764.648        1375.050
  -6812586.889 8  -5292257.62045  24081983.693    24081980.1154   24081986.5974
      4560.389        3553.550
 96 10  9 16 18 29.9980000  0  8 28 22 21 17  6 26 23  3            -0.001401607
 -12102882.101 9  -9409467.690 9  20548230.852    20548231.932    20548237.058
      2883.893        2247.189
  -4422416.066 9  -3405053.18947  23140185.790    23140185.8684   23140192.5144
       344.423         268.382
 -13467728.225 9 -10469641.04348  22486649.858    22486650.2754   22486657.3334
      3574.607        2785.408
  -5780898.432 9  -4494102.08748  20170500.037    20170499.4054   20170505.0024
      1268.588         988.510
   1805210.690 9   1409142.85848  20939586.271    20939586.7984   20939593.0734
     -1472.711       -1147.567
  -3658562.948 9  -2839878.01648  21894326.561    21894327.9254   21894333.0074
       -45.046         -35.101
  -8569855.378 9  -6192996.92148  20294500.740    20294501.3194   20294507.0694
      1748.512        1362.477
  -6949310.928 8  -5398795.81245  24055965.053    24055961.7784   24055969.0234
      4553.849        3548.454
 96 10  9 16 18 59.9980000  0  8 28 22 21 17  6 26 23  3            -0.001421690
 -12189173.281 9  -9476707.561 9  20531810.647    20531811.297    20531816.321
      2867.029        2234.049
  -4432520.483 9  -3412926.76947  23138263.198    23138263.1914   23138269.7904
       327.421         255.133
 -13574842.634 9 -10553106.77448  22466266.766    22466267.0584   22466274.1614
      3564.554        2777.575
  -5818851.057 9  -4523675.56548  20163277.836    20163277.2464   20163282.8744
      1259.880         981.725
   1849603.435 9   1443734.57948  20948033.641    20948034.5354   20948040.7934
     -1488.482       -1159.856
  -3656933.748 9  -2838608.52148  21894637.021    21894637.9854   21894642.9734
       -65.481         -51.024
  -8622118.328 9  -6233721.28748  20284555.451    20284556.0084   20284561.7644
      1734.087        1351.237
  -7085879.564 9  -5505212.91345  24029974.393    24029973.2734   24029980.9404
      4548.910        3544.605
 96 10  9 16 19 29.9980000  0  8 28 22 21 17  6 26 23  3            -0.001441721
 -12274946.189 9  -9543543.596 9  20515488.286    20515489.261    20515494.343
      2851.015        2221.570
  -4442109.212 9  -3420398.50947  23136438.467    23136438.6114   23136445.0964
       311.819         242.976
 -13681643.455 9 -10636328.18547  22445942.573    22445943.5534   22445950.4854
      3555.370        2770.418
  -5856535.729 9  -4553040.24248  20156106.543    20156106.1064   20156111.7114
      1252.202         975.742
   1894479.381 9   1478702.82448  20956573.184    20956574.1704   20956580.3654
     -1503.502       -1171.560
  -3654668.061 9  -2836843.05948  21895068.425    21895069.2364   21895074.1314
       -85.752         -66.820
  -8673949.763 9  -6274109.41548  20274692.276    20274692.8204   20274698.5164
      1721.080        1341.101
  -7222291.012 8  -5611507.55946  24004013.024    24004015.0854   24004022.6594
      4544.888        3541.471
 96 10  9 16 19 59.9980000  0  8 28 22 21 17  6 26 23  3            -0.001461722
 -12360242.806 9  -9610008.502 9  20499256.775    20499257.872    20499263.058
      2833.789        2208.147
  -4451237.320 9  -3427511.34946  23134701.643    23134701.6484   23134708.0304
       295.086         229.937
 -13788180.151 9 -10719343.77547  22425669.857    22425670.3564   22425677.1634
      3545.488        2762.718
  -5893991.944 9  -4582226.91248  20148979.032    20148978.4374   20148984.0904
      1243.238         968.757
   1939810.535 9   1514025.77248  20965199.231    20965200.4484   20965206.5834
     -1520.082       -1184.479
  -3651793.967 9  -2834603.49448  21895614.995    21895616.0844   21895621.1594
      -107.415         -83.700
  -8725388.800 9  -6314191.77148  20264903.607    20264904.2334   20264909.9914
      1706.660        1329.865
  -7358590.279 8  -5717714.77046  23978074.767    23978078.3324   23978085.8424
      4539.894        3537.580
 96 10  9 16 20 29.9980000  0  8 28 22 21 17  6 26 23  3            -0.001481651
 -12445007.867 9  -9676059.198 9  20483126.740    20483127.592    20483132.856
      2817.957        2195.811
  -4459845.002 9  -3434218.66747  23133063.845    23133063.6844   23133070.0224
       279.496         217.789
 -13894408.910 9 -10802119.40047  22405455.485    22405455.6624   22405462.5154
      3537.274        2756.317
  -5931161.645 9  -4611190.32548  20141905.814    20141905.3294   20141910.9204
      1235.556         962.771
   1985649.778 9   1549744.62748  20973921.942    20973923.3414   20973929.5154
     -1535.100       -1196.182
  -3648253.404 9  -2831844.62248  21896288.456    21896289.8584   21896294.8234
      -127.630         -99.452
  -8776386.122 9  -6353929.94348  20255199.185    20255199.7914   20255205.5264
      1693.746        1319.802
  -7494718.408 8  -5823788.63446  23952171.563    23952174.2934   23952181.3914
      4536.014        3534.556
 96 10  9 16 20 59.9980000  0  8 28 22 21 17  6 26 23  3            -0.001501550
 -12529293.474 9  -9741736.298 9  20467087.848    20467088.639    20467093.859
      2800.919        2182.534
  -4467982.286 9  -3440559.43147  23131515.369    23131515.2414   23131521.5554
       262.856         204.823
 -14000394.393 9 -10884705.47247  22385286.566    22385287.2254   22385294.1424
      3528.181        2749.232
  -5968095.618 9  -4639970.04348  20134877.375    20134877.0094   20134882.6504
      1226.459         955.682
   2031944.120 9   1585818.11748  20982731.271    20982732.8634   20982739.0734
     -1551.321       -1208.822
  -3644115.303 9  -2828620.14648  21897075.817    21897077.2804   21897082.1644
      -148.418        -115.650
  -8826987.162 9  -6393359.32048  20245570.188    20245570.7814   20245576.4404
      1679.398        1308.622
  -7630725.418 8  -5929768.09346  23926291.913    23926293.1334   23926300.1244
      4530.745        3530.451
 96 10  9 16 21 29.9980000  0  8 28 22 21 17  6 26 23  3            -0.001521401
 -12613064.774 9  -9807012.634 9  20451146.961    20451147.502    20451152.645
      2784.364        2169.634
  -4475620.466 9  -3446511.28347  23130061.875    23130061.7084   23130067.9564
       246.822         192.329
 -14106098.758 9 -10967072.48547  22365171.525    22365172.2954   22365179.2424
      3519.264        2742.284
  -6004749.665 9  -4668531.64248  20127902.256    20127902.0354   20127907.5904
      1217.670         948.834
   2078730.441 9   1622274.95548  20991635.128    20991636.0104   20991642.2824
     -1567.199       -1221.194
  -3639353.735 9  -2824909.83148  21897981.803    21897983.3654   21897988.3444
      -168.339        -131.173
  -8877147.836 9  -6432445.54948  20236024.861    20236025.4574   20236031.1574
      1665.052        1297.443
  -7766562.983 9  -6035615.49546  23900444.164    23900444.0894   23900451.1444
      4525.598        3526.440
 96 10  9 16 21 59.9980000  0  8 28 22 21 17  6 26 23  3            -0.001541207
 -12696309.275 9  -9871878.480 9  20435306.055    20435306.681    20435311.763
      2765.616        2155.025
  -4482743.047 9  -3452061.36247  23128706.315    23128706.3864   23128712.5394
       228.425         177.994
 -14211508.489 9 -11049209.90248  22345113.130    22345113.4904   22345120.4024
      3508.327        2733.761
  -6041115.151 9  -4696868.38948  20120981.983    20120981.8994   20120987.5224
      1207.179         940.659
   2126017.637 9   1659122.06848  21000634.212    21000634.6094   21000640.8204
     -1584.663       -1234.802
  -3633976.089 9  -2820719.45848  21899004.852    21899006.7374   21899011.8184
      -189.792        -147.890
  -8926843.286 9  -6471169.26648  20226567.994    20226568.6834   20226574.3844
      1648.301        1284.390
  -7902212.460 9  -6141316.35046  23874631.231    23874631.0524   23874637.9834
      4517.933        3520.467
 96 10  9 16 22 29.9980000  0  8 28 22 21 17  6 26 23  3            -0.001560994
 -12779053.172 9  -9936354.249 9  20419560.433    20419560.973    20419566.170
      2749.602        2142.547
  -4489381.598 9  -3457234.29347  23127443.162    23127443.2494   23127449.3024
       213.154         166.094
 -14316652.197 9 -11131140.05847  22325105.392    22325105.3734   22325112.0434
      3500.279        2727.490
  -6077237.287 9  -4725015.51548  20114108.160    20114108.1604   20114113.7734
      1200.003         935.067
   2173750.512 9   1696316.48448  21009717.441    21009717.9284   21009724.1254
     -1598.545       -1245.619
  -3628024.817 9  -2816082.11548  21900137.476    21900139.2284   21900144.2034
      -207.985        -162.066
  -8976098.872 9  -6509550.24748  20217195.236    20217195.7334   20217201.3854
      1634.227        1273.424
  -8037688.610 9  -6246882.15846  23848851.335    23848851.0904   23848857.5374
      4512.814        3516.478
 96 10  9 16 22 59.9980000  0  8 28 22 21 17  6 26 23  3            -0.001580778
 -12861308.048 9 -10000448.963 9  20403907.765    20403908.416    20403913.643
      2733.879        2130.295
  -4495554.434 9  -3462044.31547  23126268.756    23126268.6134   23126274.8534
       198.283         154.506
 -14421548.389 9 -11212877.33647  22305143.819    22305144.2544   22305150.7654
      3492.576        2721.488
  -6113144.381 9  -4752995.07248  20107275.474    20107275.2354   20107280.9244
      1193.522         930.017
   2221901.007 9   1733836.32948  21018880.098    21018880.6454   21018886.7604
     -1611.610       -1255.800
  -3621521.427 9  -2811014.53948  21901375.281    21901376.7374   21901381.7134
      -225.922        -176.043
  -9024918.843 9  -6547591.77248  20207905.031    20207905.5764   20207911.2774
      1620.460        1262.696
  -8173004.999 9  -6352323.48646  23823101.707    23823101.3744   23823107.4154
      4508.091        3512.798
 96 10  9 16 23 29.9980000  0  8 28 22 21 17  6 26 23  3            -0.001600535
 -12943033.641 9 -10064131.246 9  20388355.955    20388356.577    20388361.828
      2716.520        2116.769
  -4501230.856 9  -3466467.54047  23125188.748    23125188.3354   23125194.6904
       182.073         141.875
 -14526150.223 9 -11294385.22747  22285238.098    22285239.1544   22285245.7744
      3482.956        2713.992
  -6148795.887 9  -4780775.47148  20100491.381    20100490.9954   20100496.6494
      1185.190         923.525
   2270493.279 9   1771700.40648  21028126.562    21028127.4484   21028133.5434
     -1625.841       -1266.889
  -3614415.637 9  -2805477.56148  21902728.295    21902728.9364   21902734.0294
      -245.814        -191.543
  -9073279.250 9  -6585275.20148  20198702.292    20198702.8694   20198708.5484
      1605.642        1251.150
  -8308132.214 9  -6457617.39746  23797388.121    23797387.5604   23797393.1774
      4502.462        3508.412
 96 10  9 16 23 59.9980000  0  8 28 22 21 17  6 26 23  3            -0.001620283
 -13024241.013 9 -10127409.714 9  20372902.570    20372903.373    20372908.590
      2697.589        2102.017
  -4506429.792 9  -3470518.68047  23124199.382    23124199.0374   23124205.3694
       164.676         128.319
 -14630470.080 9 -11375673.40847  22265387.591    22265387.8214   22265394.4174
      3471.889        2705.368
  -6184191.858 9  -4808356.75248  20093756.029    20093755.4234   20093760.9944
      1174.735         915.378
   2319506.453 9   1809892.46148  21037453.082    21037454.3264   21037460.5224
     -1641.432       -1279.038
  -3606713.649 9  -2799476.02748  21904194.091    21904194.6254   21904199.7094
      -267.394        -208.359
  -9121200.143 9  -6622616.15548  20189583.517    20189583.8944   20189589.5194
      1589.394        1238.489
  -8443090.469 9  -6562779.64446  23771706.185    23771705.8404   23771711.1074
      4494.972        3502.576
 96 10  9 16 24 29.9980000  0  8 28 22 21 17  6 26 23  3            -0.001640018
 -13104931.587 9 -10190285.489 9  20357547.525    20357548.484    20357553.730
      2680.367        2088.598
  -4511155.316 9  -3474200.91946  23123299.582    23123299.9054   23123306.1884
       148.813         115.958
 -14734503.082 9 -11456738.06847  22245591.022    22245590.9674   22245597.5294
      3462.223        2697.836
  -6219314.319 9  -4835724.90748  20087072.638    20087071.8604   20087077.4264
      1165.299         908.025
   2368939.692 9   1848411.82448  21046859.993    21046861.2074   21046867.4464
     -1655.610       -1290.086
  -3598412.001 9  -2793007.21448  21905773.544    21905774.3054   21905779.3924
      -287.434        -223.975
  -9168695.232 9  -6659625.30248  20180545.283    20180545.8264   20180551.5774
      1575.502        1227.664
  -8577880.831 9  -6667811.08646  23746056.152    23746055.9224   23746060.9554
      4489.619        3498.404
 96 10  9 16 24 59.9980000  0  8 28 22 21 17  6 26 23  3            -0.001659721
 -13185084.580 9 -10252742.382 9  20342294.811    20342295.839    20342301.085
      2664.183        2075.987
  -4515387.050 9  -3477498.40246  23122494.555    23122494.6474   23122500.9224
       134.313         104.659
 -14838221.538 9 -11537557.62647  22225853.153    22225853.9314   22225860.5044
      3453.307        2690.889
  -6254125.437 9  -4862850.45948  20080448.380    20080447.5144   20080453.0444
      1156.299         901.012
   2418821.004 9   1887280.34748  21056352.550    21056353.4054   21056359.6224
     -1668.728       -1300.308
  -3589480.422 9  -2786047.54248  21907472.649    21907474.0534   21907479.0684
      -306.843        -239.098
  -9215754.627 9  -6696294.95748  20171590.143    20171590.7284   20171596.3954
      1562.927        1217.865
  -8712492.997 9  -6772703.66346  23720439.326    23720439.9764   23720444.8524
      4485.520        3495.210
 96 10  9 16 25 29.9980000  0  8 28 22 21 17  6 26 23  3            -0.001679430
 -13264747.936 9 -10314817.717 9  20327135.683    20327136.527    20327141.661
      2647.531        2063.011
  -4519180.048 9  -3480454.00146  23121773.045    23121772.8594   23121779.0574
       119.257          92.928
 -14941668.071 9 -11618165.28447  22206167.360    22206168.6054   22206175.2554
      3444.067        2683.689
  -6288653.196 9  -4889755.20748  20073877.712    20073877.0884   20073882.6144
      1146.503         893.379
   2469099.583 9   1926458.42548  21065920.090    21065921.1654   21065927.2874
     -1682.358       -1310.928
  -3579971.272 9  -2778637.82048  21909281.701    21909283.5664   21909288.6804
      -326.162        -254.152
  -9262438.394 9  -6732671.91948  20162706.643    20162707.1634   20162712.6924
      1550.043        1207.826
  -8846982.432 9  -6877500.58046  23694846.257    23694847.2334   23694852.2824
      4481.240        3491.875
 96 10  9 16 25 59.9980000  0  8 28 22 21 17  6 26 23  3            -0.001699144
 -13343917.299 9 -10376508.135 9  20312070.220    20312071.131    20312076.273
      2630.227        2049.528
  -4522525.730 9  -3483061.05546  23121135.859    23121136.2284   23121142.2414
       103.587          80.717
 -15044846.946 9 -11698564.40048  22186534.385    22186534.4874   22186541.0074
      3434.347        2676.115
  -6322895.616 9  -4916437.61848  20067361.340    20067360.9254   20067366.5024
      1136.384         885.494
   2519782.203 9   1965951.35348  21075564.814    21075565.8174   21075571.7524
     -1696.670       -1322.081
  -3569895.298 9  -2770786.41148  21911198.509    21911200.8294   21911205.9924
      -345.632        -269.324
  -9308733.946 9  -6768746.36148  20153896.753    20153897.4014   20153902.9984
      1536.153        1197.002
  -8981340.168 9  -6982194.90846  23669278.642    23669279.8674   23669284.9414
      4475.721        3487.575
 96 10  9 16 26 29.9980000  0  8 28 22 21 17  6 26 23  3            -0.001718838
 -13422559.784 9 -10437787.997 9  20297105.074    20297105.924    20297111.127
      2613.517        2036.507
  -4525394.795 9  -3485296.70346  23120589.955    23120590.3164   23120596.2734
        88.739          69.147
 -15147733.786 9 -11778735.93448  22166955.212    22166955.8214   22166962.3434
      3425.813        2669.465
  -6356847.241 9  -4942893.43848  20060900.350    20060900.1684   20060905.7374
      1128.009         878.968
   2570894.621 9   2005779.17448  21085290.783    21085292.1984   21085298.0874
     -1709.890       -1332.382
  -3559233.644 9  -2762478.64748  21913228.006    21913229.8424   21913234.8134
      -364.158        -283.759
  -9354609.095 9  -6804493.21848  20145166.936    20145167.6254   20145173.3524
      1523.130        1186.855
  -9115529.564 9  -7086758.05646  23643744.064    23643744.5014   23643749.6914
      4471.087        3483.964
 96 10  9 16 26 59.9980000  0  8 28 22 21 17  6 26 23  3            -0.001738528
 -13500692.133 9 -10498670.352 9  20282236.831    20282237.776    20282243.037
      2593.809        2021.150
  -4527821.423 9  -3487187.61147  23120128.522    23120128.4914   23120134.7394
        71.453          55.678
 -15250363.011 9 -11858706.74047  22147425.122    22147426.0124   22147432.6344
      3414.700        2660.805
  -6390545.820 9  -4969152.07148  20054487.163    20054487.4634   20054493.1464
      1117.125         870.487
   2622413.205 9   2045923.50448  21095094.642    21095095.8424   21095101.7784
     -1726.173       -1345.070
  -3548011.081 9  -2753733.79148  21915364.017    21915365.4164   21915370.4184
      -385.358        -300.279
  -9400085.112 9  -6839929.08148  20136513.545    20136513.9204   20136519.4834
      1507.256        1174.485
  -9249568.039 9  -7191203.59346  23618238.186    23618237.8974   23618243.4474
      4463.185        3477.806
 96 10  9 16 27 29.9980000  0  8 28 22 21 17  6 26 23  3            -0.001758159
 -13578233.538 9 -10559092.238 9  20267481.185    20267482.179    20267487.293
      2575.551        2006.923
  -4529726.305 9  -3488671.96146  23119766.372    23119765.9884   23119772.3134
        55.409          43.176
 -15352662.431 9 -11938420.55248  22127958.540    22127958.9964   22127965.5994
      3405.135        2653.352
  -6423927.232 9  -4995163.56548  20048134.676    20048135.2074   20048140.8924
      1108.360         863.657
   2674427.045 9   2086453.72548  21104992.360    21104993.7704   21104999.8104
     -1741.573       -1357.070
  -3536163.132 9  -2744501.63348  21917618.926    21917620.0594   21917625.0594
      -404.675        -315.331
  -9445091.147 9  -6874998.71348  20127949.047    20127949.5404   20127955.1034
      1492.980        1163.361
  -9383362.434 9  -7295458.94946  23592777.824    23592777.7154   23592783.6294
      4456.307        3472.447
 96 10  9 16 27 59.9980000  0  8 28 22 21 17  6 26 23  3            -0.001777757
 -13655256.504 9 -10619110.133 9  20252824.544    20252825.230    20252830.237
      2557.903        1993.171
  -4531183.389 9  -3489807.37146  23119488.415    23119488.6084   23119495.1024
        40.335          31.430
 -15454701.405 9 -12017931.42748  22108541.636    22108541.7094   22108548.2214
      3396.007        2646.239
  -6457086.839 9  -5021002.23248  20041824.290    20041825.1854   20041830.8744
      1100.906         857.849
   2726877.636 9   2127324.27148  21114974.129    21114974.8084   21114980.9654
     -1756.517       -1368.715
  -3523765.052 9  -2734840.80548  21919978.853    21919979.4154   21919984.3344
      -423.200        -329.766
  -9489700.698 9  -6909759.40348  20119460.113    20119460.6084   20119466.2314
      1479.651        1152.975
  -9516968.063 9  -7399567.22446  23567354.080    23567353.3054   23567359.5724
      4449.288        3466.978
 96 10  9 16 28 29.9980000  0  8 28 22 21 17  6 26 23  3            -0.001797285
 -13731716.154 9 -10678689.082 9  20238274.523    20238275.426    20238280.408
      2539.053        1978.483
  -4532150.052 9  -3490560.64646  23119304.167    23119304.6354   23119311.1754
        23.777          18.527
 -15556431.165 9 -12097201.35148  22089182.350    22089183.1814   22089189.6854
      3385.509        2638.059
  -6489988.926 9  -5046640.22548  20035563.058    20035564.1504   20035569.7804
      1092.018         850.923
   2779814.964 9   2168574.09448  21125047.125    21125048.4794   21125054.6604
     -1772.963       -1381.530
  -3510770.164 9  -2724714.91248  21922451.531    21922452.0984   21922457.1254
      -443.462        -345.555
  -9533887.994 9  -6944191.06448  20111051.473    20111052.0644   20111057.6754
      1465.718        1142.118
  -9650326.387 9  -7503482.79846  23541977.094    23541976.1384   23541982.5514
      4440.936        3460.470
 96 10  9 16 28 59.9980000  0  8 28 22 21 17  6 26 23  3            -0.001816738
 -13807620.938 9 -10737835.670 9  20223830.379    20223831.166    20223836.218
      2520.604        1964.107
  -4532628.111 9  -3490933.17146  23119213.748    23119213.7584   23119220.2264
         7.332           5.713
 -15657851.608 9 -12176230.24348  22069883.088    22069883.4554   22069889.9654
      3375.077        2629.930
  -6522626.425 9  -5072072.05048  20029352.729    20029353.5294   20029359.0544
      1083.136         844.002
   2833237.149 9   2210201.74648  21135213.193    21135214.4974   21135220.5544
     -1789.016       -1394.038
  -3497183.430 9  -2714127.85448  21925036.977    21925037.6134   21925042.5464
      -463.057        -360.824
  -9577662.240 9  -6978300.86148  20102721.524    20102722.0534   20102727.6984
      1451.727        1131.216
  -9783443.643 9  -7607210.50846  23516645.428    23516644.6204   23516651.3484
      4432.885        3454.196
 96 10  9 16 29 29.9980000  0  8 28 22 21 17  6 26 23  3            -0.001836141
 -13882995.181 9 -10796568.852 9  20209487.225    20209487.958    20209492.931
      2503.361        1950.671
  -4532628.856 9  -3490933.79146  23119214.166    23119213.6494   23119220.1364
        -8.233          -6.415
 -15758974.432 9 -12255027.21848  22050639.974    22050640.3784   22050646.9874
      3365.340        2622.343
  -6555014.249 9  -5097309.32248  20023189.641    20023190.3384   20023195.8604
      1075.044         837.697
   2887102.536 9   2252174.74948  21145463.596    21145464.7174   21145470.7614
     -1802.883       -1404.844
  -3483029.274 9  -2703098.64948  21927730.483    21927731.0544   21927736.0434
      -481.693        -375.345
  -9621030.259 9  -7012094.12648  20094468.923    20094469.4604   20094475.0564
      1438.400        1120.831
  -9916339.348 9  -7710765.61746  23491355.976    23491355.0764   23491362.2284
      4426.028        3448.853
 96 10  9 16 29 59.9980000  0  8 28 22 21 17  6 26 23  3            -0.001855494
 -13957807.929 9 -10854864.507 9  20195250.718    20195251.580    20195256.545
      2485.130        1936.465
  -4532123.037 9  -3490539.67146  23119309.735    23119309.9594   23119316.2964
       -24.405         -19.017
 -15859758.398 9 -12333560.16248  22031461.237    22031461.7624   22031468.4414
      3354.690        2614.044
  -6587113.138 9  -5122321.44648  20017081.844    20017082.1874   20017087.6974
      1065.793         830.488
   2941415.651 9   2294496.61848  21155799.061    21155800.0914   21155806.2474
     -1816.888       -1415.757
  -3468270.340 9  -2691598.18348  21930538.834    21930539.5524   21930544.7084
      -501.325        -390.643
  -9663950.659 9  -7045538.59048  20086301.438    20086301.9624   20086307.6014
      1423.973        1109.589
 -10048992.080 8  -7814131.36346  23466112.023    23466111.8364   23466119.3844
      4418.348        3442.869
 96 10  9 16 30 29.9980000  0  8 28 22 21 17  6 26 23  3            -0.001874811
 -14032060.193 9 -10912723.418 9  20181121.162    20181121.912    20181126.843
      2466.491        1921.941
  -4531121.143 9  -3489759.00146  23119499.836    23119500.5714   23119506.9804
       -40.759         -31.760
 -15960216.885 9 -12411839.50248  22012344.471    22012345.2184   22012351.7804
      3344.063        2605.763
  -6618907.044 9  -5147095.92448  20011031.922    20011032.0894   20011037.5474
      1055.277         822.294
   2996153.637 9   2337149.54148  21166215.298    21166216.4434   21166222.6304
     -1830.750       -1426.558
  -3452903.499 9  -2679624.03048  21933463.168    21933463.7514   21933468.8754
      -521.539        -406.394
  -9706419.557 9  -7078631.23648  20078219.904    20078220.3834   20078226.0614
      1408.725        1097.708
 -10181408.276 9  -7917312.78746  23440911.490    23440913.6224   23440921.4734
      4410.803        3436.989
 96 10  9 16 30 59.9980000  0  8 28 22 21 17  6 26 23  3            -0.001894130
 -14105785.239 9 -10970171.504 9  20167091.763    20167092.457    20167097.419
      2449.088        1908.380
  -4529671.072 9  -3488629.10646  23119777.068    23119776.4654   23119783.0334
       -55.267         -43.065
 -16060389.988 9 -12489896.44048  21993282.381    21993282.9324   21993289.5254
      3334.741        2598.499
  -6650418.643 9  -5171650.42148  20005035.546    20005035.6414   20005041.0904
      1046.093         815.137
   3051265.388 9   2380093.73848  21176702.650    21176703.8824   21176710.0694
     -1842.794       -1435.943
  -3436970.103 9  -2667208.41048  21936495.420    21936495.7574   21936500.8744
      -540.064        -420.829
  -9748454.114 9  -7111385.44048  20070221.137    20070221.4914   20070227.0824
      1394.335        1086.495
 -10313636.501 8  -8020347.75346  23415747.117    23415751.2464   23415759.0814
      4404.908        3432.396
 96 10  9 16 31 29.9980000  0  8 28 22 21 17  6 26 23  3            -0.001913448
 -14178963.139 9 -11027193.250 9  20153166.107    20153167.100    20153172.146
      2429.890        1893.421
  -4527769.054 9  -3487147.03646  23120138.557    23120138.4014   23120145.1084
       -70.895         -55.243
 -16160254.522 9 -12567712.94048  21974278.589    21974279.3284   21974285.9814
      3323.409        2589.669
  -6681630.454 9  -5195971.31948  19999096.056    19999096.3054   19999101.7334
      1035.221         806.666
   3106760.592 9   2423336.71548  21187262.810    21187264.2524   21187270.5124
     -1856.624       -1446.720
  -3420454.839 9  -2654339.39248  21939638.392    21939638.7134   21939643.6934
      -560.459        -436.721
  -9790045.295 9  -7143794.15748  20062306.540    20062306.9554   20062312.5644
      1378.994        1074.541
 -10445657.764 9  -8123221.45346  23390624.723    23390628.2644   23390636.0034
      4397.112        3426.321
 96 10  9 16 31 59.9980000  0  8 28 22 21 17  6 26 23  3            -0.001932734
 -14251555.077 9 -11083758.407 9  20139352.459    20139353.321    20139358.332
      2410.467        1878.286
  -4525400.637 9  -3485301.55546  23120588.919    23120589.1624   23120595.8444
       -86.009         -67.020
 -16259777.268 9 -12645263.11248  21955340.113    21955340.7544   21955347.4954
      3312.481        2581.154
  -6712507.219 9  -5220031.14148  19993220.244    19993220.6794   19993226.1014
      1024.113         798.010
   3162692.802 9   2466920.20648  21197906.893    21197907.8524   21197914.1544
     -1871.308       -1458.162
  -3403314.916 9  -2640983.60448  21942899.399    21942900.1934   21942905.3334
      -581.119        -452.820
  -9831170.770 9  -7175839.97948  20054480.645    20054481.0604   20054486.7174
      1363.703        1062.626
 -10577437.061 9  -8225906.60246  23365548.679    23365551.4144   23365559.0814
      4389.071        3420.055
 96 10  9 16 32 29.9980000  0  8 28 22 21 17  6 26 23  3            -0.001952007
 -14323584.371 9 -11139885.133 9  20125646.137    20125646.651    20125651.612
      2391.807        1863.746
  -4522599.246 9  -3483118.69446  23121122.203    23121122.2844   23121129.0804
      -100.420         -78.249
 -16358998.548 9 -12722578.37448  21936459.149    21936459.6414   21936466.3754
      3302.552        2573.417
  -6743065.805 9  -5243843.03248  19987405.111    19987405.5534   19987410.9764
      1013.576         789.799
   3219048.512 9   2510833.70747  21208631.096    21208632.0094   21208638.3464
     -1885.356       -1469.109
  -3385578.276 9  -2627162.85047  21946274.044    21946275.3514   21946280.5164
      -600.852        -468.196
  -9871861.841 9  -7207547.30648  20046737.257    20046737.7854   20046743.4114
      1349.414        1051.491
 -10708998.832 9  -8328422.23446  23340513.319    23340516.0334   23340523.6404
      4382.114        3414.634
 96 10  9 16 32 59.9980000  0  8 28 22 21 17  6 26 23  3            -0.001971276
 -14395082.372 9 -11195597.863 9  20112040.268    20112040.996    20112045.955
      2372.149        1848.428
  -4519396.138 9  -3480622.78647  23121731.753    23121731.8714   23121738.6644
      -115.679         -90.139
 -16457946.399 9 -12799680.58248  21917630.200    21917630.4914   21917637.1014
      3291.437        2564.756
  -6773347.778 9  -5267439.37548  19981642.355    19981643.0154   19981648.5764
      1002.635         781.274
   3275794.803 9   2555051.55848  21219429.376    21219430.5034   21219436.8834
     -1900.215       -1480.687
  -3367286.242 9  -2612909.32247  21949755.624    21949756.2944   21949761.3854
      -621.202        -484.054
  -9912161.822 9  -7238949.88748  20039068.533    20039068.9654   20039074.5454
      1334.761        1040.073
 -10840384.020 9  -8430800.27946  23315512.021    23315514.4144   23315521.8714
      4374.275        3408.526
 96 10  9 16 33 29.9980000  0  8 28 22 21 17  6 26 23  3            -0.001990513
 -14466006.113 9 -11250863.118 9  20098543.882    20098544.649    20098549.660
      2354.248        1834.479
  -4515747.257 9  -3477779.52446  23122426.575    23122426.3704   23122433.0454
      -129.465        -100.882
 -16556578.330 9 -12876536.61248  21898860.778    21898861.3994   21898868.0314
      3282.367        2557.689
  -6803321.852 9  -5290795.80148  19975938.656    19975939.0814   19975944.7024
       993.879         774.451
   3332968.641 9   2599602.56448  21230309.330    21230310.3724   21230316.7754
     -1913.275       -1490.864
  -3348395.752 9  -2598189.45847  21953350.552    21953351.0174   21953356.0504
      -639.931        -498.648
  -9952041.818 9  -7270025.20748  20031479.581    20031480.0304   20031485.6404
      1322.074        1030.188
 -10971552.000 9  -8533009.07646  23290552.138    23290554.3064   23290561.4654
      4368.516        3404.038
 96 10  9 16 33 59.9980000  0  8 28 22 21 17  6 26 23  3            -0.002009720
 -14536361.739 9 -11305685.691 9  20085155.609    20085156.386    20085161.447
      2335.871        1820.159
  -4511647.669 9  -3474585.05646  23123206.394    23123206.5184   23123213.0684
      -144.292        -112.435
 -16654924.432 9 -12953169.91648  21880146.320    21880146.7544   21880153.4074
      3273.728        2550.957
  -6833004.226 9  -5313924.93148  19970290.254    19970290.6704   19970296.4134
       984.766         767.350
   3390566.975 9   2644484.34248  21241269.913    21241270.9974   21241277.3444
     -1926.768       -1501.378
  -3328922.545 9  -2583015.54847  21957056.860    21957056.6804   21957061.6534
      -658.446        -513.075
  -9991508.091 9  -7300778.14048  20023969.422    20023969.8714   20023975.4334
      1308.832        1019.869
 -11102519.095 9  -8635061.34046  23265630.414    23265632.3644   23265639.3014
      4362.242        3399.150
 96 10  9 16 34 29.9970000  0  8 28 22 21 17  6 26 23  3            -0.002028927
 -14606197.958 9 -11360103.525 9  20071866.402    20071867.020    20071872.102
      2320.506        1808.186
  -4507130.451 9  -3471065.18846  23124065.672    23124066.0414   23124072.6474
      -156.399        -121.869
 -16753042.530 9 -13029625.56048  21861474.780    21861475.5144   21861482.1184
      3267.967        2546.468
  -6862455.894 9  -5336874.29548  19964685.634    19964686.2144   19964691.9354
       979.353         763.132
   3448526.239 9   2689647.35848  21252299.263    21252300.3624   21252306.6944
     -1936.697       -1509.115
  -3308931.286 9  -2567437.94747  21960861.062    21960860.8284   21960865.8934
      -673.831        -525.063
 -10030610.864 9  -7331247.82748  20016528.170    20016528.8444   20016534.4444
      1298.650        1011.935
 -11233326.377 9  -8736989.07747  23240739.336    23240740.7694   23240747.5334
      4358.873        3396.524
 96 10  9 16 34 59.9970000  0  8 28 22 21 17  6 26 23  3            -0.002048147
 -14675543.217 9 -11414138.794 9  20058670.304    20058671.030    20058676.075
      2301.707        1793.538
  -4502217.018 9  -3467236.55347  23125001.025    23125001.0764   23125007.6964
      -171.931        -133.972
 -16850947.323 9 -13105914.98648  21842844.495    21842844.8804   21842851.5064
      3258.165        2538.830
  -6891724.350 9  -5359680.89048  19959115.972    19959116.5994   19959122.3994
       971.054         756.665
   3506813.777 9   2735066.17547  21263391.549    21263392.2084   21263398.5214
     -1950.054       -1519.523
  -3288452.761 9  -2551480.66548  21964757.684    21964757.7634   21964762.8024
      -692.289        -539.446
 -10069380.258 9  -7361457.74948  20009150.802    20009151.3004   20009156.8744
      1285.251        1001.494
 -11363993.720 9  -8838807.76647  23215874.805    23215875.6984   23215882.4024
      4351.431        3390.725
 96 10  9 16 35 29.9970000  0  8 28 22 21 17  6 26 23  3            -0.002067268
 -14744229.979 9 -11467660.951 9  20045599.506    20045600.296    20045605.478
      2279.587        1776.302
  -4496740.346 9  -3462969.03347  23126042.773    23126043.3174   23126050.0354
      -190.965        -148.804
 -16948465.097 9 -13181902.83148  21824287.200    21824287.7754   21824294.4164
      3245.213        2528.737
  -6920651.830 9  -5382221.79248  19953611.505    19953611.8544   19953617.5944
       959.627         747.761
   3565603.226 9   2780876.10147  21274579.086    21274579.4594   21274585.7744
     -1967.102       -1532.807
  -3267326.118 9  -2535018.36547  21968777.504    21968778.0484   21968782.9974
      -713.877        -556.268
 -10107653.103 9  -7391280.74248  20001867.667    20001868.2424   20001873.8094
      1268.551         988.481
 -11494338.872 9  -8940375.39947  23191071.034    23191071.9494   23191078.4484
      4340.381        3382.115
 96 10  9 16 35 59.9970000  0  8 28 22 21 17  6 26 23  3            -0.002086331
 -14812327.711 9 -11520724.127 9  20032641.087    20032641.761    20032646.912
      2259.814        1760.894
  -4490777.431 9  -3458322.65047  23127178.110    23127178.0454   23127184.8174
      -206.894        -161.216
 -17045666.444 9 -13257644.13648  21805790.261    21805790.9384   21805797.4854
      3234.290        2520.226
  -6949301.519 9  -5404546.23248  19948159.841    19948160.0794   19948165.7404
       949.914         740.193
   3624830.478 9   2827027.16948  21285849.492    21285850.0644   21285856.4654
     -1981.667       -1544.156
  -3245632.606 9  -2518114.32247  21972905.041    21972906.1034   21972911.1704
      -732.782        -570.999
 -10145500.834 9  -7420772.47448  19994665.488    19994666.0354   19994671.6214
      1254.232         977.324
 -11624419.870 9  -9041737.19747  23166317.457    23166318.4224   23166324.6954
      4331.035        3374.832
 96 10  9 16 36 29.9970000  0  8 28 22 21 17  6 26 23  3            -0.002105356
 -14879854.079 9 -11573342.080 9  20019791.583    20019791.968    20019797.111
      2240.805        1746.082
  -4484372.059 9  -3453331.47747  23128396.709    23128396.9764   23128403.7254
      -221.176        -172.345
 -17142553.155 9 -13333140.25048  21787353.689    21787354.0224   21787360.5814
      3223.568        2511.871
  -6977685.726 9  -5426663.80348  19942758.298    19942758.7984   19942764.3084
       941.114         733.336
   3684464.209 9   2873494.96848  21297197.300    21297198.0704   21297204.4834
     -1995.023       -1554.563
  -3223392.774 9  -2500784.58947  21977137.071    21977138.1644   21977143.2914
      -750.929        -585.139
 -10182945.504 9  -7449950.13648  19987540.014    19987540.5474   19987546.1654
      1240.996         967.010
 -11754237.989 9  -9142894.15547  23141613.768    23141614.9704   23141621.0014
      4322.484        3368.169
 96 10  9 16 36 59.9970000  0  8 28 22 21 17  6 26 23  3            -0.002124341
 -14946798.399 9 -11625506.489 9  20007052.288    20007052.922    20007058.020
      2221.908        1731.357
  -4477533.787 9  -3448002.97947  23129698.509    23129698.4064   23129705.0284
      -234.975        -183.097
 -17239100.839 9 -13408372.20248  21768981.599    21768981.6604   21768988.1204
      3212.939        2503.589
  -7005786.841 9  -5448560.76948  19937410.821    19937411.3474   19937416.7894
       931.951         726.196
   3744516.646 9   2920289.02647  21308625.180    21308625.6434   21308632.0804
     -2008.808       -1565.305
  -3200600.996 9  -2483024.78547  21981474.184    21981475.2764   21981480.3994
      -768.710        -598.995
 -10219988.421 9  -7478814.74348  19980491.064    19980491.4924   19980497.1224
      1228.233         957.065
 -11883799.635 9  -9243851.26047  23116959.484    23116960.3364   23116966.2344
      4314.829        3362.204
 96 10  9 16 37 29.9970000  0  8 28 22 21 17  6 26 23  3            -0.002143292
 -15013152.203 9 -11677210.760 9  19994425.792    19994426.223    19994431.314
      2203.310        1716.865
  -4470264.141 9  -3442338.33446  23131081.872    23131081.7704   23131088.3884
      -248.083        -193.311
 -17335320.520 9 -13483348.53748  21750671.044    21750671.5954   21750678.0754
      3203.589        2496.303
  -7033581.029 9  -5470218.59348  19932122.124    19932122.2794   19932127.6684
       922.677         718.969
   3805001.936 9   2967420.37448  21320134.881    21320135.7054   21320142.0834
     -2021.743       -1575.384
  -3177250.260 9  -2464829.42247  21985918.107    21985918.8594   21985923.9754
      -786.283        -612.688
 -10256624.223 9  -7507362.12848  19973519.612    19973519.9294   19973525.5114
      1215.654         947.263
 -12013116.514 9  -9344617.63247  23092351.634    23092352.0944   23092358.1334
      4307.854        3356.769
 96 10  9 16 37 59.9970000  0  8 28 22 21 17  6 26 23  3            -0.002162252
 -15078973.816 9 -11728500.338 9  19981900.124    19981900.806    19981905.846
      2185.610        1703.073
  -4462635.337 9  -3436393.83646  23132533.299    23132533.4454   23132540.0334
      -259.845        -202.477
 -17431293.560 9 -13558132.71248  21732408.498    21732408.4874   21732414.9744
      3195.363        2489.893
  -7061122.482 9  -5491679.46948  19926880.973    19926881.3374   19926886.7374
       914.334         712.468
   3865845.093 9   3014830.58947  21331713.477    21331713.7914   21331720.1454
     -2033.675       -1584.682
  -3153397.400 9  -2446242.79148  21990457.374    21990457.9424   21990463.1774
      -803.309        -625.955
 -10292910.394 9  -7535637.06548  19966614.491    19966614.8794   19966620.4514
      1204.146         938.296
 -12142245.080 9  -9445237.27347  23067778.879    23067779.6474   23067785.9564
      4301.531        3351.842
 96 10  9 16 38 29.9970000  0  8 28 22 21 17  6 26 23  3            -0.002181184
 -15144212.130 9 -11779335.394 9  19969485.771    19969486.363    19969491.454
      2164.857        1686.902
  -4454593.930 9  -3430127.84346  23134063.891    23134063.6484   23134070.3124
      -275.188        -214.432
 -17526966.758 9 -13632683.23548  21714202.085    21714202.4454   21714208.9174
      3184.092        2481.111
  -7088369.951 9  -5512911.27748  19921695.861    19921696.3544   19921701.7434
       903.346         703.906
   3927097.945 9   3062560.04447  21343369.453    21343369.8134   21343376.1354
     -2048.622       -1596.329
  -3128974.166 9  -2427211.71248  21995104.405    21995105.5164   21995110.7594
      -823.594        -641.762
 -10328794.818 9  -7563598.95448  19959786.006    19959786.3614   19959791.9304
      1189.284         926.715
 -12271135.805 9  -9545671.58647  23043251.021    23043252.4284   23043258.9784
      4292.625        3344.903
 96 10  9 16 38 59.9970000  0  8 28 22 21 17  6 26 23  3            -0.002200085
 -15208865.043 9 -11829714.292 9  19957182.728    19957183.323    19957188.380
      2145.728        1671.996
  -4446121.626 9  -3423526.07646  23135675.635    23135675.8984   23135682.6534
      -289.247        -225.387
 -17622343.243 9 -13707002.55348  21696052.782    21696052.8884   21696059.3774
      3174.874        2473.928
  -7115315.968 9  -5533908.17848  19916568.445    19916568.7514   19916574.1884
       893.578         696.295
   3988764.487 9   3110611.85147  21355103.776    21355104.5644   21355110.9464
     -2062.014       -1606.764
  -3103980.107 9  -2407735.84747  21999860.813    21999861.7614   21999866.8904
      -842.231        -656.284
 -10364264.343 9  -7591237.54048  19953036.205    19953036.6884   19953042.3174
      1175.618         916.066
 -12399799.254 9  -9645928.81546  23018767.539    23018768.5544   23018775.2244
      4285.207        3339.122
 96 10  9 16 39 29.9970000  0  8 28 22 21 17  6 26 23  3            -0.002218956
 -15272936.598 9 -11879640.189 9  19944990.186    19944990.887    19944995.971
      2126.233        1656.805
  -4437221.730 9  -3416591.12946  23137368.849    23137369.4394   23137376.2804
      -303.498        -236.492
 -17717442.516 9 -13781105.84048  21677955.341    21677955.9164   21677962.6374
      3165.448        2466.583
  -7141966.853 9  -5554675.10548  19911497.246    19911497.2104   19911502.7764
       883.809         688.682
   4050831.826 9   3158975.96147  21366914.833    21366915.6044   21366922.0254
     -2075.184       -1617.026
  -3078416.777 9  -2387816.37647  22004725.182    22004726.3054   22004731.4334
      -861.337        -671.172
 -10399309.307 9  -7618545.29848  19946367.551    19946367.8784   19946373.4184
      1161.121         904.770
 -12528214.848 9  -9745992.90346  22994331.111    22994331.9404   22994338.6224
      4276.267        3332.156
 96 10  9 16 39 59.9970000  0  8 28 22 21 17  6 26 23  3            -0.002237793
 -15336425.411 9 -11929111.992 9  19932908.657    19932909.376    19932914.488
      2106.580        1641.491
  -4427897.246 9  -3409325.31646  23139143.906    23139143.8404   23139150.6364
      -317.875        -247.695
 -17812247.223 9 -13854979.61848  21659914.507    21659915.1804   21659921.9494
      3154.958        2458.409
  -7168328.567 9  -5575216.71248  19906480.490    19906480.6834   19906486.3954
       873.813         680.893
   4113289.468 9   3207644.21447  21378800.893    21378800.9494   21378807.3714
     -2088.406       -1627.329
  -3052285.490 9  -2367454.33947  22009697.703    22009698.9074   22009704.1284
      -880.362        -685.996
 -10433918.943 9  -7645513.83948  19939781.490    19939781.8944   19939787.4304
      1146.437         893.327
 -12656357.750 9  -9845844.49646  22969947.165    22969947.2604   22969953.9534
      4266.961        3324.905
 96 10  9 16 40 29.9970000  0  8 28 22 21 17  6 26 23  3            -0.002256590
 -15399295.124 9 -11978101.386 9  19920945.111    19920945.723    19920950.853
      2085.577        1625.125
  -4418114.728 9  -3401702.59747  23141005.203    23141005.4634   23141012.1684
      -333.411        -259.801
 -17906707.348 9 -13928584.88248  21641939.275    21641939.9724   21641946.8004
      3143.289        2449.316
  -7194354.693 9  -5595496.82148  19901527.376    19901528.0794   19901533.7984
       862.162         671.815
   4176166.888 9   3256639.56747  21390766.085    21390766.2064   21390772.6454
     -2102.478       -1638.294
  -3025569.647 9  -2346636.82047  22014781.573    22014782.7474   22014787.9334
      -899.623        -701.005
 -10468051.178 9  -7672110.39148  19933286.321    19933286.7564   19933292.2774
      1130.041         880.551
 -12784190.922 9  -9945454.75746  22945622.650    22945621.6274   22945628.0544
      4256.241        3316.551
 96 10  9 16 40 59.9970000  0  8 28 22 21 17  6 26 23  3            -0.002275392
 -15461597.495 9 -12026648.687 9  19909089.472    19909089.920    19909095.235
      2066.077        1609.930
  -4407935.478 9  -3393770.73847  23142941.893    23142942.5204   23142949.1784
      -346.933        -270.337
 -18000882.056 9 -14001967.76648  21624018.750    21624019.2074   21624025.8214
      3133.206        2441.459
  -7220095.824 9  -5615554.85348  19896629.388    19896629.7534   19896635.4804
       852.286         664.119
   4239395.749 9   3305908.76347  21402797.846    21402798.2544   21402804.7834
     -2114.666       -1647.792
  -2998345.135 9  -2325422.92847  22019962.442    22019963.3944   22019968.5404
      -917.223        -714.719
 -10501761.492 9  -7698378.16448  19926871.414    19926871.8384   19926877.3894
      1115.698         869.375
 -12911759.077 9 -10044858.48746  22921347.432    22921346.1284   22921352.6024
      4246.281        3308.790
 96 10  9 16 41 29.9970000  0  8 28 22 21 17  6 26 23  3            -0.002294161
 -15523298.961 9 -12074727.760 9  19897347.785    19897348.537    19897353.809
      2048.048        1595.882
  -4397333.925 9  -3385509.81747  23144959.926    23144959.9854   23144966.5584
      -359.173        -279.875
 -18094739.370 9 -14075103.30248  21606158.039    21606158.7214   21606165.3344
      3124.659        2434.799
  -7245531.485 9  -5635374.86348  19891789.009    19891789.5134   19891795.1324
       844.066         657.714
   4303005.171 9   3355474.50947  21414901.936    21414902.6974   21414909.2884
     -2125.145       -1655.957
  -2970575.918 9  -2303784.58647  22025246.986    22025247.7094   22025252.9704
      -933.323        -727.265
 -10535034.160 9  -7724304.92448  19920539.806    19920540.2984   19920545.8194
      1103.285         859.702
 -13039004.491 9 -10144010.74246  22897133.634    22897132.0864   22897138.6374
      4237.564        3301.998
 96 10  9 16 41 59.9970000  0  8 28 22 21 17  6 26 23  3            -0.002312918
 -15584426.975 9 -12122359.984 9  19885715.561    19885716.312    19885721.539
      2027.150        1579.597
  -4386329.720 9  -3376935.14147  23147053.714    23147054.0994   23147060.6264
      -374.392        -291.734
 -18188301.972 9 -14148009.20048  21588353.950    21588354.3564   21588360.9244
      3113.025        2425.734
  -7270680.900 9  -5654971.81048  19887003.220    19887003.8114   19887009.3134
       832.610         648.787
   4366959.846 9   3405309.26847  21427071.890    21427072.8354   21427079.4944
     -2138.559       -1666.410
  -2942292.636 9  -2281745.67847  22030628.812    22030629.8804   22030635.1714
      -952.202        -741.976
 -10567913.842 9  -7749925.45048  19914283.072    19914283.5144   19914289.0484
      1088.849         848.454
 -13165970.560 9 -10242945.32946  22872972.792    22872971.1144   22872977.6724
      4226.921        3293.705
 96 10  9 16 42 29.9970000  0  8 28 22 21 17  6 26 23  3            -0.002331636
 -15644952.115 9 -12169522.440 9  19874198.032    19874198.800    19874204.018
      2006.320        1563.366
  -4374897.428 9  -3368026.89747  23149229.788    23149229.5654   23149236.2734
      -389.379        -303.412
 -18281546.902 9 -14220667.56748  21570609.324    21570610.4274   21570616.9924
      3101.706        2416.914
  -7295519.274 9  -5674326.39548  19882276.699    19882277.2214   19882282.7154
       821.852         640.404
   4431293.257 9   3455439.15047  21439314.179    21439315.0864   21439321.7474
     -2151.819       -1676.742
  -2913466.248 9  -2259283.57647  22036115.013    22036115.3854   22036120.5884
      -971.216        -756.792
 -10600393.475 9  -7775234.25648  19908102.515    19908102.8454   19908108.3464
      1074.921         837.601
 -13292646.140 9 -10341653.56546  22848867.047    22848865.3644   22848872.0234
      4216.696        3285.737
 96 10  9 16 42 59.9970000  0  8 28 22 21 17  6 26 23  3            -0.002350301
 -15704861.550 9 -12216205.122 9  19862797.882    19862798.484    19862803.650
      1986.586        1547.989
  -4363021.754 9  -3358773.14947  23151489.120    23151489.4694   23151496.1844
      -403.298        -314.258
 -18374453.274 9 -14293062.12648  21552930.686    21552931.0064   21552937.4614
      3091.054        2408.613
  -7320054.016 9  -5693444.38548  19877607.984    19877608.4434   19877613.8904
       812.649         633.233
   4496016.190 9   3505872.56747  21451630.691    21451631.5264   21451638.1284
     -2164.046       -1686.270
  -2884064.074 9  -2236372.79647  22041710.323    22041710.4014   22041715.5554
      -989.890        -771.343
 -10632473.071 9  -7800231.34748  19901997.851    19901998.3084   19902003.7694
      1062.695         828.074
 -13419034.318 9 -10440137.87146  22824815.258    22824814.3384   22824821.1414
      4208.071        3279.016
 96 10  9 16 43 29.9970000  0  8 28 22 21 17  6 26 23  3            -0.002368934
 -15764184.652 9 -12262430.922 9  19851509.232    19851509.651    19851514.884
      1967.686        1533.262
  -4350737.918 9  -3349201.35747  23153826.485    23153827.0604   23153833.6684
      -416.139        -324.264
 -18467051.150 9 -14365216.29948  21535309.316    21535310.1674   21535316.5554
      3081.530        2401.192
  -7344314.754 9  -5712348.85948  19872991.251    19872991.7644   19872997.2674
       803.974         626.473
   4561092.968 9   3556581.70347  21464014.304    21464015.3264   21464021.9034
     -2175.007       -1694.811
  -2854113.024 9  -2213034.33447  22047409.580    22047409.9764   22047415.0154
     -1007.293        -784.904
 -10664192.991 9  -7824948.17048  19895961.748    19895962.2124   19895967.7334
      1051.243         819.150
 -13545181.432 9 -10538434.33246  22800809.712    22800809.4274   22800816.0614
      4201.191        3273.655
 96 10  9 16 43 59.9970000  0  8 28 22 21 17  6 26 23  3            -0.002387559
 -15822935.469 9 -12308210.788 9  19840329.366    19840329.804    19840334.960
      1948.387        1518.224
  -4338079.493 9  -3339337.66447  23156236.327    23156235.9874   23156242.5754
      -428.307        -333.746
 -18559359.337 9 -14437144.74348  21517744.116    21517744.5144   21517750.9164
      3071.841        2393.642
  -7368310.446 9  -5731046.80448  19868425.387    19868425.5474   19868431.1334
       795.221         619.653
   4626503.662 9   3607551.02247  21476461.546    21476462.6054   21476469.3144
     -2186.421       -1703.705
  -2823640.470 9  -2189289.49547  22053208.146    22053208.8014   22053213.8394
     -1024.728        -798.489
 -10695560.302 9  -7849390.22848  19889992.651    19889993.1954   19889998.7814
      1039.272         809.822
 -13671120.436 9 -10636568.62246  22776844.199    22776844.2164   22776850.6134
      4193.869        3267.950
 96 10  9 16 44 29.9970000  0  8 28 22 21 17  6 26 23  3            -0.002406169
 -15881092.900 9 -12353528.272 9  19829262.235    19829262.877    19829267.970
      1928.396        1502.646
  -4325045.309 9  -3329181.18447  23158716.371    23158716.2574   23158723.0614
      -441.091        -343.707
 -18651368.904 9 -14508840.48448  21500235.107    21500235.6474   21500242.1194
      3061.816        2385.831
  -7392037.002 9  -5749535.04848  19863910.192    19863910.5434   19863916.1554
       786.127         612.566
   4692271.046 9   3658798.28247  21488977.029    21488977.6834   21488984.5674
     -2198.311       -1712.970
  -2792631.775 9  -2165126.87947  22059107.647    22059109.4834   22059114.7244
     -1042.852        -812.612
 -10726551.188 9  -7873538.97448  19884095.396    19884095.9044   19884101.3934
      1026.327         799.735
 -13796812.040 9 -10734510.11547  22752925.764    22752926.0384   22752932.4004
      4185.159        3261.163
 96 10  9 16 44 59.9970000  0  8 28 22 21 17  6 26 23  3            -0.002424744
 -15938629.792 9 -12398362.225 9  19818313.316    19818313.947    19818319.089
      1909.103        1487.613
  -4311608.135 9  -3318710.70547  23161272.919    23161273.1494   23161280.1494
      -452.926        -352.929
 -18743064.974 9 -14580291.95348  21482786.162    21482786.5234   21482793.0014
      3053.029        2378.984
  -7415464.751 9  -5767790.45348  19859452.386    19859452.4724   19859458.0824
       777.218         605.624
   4758411.521 9   3710336.25847  21501563.382    21501563.8224   21501570.7474
     -2209.370       -1721.587
  -2761064.231 9  -2140528.81447  22065113.228    22065116.5164   22065121.8914
     -1059.784        -825.806
 -10757134.855 9  -7897370.40048  19878275.506    19878275.9824   19878281.5194
      1014.325         790.383
 -13922212.368 9 -10832224.64847  22729063.253    22729063.3434   22729069.4584
      4176.259        3254.228
 96 10  9 16 45 29.9970000  0  8 28 22 21 17  6 26 23  3            -0.002443285
 -15995556.769 9 -12442720.917 9  19807480.530    19807481.163    19807486.191
      1887.247        1470.582
  -4297784.874 9  -3307939.35847  23163902.875    23163903.7134   23163910.6914
      -467.481        -364.271
 -18834475.026 9 -14651520.53748  21465391.537    21465391.7194   21465398.2314
      3042.046        2370.425
  -7438583.888 9  -5785805.37448  19855052.992    19855053.0974   19855058.7324
       765.331         596.362
   4824918.688 9   3762159.97847  21514219.452    21514219.8464   21514226.6264
     -2223.392       -1732.513
  -2728964.905 9  -2115516.38247  22071221.680    22071224.8204   22071230.2184
     -1078.946        -840.737
 -10787323.916 9  -7920894.34148  19872530.478    19872531.1434   19872536.7414
       999.469         778.807
 -14047300.703 9 -10929696.07047  22705259.983    22705259.9714   22705265.8184
      4164.154        3244.795
 96 10  9 16 45 59.9970000  0  8 28 22 21 17  6 26 23  3            -0.002461752
 -16051831.154 9 -12486571.085 9  19796771.803    19796772.509    19796777.522
      1865.893        1453.943
  -4283524.952 9  -3296827.75547  23166617.798    23166617.3774   23166624.2554
      -481.758        -375.396
 -18925554.362 9 -14722491.43448  21448059.127    21448059.8574   21448066.3284
      3031.321        2362.068
  -7461351.816 9  -5803546.62348  19850720.318    19850720.5784   19850726.1014
       754.133         587.636
   4891854.015 9   3814317.33447  21526956.335    21526957.3534   21526963.9964
     -2237.437       -1743.457
  -2696292.851 9  -2090057.66847  22077439.267    22077442.0404   22077447.4164
     -1097.709        -855.358
 -10817074.948 9  -7944076.96548  19866869.140    19866869.7514   19866875.2994
       985.542         767.955
 -14172017.212 9 -11026877.75147  22681526.685    22681527.2524   22681532.9514
      4151.869        3235.223
 96 10  9 16 46 29.9970000  0  8 28 22 21 17  6 26 23  3            -0.002480178
 -16107511.215 9 -12529958.151 9  19786176.382    19786176.938    19786182.036
      1845.749        1438.246
  -4268879.464 9  -3285415.72447  23169404.336    23169404.2094   23169411.2124
      -495.046        -385.750
 -19016350.611 9 -14793241.73948  21430781.322    21430781.9204   21430788.3774
      3021.287        2354.250
  -7483829.362 9  -5821061.60148  19846443.152    19846443.2244   19846448.7774
       743.915         579.674
   4959161.759 9   3866764.87547  21539764.661    21539765.6734   21539772.2854
     -2250.020       -1753.262
  -2663101.897 9  -2064194.60947  22083755.260    22083758.1724   22083763.4534
     -1115.388        -869.134
 -10846453.248 9  -7966969.14948  19861278.617    19861279.2284   19861284.7814
       972.628         757.892
 -14296416.080 9 -11123811.91847  22657853.709    22657854.7514   22657860.4984
      4141.145        3226.866
 96 10  9 16 46 59.9970000  0  8 28 22 21 17  6 26 23  3            -0.002498550
 -16162578.591 9 -12572867.808 9  19775697.385    19775697.991    19775703.076
      1825.071        1422.133
  -4253825.816 9  -3273685.65147  23172268.691    23172268.8904   23172275.9344
      -508.818        -396.482
 -19106830.424 9 -14863745.47048  21413563.572    21413564.1704   21413570.6074
      3010.200        2345.610
  -7505986.990 9  -5838327.29448  19842226.276    19842226.7384   19842232.2314
       732.877         571.073
   5026856.445 9   3919513.93647  21552646.122    21552647.5214   21552654.1924
     -2263.301       -1763.611
  -2629374.873 9  -2037913.82347  22090173.691    22090176.3264   22090181.5554
     -1133.313        -883.101
 -10875432.224 9  -7989550.16948  19855764.146    19855764.6874   19855770.3204
       959.005         747.277
 -14420486.716 9 -11220490.30947  22634243.614    22634244.6914   22634250.5944
      4129.893        3218.098
 96 10  9 16 47 29.9970000  0  8 28 22 21 17  6 26 23  3            -0.002516896
 -16217066.339 9 -12615325.802 9  19765328.855    19765329.383    19765334.358
      1809.165        1409.739
  -4238399.326 9  -3261665.03347  23175204.465    23175204.5894   23175211.5834
      -517.958        -403.604
 -19197009.166 9 -14934014.60548  21396403.183    21396403.7574   21396410.1784
      3003.444        2340.346
  -7527855.436 9  -5855367.64048  19838064.821    19838065.2564   19838070.7664
       726.912         566.425
   5094911.423 9   3972543.73447  21565596.737    21565597.9134   21565604.6664
     -2271.778       -1770.217
  -2595153.751 9  -2011248.02547  22096686.204    22096688.3484   22096693.6494
     -1146.355        -893.264
 -10904041.192 9  -8011842.86948  19850320.022    19850320.5684   19850326.2004
       950.001         740.260
 -14544271.193 9 -11316945.72747  22610687.477    22610689.1884   22610695.1704
      4124.244        3213.697
 96 10  9 16 47 59.9970000  0  8 28 22 21 17  6 26 23  3            -0.002535257
 -16271023.039 9 -12657369.980 9  19755061.140    19755061.767    19755066.760
      1788.823        1393.888
  -4222647.853 9  -3249391.18247  23178201.888    23178202.0724   23178209.0494
      -531.164        -413.894
 -19286930.873 9 -15004083.44648  21379291.699    21379292.1614   21379298.6214
      2992.260        2331.631
  -7549492.915 9  -5872228.03348  19833946.992    19833947.7364   19833953.3354
       716.432         558.259
   5163259.169 9   4025801.65947  21578602.597    21578604.0304   21578610.8734
     -2283.707       -1779.512
  -2560492.862 9  -1984239.55547  22103282.226    22103283.9664   22103289.3714
     -1163.520        -906.639
 -10932328.836 9  -8033885.18548  19844937.166    19844937.6104   19844943.2474
       936.717         729.909
 -14667835.731 9 -11413229.75747  22587173.226    22587175.6504   22587181.6724
      4114.297        3205.946
 96 10  9 16 48 29.9970000  0  8 28 22 21 17  6 26 23  3            -0.002553587
 -16324349.842 9 -12698923.345 9  19744913.182    19744914.028    19744919.091
      1766.427        1376.437
  -4206486.736 9  -3236798.14247  23181277.394    23181277.3834   23181284.3924
      -546.263        -425.659
 -19376499.764 9 -15073877.37148  21362247.238    21362247.7554   21362254.2374
      2979.235        2321.482
  -7570795.367 9  -5888827.35348  19829893.499    19829894.0944   19829899.6004
       703.921         548.510
   5231974.614 9   4079346.11747  21591677.522    21591680.1484   21591687.1384
     -2297.166       -1789.999
  -2525303.405 9  -1956819.21547  22109979.642    22109980.3884   22109985.6764
     -1182.302        -921.274
 -10960191.478 9  -8055596.32948  19839635.043    19839635.4874   19839641.1724
       920.997         717.660
 -14791090.880 9 -11509272.70547  22563719.523    22563721.1404   22563726.9804
      4102.692        3196.903
 96 10  9 16 48 59.9970000  0  8 28 22 21 17  6 26 23  3            -0.002571867
 -16377016.141 9 -12739962.032 9  19734891.333    19734891.931    19734897.079
      1745.607        1360.213
  -4189873.640 9  -3223852.89147  23184438.443    23184438.6604   23184445.6894
      -560.193        -436.514
 -19465694.751 9 -15143379.93648  21345274.095    21345274.4834   21345280.9734
      2968.122        2312.822
  -7591735.228 9  -5905144.13948  19825908.983    19825909.4264   19825914.9324
       693.057         540.044
   5301077.547 9   4133192.49647  21604828.842    21604830.0834   21604837.1204
     -2308.834       -1799.091
  -2489566.731 9  -1928972.47547  22116780.625    22116781.0104   22116786.1374
     -1199.110        -934.371
 -10987602.201 9  -8076955.34948  19834418.894    19834419.4584   19834425.0464
       907.411         707.074
 -14914004.158 9 -11605049.25747  22540330.814    22540331.5764   22540337.4144
      4092.518        3188.975
 96 10  9 16 49 29.9970000  0  8 28 22 21 17  6 26 23  3            -0.002590127
 -16429058.309 9 -12780514.375 9  19724987.796    19724988.697    19724993.754
      1724.733        1343.948
  -4172847.595 9  -3210585.86847  23187677.776    23187678.7184   23187685.6394
      -574.002        -447.274
 -19554564.547 9 -15212629.11548  21328362.818    21328363.1614   21328369.5794
      2957.531        2304.570
  -7612350.922 9  -5921208.32848  19821985.889    19821986.4474   19821992.0004
       682.356         531.706
   5370524.839 9   4187307.22047  21618044.844    21618045.5734   21618052.5184
     -2320.079       -1807.854
  -2453330.993 9  -1900736.85347  22123676.418    22123676.4534   22123681.5694
     -1215.851        -947.416
 -11014608.526 9  -8097999.23148  19829279.864    19829280.2874   19829285.9014
       893.941         696.577
 -15036617.650 9 -11700592.21847  22516998.706    22516999.0214   22517004.8854
      4082.555        3181.212
 96 10  9 16 49 59.9970000  0  8 28 22 21 17  6 26 23  3            -0.002608377
 -16480493.515 9 -12820593.761 9  19715199.913    19715200.894    19715206.000
      1704.158        1327.915
  -4155432.932 9  -3197016.04147  23190992.303    23190992.6754   23190999.6424
      -587.001        -457.403
 -19643139.948 9 -15281648.88048  21311507.263    21311507.8304   21311514.2804
      2947.443        2296.709
  -7632668.745 9  -5937040.40448  19818119.622    19818120.0424   19818125.6624
       672.140         523.745
   5440290.057 9   4241669.67047  21631319.859    21631321.5514   21631328.3464
     -2331.005       -1816.368
  -2416610.152 9  -1872123.23247  22130664.419    22130664.2394   22130669.3624
     -1232.371        -960.289
 -11041236.691 9  -8118748.44548  19824212.482    19824213.1134   19824218.7754
       881.176         686.631
 -15158949.436 9 -11795915.67047  22493719.713    22493719.8544   22493725.8984
      4072.865        3173.661
 96 10  9 16 50 29.9970000  0  8 28 22 21 17  6 26 23  3            -0.002626595
 -16531290.735 9 -12860176.020 9  19705533.737    19705534.456    19705539.602
      1681.947        1310.608
  -4137609.610 9  -3183127.76847  23194384.028    23194384.2524   23194391.3794
      -601.677        -468.839
 -19731397.525 9 -15350421.01548  21294712.879    21294712.9844   21294719.3344
      2935.996        2287.789
  -7652669.672 9  -5952625.56148  19814313.634    19814313.9664   19814319.6024
       660.847         514.946
   5510407.974 9   4296306.95547  21644662.569    21644664.5744   21644671.3164
     -2343.761       -1826.307
  -2379367.887 9  -1843103.30547  22137751.138    22137751.1894   22137756.2984
     -1250.790        -974.642
 -11067462.943 9  -8139184.48848  19819222.008    19819222.4384   19819228.0734
       866.963         675.556
 -15280973.029 9 -11890998.99247  22470499.291    22470499.2584   22470505.5464
      4061.552        3164.846
 96 10  9 16 50 59.9970000  0  8 28 22 21 17  6 26 23  3            -0.002644779
 -16581462.877 9 -12899271.197 9  19695986.233    19695986.994    19695992.129
      1662.478        1295.437
  -4119393.751 9  -3168933.63246  23197850.379    23197850.5764   23197857.7264
      -612.830        -477.530
 -19819351.258 9 -15418956.37448  21277975.757    21277975.9474   21277982.3454
      2927.112        2280.866
  -7672372.192 9  -5967978.18548  19810564.497    19810564.6944   19810570.3744
       652.222         508.225
   5580858.792 9   4351203.64547  21658069.594    21658070.8914   21658077.6854
     -2353.374       -1833.798
  -2341612.143 9  -1813683.26347  22144935.542    22144935.8994   22144941.0084
     -1266.538        -986.913
 -11093313.523 9  -8159327.79748  19814302.910    19814303.2474   19814308.8794
       856.014         667.024
 -15402690.319 9 -11985843.62746  22447336.114    22447336.9664   22447343.4954
      4052.534        3157.819
 96 10  9 16 51 29.9970000  0  8 28 22 21 17  6 26 23  3            -0.002662934
 -16631010.434 9 -12937879.694 9  19686557.627    19686558.453    19686563.610
      1640.774        1278.525
  -4100815.870 9  -3154457.38446  23201386.474    23201385.9224   23201392.9504
      -625.587        -487.470
 -19906994.938 9 -15487250.13148  21261297.667    21261297.8844   21261304.3464
      2915.870        2272.106
  -7691779.499 9  -5983100.77948  19806871.459    19806871.6784   19806877.2614
       641.751         500.066
   5651635.531 9   4406354.29147  21671537.882    21671539.2044   21671546.1224
     -2364.951       -1842.819
  -2303343.605 9  -1783863.64447  22152217.316    22152218.1484   22152223.3754
     -1284.617       -1001.000
 -11118799.172 9  -8179186.74748  19809452.877    19809453.4514   19809459.1274
       843.124         656.980
 -15524094.881 9 -12080444.58146  22424232.861    22424234.2794   22424240.9454
      4041.100        3148.909
 96 10  9 16 51 59.9970000  0  8 28 22 21 17  6 26 23  3            -0.002681071
 -16679949.637 9 -12976014.145 9  19677244.996    19677245.601    19677250.785
      1620.324        1262.590
  -4081902.638 9  -3139719.79946  23204985.093    23204985.1254   23204991.8864
      -636.790        -496.200
 -19994343.119 9 -15555313.63148  21244675.840    21244676.0424   21244682.5354
      2905.747        2264.218
  -7710917.958 9  -5998013.87148  19803229.665    19803229.8074   19803235.3474
       632.513         492.867
   5722716.221 9   4461741.78147  21685063.076    21685065.4174   21685072.4764
     -2375.224       -1850.824
  -2264577.541 9  -1753656.34447  22159594.365    22159595.1144   22159600.3754
     -1301.201       -1013.923
 -11143941.862 9  -8198778.46448  19804668.476    19804669.0154   19804674.6294
       831.479         647.906
 -15645192.166 9 -12174806.11447  22401188.384    22401190.2454   22401196.9214
      4030.485        3140.638
 96 10  9 16 52 29.9970000  0  8 28 22 21 17  6 26 23  3            -0.002699170
 -16728257.882 9 -13013656.936 9  19668052.245    19668052.841    19668058.070
      1600.000        1246.753
  -4062632.838 9  -3124704.40446  23208652.514    23208651.9724   23208658.9074
      -648.026        -504.955
 -20081362.959 9 -15623121.28248  21228116.396    21228116.7004   21228123.1704
      2895.266        2256.051
  -7729759.874 9  -6012695.90348  19799644.136    19799644.3104   19799649.9074
       623.198         485.609
   5794122.151 9   4517382.70947  21698651.044    21698653.5724   21698660.7274
     -2385.425       -1858.773
  -2225299.481 9  -1723050.10047  22167069.026    22167069.5644   22167074.7594
     -1317.403       -1026.548
 -11168714.725 9  -8218081.99148  19799954.427    19799954.8954   19799960.5334
       819.810         638.813
 -15765946.776 9 -12268900.58446  22378209.210    22378211.4334   22378217.9374
      4019.443        3132.034
 96 10  9 16 52 59.9970000  0  8 28 22 21 17  6 26 23  3            -0.002717236
 -16775942.884 9 -13050814.095 9  19658977.944    19658978.666    19658983.906
      1579.508        1230.785
  -4043019.814 9  -3109421.55346  23212385.340    23212384.2124   23212391.4284
      -659.196        -513.659
 -20168050.519 9 -15690670.01848  21211620.187    21211620.6384   21211627.0414
      2884.505        2247.666
  -7748302.225 9  -6027144.50148  19796115.561    19796115.8314   19796121.4704
       613.404         477.977
   5865851.532 9   4573275.66847  21712301.979    21712303.3004   21712310.4864
     -2396.160       -1867.138
  -2185529.766 9  -1692060.74247  22174636.340    22174637.4474   22174642.7704
     -1333.358       -1038.980
 -11193124.674 9  -8237102.73448  19795309.344    19795309.8224   19795315.4754
       807.947         629.569
 -15886353.412 9 -12362723.93547  22355296.739    22355298.8824   22355305.0604
      4008.255        3123.316
 96 10  9 16 53 29.9970000  0  8 28 22 21 17  6 26 23  3            -0.002735273
 -16823008.547 9 -13087488.643 9  19650021.741    19650022.325    19650027.557
      1558.123        1214.122
  -4023055.396 9  -3093864.90546  23216184.547    23216183.3904   23216190.6784
      -671.942        -523.591
 -20254416.056 9 -15757967.81248  21195185.172    21195185.7804   21195192.2444
      2873.338        2238.965
  -7766544.457 9  -6041359.23648  19792644.344    19792644.4744   19792650.1154
       602.646         469.594
   5937911.850 9   4629426.49347  21726015.228    21726016.0504   21726023.0734
     -2407.990       -1876.356
  -2145275.155 9  -1660693.54547  22182296.080    22182297.6044   22182303.0524
     -1350.446       -1052.295
 -11217167.329 9  -8255837.27648  19790734.273    19790734.6894   19790740.3094
       794.821         619.341
 -16006422.674 9 -12456284.39147  22332448.775    22332450.4564   22332456.4824
      3996.334        3114.026
 96 10  9 16 53 59.9970000  0  8 28 22 21 17  6 26 23  3            -0.002753274
 -16869455.937 9 -13123681.419 9  19641182.996    19641183.708    19641188.945
      1536.775        1197.487
  -4002731.146 9  -3078027.86746  23220051.515    23220051.0454   23220058.1404
      -684.564        -533.426
 -20340479.997 9 -15825030.61348  21178807.996    21178808.4174   21178814.8304
      2862.633        2230.623
  -7784478.885 9  -6055334.13448  19789231.490    19789231.6744   19789237.3384
       591.317         460.766
   6010313.478 9   4685843.29547  21739792.979    21739793.7714   21739800.4854
     -2420.422       -1886.043
  -2104524.998 9  -1628940.21047  22190049.829    22190052.0024   22190057.5664
     -1367.801       -1065.819
 -11240838.512 9  -8274282.35748  19786229.686    19786230.1864   19786235.8494
       781.752         609.157
 -16126161.502 9 -12549587.35947  22309663.971    22309664.9524   22309670.9164
      3984.653        3104.924
 96 10  9 16 54 29.9970000  0  8 28 22 21 17  6 26 23  3            -0.002771238
 -16915291.573 9 -13159397.508 9  19632460.850    19632461.510    19632466.763
      1517.371        1182.367
  -3982060.524 9  -3061920.91846  23223985.168    23223984.4814   23223991.5954
      -695.032        -541.583
 -20426258.806 9 -15891871.22348  21162484.883    21162485.2894   21162491.7384
      2854.499        2224.285
  -7802097.088 9  -6069062.61248  19785878.993    19785879.0964   19785884.7014
       581.727         453.294
   6083056.514 9   4742526.13247  21753636.667    21753636.4264   21753642.9444
     -2430.585       -1893.962
  -2063283.090 9  -1596803.69147  22197897.748    22197900.0854   22197905.5514
     -1383.172       -1077.796
 -11264149.181 9  -8292446.51448  19781793.863    19781794.3304   19781799.9564
       770.787         600.613
 -16245582.356 9 -12642642.57847  22286939.458    22286939.9574   22286946.0054
      3975.146        3097.516
 96 10  9 16 54 59.9970000  0  8 28 22 21 17  6 26 23  3            -0.002789156
 -16960484.130 9 -13194612.503 9  19623861.150    19623861.656    19623866.916
      1496.279        1165.932
  -3961019.323 9  -3045525.20646  23227989.148    23227988.5804   23227995.6384
      -706.973        -550.888
 -20511741.061 9 -15958480.75348  21146217.893    21146218.4244   21146224.9474
      2845.151        2217.001
  -7819366.422 9  -6082519.24748  19782592.637    19782592.8584   19782598.4214
       570.401         444.468
   6156158.625 9   4799488.75847  21767547.547    21767547.3574   21767553.9204
     -2441.912       -1902.789
  -2021516.246 9  -1564258.12347  22205845.627    22205848.1234   22205853.4724
     -1400.423       -1091.239
 -11287068.572 9  -8310305.79248  19777432.601    19777432.9604   19777438.5734
       757.913         590.582
 -16364658.482 9 -12735429.17547  22264280.105    22264280.5824   22264286.7974
      3964.165        3088.960
 96 10  9 16 55 29.9970000  0  8 28 22 21 17  6 26 23  3            -0.002807048
 -17005054.406 9 -13229342.595 9  19615379.633    19615380.249    19615385.527
      1475.578        1149.801
  -3939634.524 9  -3028861.75446  23232057.560    23232058.0234   23232065.1524
      -717.999        -559.480
 -20596956.887 9 -16024882.68248  21130001.851    21130002.3534   21130008.9154
      2836.356        2210.148
  -7836311.448 9  -6095723.17748  19779368.098    19779368.3944   19779373.9124
       559.921         436.302
   6229579.389 9   4856699.67547  21781518.166    21781518.8434   21781525.5144
     -2452.180       -1910.790
  -1979243.022 9  -1531317.97747  22213890.112    22213892.3854   22213897.8764
     -1417.153       -1104.275
 -11309613.275 9  -8327873.10048  19773142.366    19773142.8434   19773148.4434
       745.688         581.056
 -16483415.466 9 -12827967.08147  22241681.419    22241681.9644   22241688.2984
      3953.390        3080.564
 96 10  9 16 55 59.9970000  0  8 28 22 21 17  6 26 23  3            -0.002824897
 -17048969.516 9 -13263562.168 9  19607022.867    19607023.525    19607028.759
      1453.902        1132.911
  -3917898.661 9  -3011924.75746  23236195.061    23236194.2764   23236201.4134
      -729.230        -568.231
 -20681868.417 9 -16091047.48848  21113843.711    21113844.2044   21113850.8084
      2826.037        2202.107
  -7852912.632 9  -6108659.18448  19776208.745    19776209.2614   19776214.8344
       548.694         427.554
   6303338.542 9   4914174.28747  21795553.969    21795554.7144   21795561.5284
     -2463.012       -1919.230
  -1936447.880 9  -1497971.15047  22222034.316    22222036.0424   22222041.7174
     -1433.855       -1117.290
 -11331759.536 9  -8345129.93048  19768928.112    19768928.5184   19768934.1524
       732.477         570.761
 -16601812.452 9 -12920224.46247  22219151.087    22219151.8064   22219158.1384
      3941.399        3071.220
 96 10  9 16 56 29.9970000  0  8 28 22 21 17  6 26 23  3            -0.002842754
 -17092274.547 9 -13297306.363 9  19598782.500    19598782.875    19598788.074
      1432.805        1116.471
  -3895862.564 9  -2994753.80946  23240387.084    23240387.4914   23240394.7374
      -740.222        -576.796
 -20766501.170 9 -16156995.06348  21097738.651    21097739.1194   21097745.8154
      2815.767        2194.104
  -7869227.410 9  -6121372.01548  19773104.098    19773104.6584   19773110.2144
       538.710         419.774
   6377363.649 9   4971856.13847  21809641.050    21809641.3084   21809648.0854
     -2472.255       -1926.432
  -1893207.435 9  -1464277.32547  22230263.385    22230264.5504   22230270.1324
     -1449.041       -1129.123
 -11353542.821 9  -8362103.91848  19764782.990    19764783.3294   19764788.9534
       719.451         560.611
 -16719879.095 9 -13012224.44247  22196683.791    22196684.5074   22196690.7744
      3929.395        3061.866
 96 10  9 16 56 59.9970000  0  8 28 22 21 17  6 26 23  3            -0.002860608
 -17134951.639 9 -13330561.248 9  19590661.209    19590661.769    19590666.881
      1412.087        1100.328
  -3873501.623 9  -2977329.74246  23244642.996    23244642.6834   23244649.7294
      -750.760        -585.008
 -20850817.589 9 -16222696.17048  21081693.980    21081694.3084   21081700.8494
      2805.079        2185.776
  -7885250.414 9  -6133857.48448  19770055.274    19770055.6424   19770061.1904
       529.218         412.378
   6451659.879 9   5029749.23947  21823779.703    21823779.5294   21823786.2534
     -2481.125       -1933.344
  -1849524.384 9  -1430238.61047  22238576.132    22238577.1514   22238582.6964
     -1463.318       -1140.248
 -11374940.524 9  -8378777.45648  19760710.986    19760711.4684   19760717.1034
       706.867         550.805
 -16837590.199 9 -13103947.37447  22174284.684    22174284.9234   22174291.0704
      3917.744        3052.788
 96 10  9 16 57 29.9970000  0  8 28 22 21 17  6 26 23  3            -0.002878456
 -17176987.826 9 -13363316.726 9  19582662.190    19582662.539    19582667.666
      1391.442        1084.241
  -3850804.194 9  -2959643.47446  23248962.229    23248961.9284   23248968.8914
      -761.265        -593.193
 -20934791.545 9 -16288130.40848  21065713.972    21065714.5254   21065721.0184
      2794.328        2177.398
  -7900973.480 9  -6146109.23348  19767063.006    19767063.6054   19767069.2544
       520.090         405.265
   6526245.060 9   5087867.48647  21837973.101    21837972.6654   21837979.4114
     -2490.188       -1940.406
  -1805398.756 9  -1395855.03047  22246972.408    22246973.8984   22246979.5854
     -1477.312       -1151.152
 -11395950.888 9  -8395149.17248  19756712.967    19756713.3174   19756718.9854
       695.018         541.572
 -16954928.155 9 -13195379.53247  22151955.626    22151956.3054   22151962.3624
      3905.879        3043.542
 96 10  9 16 57 59.9970000  0  8 28 22 21 17  6 26 23  3            -0.002896286
 -17218381.424 9 -13395571.492 9  19574785.299    19574785.597    19574790.739
      1368.071        1066.029
  -3827766.865 9  -2941692.35346  23253345.823    23253345.7414   23253352.9074
      -774.664        -603.634
 -21018419.264 9 -16353294.85948  21049800.107    21049800.6514   21049807.0994
      2780.808        2166.863
  -7916395.655 9  -6158126.52648  19764128.464    19764128.8734   19764134.5004
       507.883         395.753
   6601128.636 9   5146218.26347  21852222.616    21852222.6274   21852229.3264
     -2502.133       -1949.714
  -1760828.633 9  -1361125.08847  22255453.664    22255455.3474   22255461.0864
     -1494.161       -1164.281
 -11416579.601 9  -8411223.49348  19752787.251    19752787.7384   19752793.4594
       680.141         529.980
 -17071893.101 9 -13286521.04947  22129698.053    22129698.6384   22129704.7444
      3891.691        3032.486
 96 10  9 16 58 29.9970000  0  8 28 22 21 17  6 26 23  3            -0.002914099
 -17259140.049 9 -13427331.466 9  19567029.085    19567029.488    19567034.677
      1348.643        1050.891
  -3804389.533 9  -2923476.29746  23257794.664    23257794.3634   23257801.5744
      -784.344        -611.177
 -21101713.531 9 -16418199.45848  21033949.620    21033950.2224   21033956.7664
      2771.708        2159.772
  -7931513.329 9  -6169906.54348  19761251.521    19761252.0364   19761257.6704
       499.383         389.130
   6676307.196 9   5204798.88947  21866527.756    21866528.7074   21866535.3904
     -2510.338       -1956.108
  -1715808.272 9  -1326044.31247  22264021.268    22264022.5934   22264028.2954
     -1507.782       -1174.895
 -11436829.969 9  -8427003.01448  19748933.996    19748934.2814   19748939.9144
       669.513         521.698
 -17188499.308 9 -13377383.02247  22107508.047    22107509.1684   22107515.3744
      3881.733        3024.727
 96 10  9 16 58 59.9970000  0  8 28 22 21 17  6 26 23  3            -0.002931901
 -17299290.584 9 -13458617.606 9  19559388.402    19559389.012    19559394.305
      1327.162        1034.152
  -3780704.888 9  -2905020.75946  23262302.058    23262301.6334   23262308.5504
      -795.507        -619.875
 -21184720.753 9 -16482880.40648  21018154.357    21018154.5244   21018161.0694
      2761.258        2151.630
  -7946345.651 9  -6181464.20448  19758429.215    19758429.5604   19758435.2194
       488.609         380.734
   6751763.054 9   5263595.60747  21880886.565    21880887.4764   21880894.2934
     -2520.834       -1964.286
  -1670343.036 9  -1290616.88747  22272672.371    22272674.3714   22272680.0504
     -1524.206       -1187.693
 -11456745.156 9  -8442521.34348  19745144.122    19745144.5344   19745150.2174
       657.331         512.206
 -17304795.521 9 -13468003.43247  22085377.701    22085378.7414   22085384.9504
      3870.359        3015.864
 96 10  9 16 59 29.9970000  0  8 28 22 21 17  6 26 23  3            -0.002949655
 -17338788.146 9 -13489394.938 9  19551872.248    19551872.874    19551878.133
      1306.086        1017.729
  -3756677.200 9  -2886297.90246  23266874.417    23266873.9224   23266880.8364
      -806.226        -628.228
 -21267408.183 9 -16547312.15048  21002418.864    21002419.5724   21002426.2124
      2751.317        2143.883
  -7960849.641 9  -6192766.02248  19755669.155    19755669.5574   19755675.3044
       478.299         372.701
   6827547.498 9   5322648.35247  21895308.143    21895308.7154   21895315.7344
     -2531.393       -1972.514
  -1624368.309 9  -1254792.45247  22281421.685    22281422.9934   22281428.7304
     -1540.697       -1200.543
 -11476290.665 9  -8457751.60948  19741424.714    19741425.1194   19741430.7744
       645.757         503.187
 -17420737.416 9 -13558347.76147  22063314.751    22063315.7934   22063321.9474
      3859.255        3007.212
 96 10  9 16 59 59.9970000  0  8 28 22 21 17  6 26 23  3            -0.002967371
 -17377647.876 9 -13519675.255 9  19544477.394    19544478.147    19544483.414
      1285.088        1001.367
  -3732321.462 9  -2867319.44146  23271509.769    23271508.5704   23271515.5234
      -816.854        -636.510
 -21349791.558 9 -16611506.97148  20986742.051    20986742.4904   20986749.1174
      2741.439        2136.186
  -7975031.900 9  -6203817.14948  19752970.270    19752970.7854   19752976.5124
       467.687         364.431
   6903658.977 9   5381955.92147  21909791.648    21909792.2614   21909799.4344
     -2542.102       -1980.859
  -1577898.082 9  -1218581.91047  22290263.532    22290265.9334   22290271.6774
     -1556.707       -1213.018
 -11495476.140 9  -8472701.33748  19737773.999    19737774.3034   19737779.9244
       633.890         493.940
 -17536346.017 9 -13648432.39047  22041315.784    22041316.3224   22041322.2934
      3848.332        2998.700
 96 10  9 17  0 29.9970000  0  8 28 22 21 17  6 26 23  3            -0.002985047
 -17415865.475 9 -13549455.212 9  19537204.988    19537205.600    19537210.856
      1262.006         983.381
  -3707639.110 9  -2848086.50246  23276205.645    23276205.2244   23276212.4464
      -829.292        -646.202
 -21431867.065 9 -16675461.90548  20971123.441    20971124.0884   20971130.5374
      2729.516        2126.896
  -7988883.369 9  -6214610.52048  19750334.466    19750334.9084   19750340.6574
       455.097         354.621
   6980098.938 9   5441519.45347  21924337.745    21924338.4044   21924345.6624
     -2554.555       -1990.562
  -1530942.873 9  -1181993.47247  22299198.944    22299201.3824   22299206.9124
     -1574.195       -1226.645
 -11514301.413 9  -8487370.36948  19734191.287    19734191.8654   19734197.6134
       620.425         483.448
 -17651604.454 9 -13738244.14347  22019382.734    22019383.3074   22019389.2074
      3834.843        2988.189
 96 10  9 17  0 59.9970000  0  8 28 22 21 17  6 26 23  3            -0.003002673
 -17453428.412 9 -13578725.044 9  19530056.956    19530057.583    19530062.860
      1242.438         968.134
  -3682623.555 9  -2828593.89146  23280966.487    23280965.7284   23280972.6944
      -838.087        -653.055
 -21513616.543 9 -16739162.78748  20955567.320    20955567.7124   20955574.0784
      2720.662        2119.996
  -8002394.616 9  -6225138.78448  19747763.621    19747763.8474   19747769.5894
       445.973         347.511
   7056878.663 9   5501347.75747  21938948.543    21938949.1604   21938956.4704
     -2563.794       -1997.762
  -1483508.075 9  -1145031.33047  22308225.405    22308228.0024   22308233.5214
     -1587.711       -1237.177
 -11532763.335 9  -8501756.28948  19730678.108    19730678.6554   19730684.3714
       610.573         475.771
 -17766491.848 9 -13827766.77647  21997520.190    21997520.8204   21997526.8264
      3824.351        2980.014
 96 10  9 17  1 29.9960000  0  8 28 22 21 17  6 26 23  3            -0.003020256
 -17490354.720 9 -13607498.798 9  19523030.132    19523030.786    19523035.995
      1219.593         950.332
  -3657292.283 9  -2808855.26246  23285787.818    23285786.2094   23285793.0824
      -850.523        -662.745
 -21595040.398 9 -16802609.93148  20940072.708    20940073.2074   20940079.6194
      2708.099        2110.207
  -8015583.356 9  -6235415.73548  19745254.033    19745254.1144   19745259.8644
       433.371         337.692
   7133982.631 9   5561428.68947  21953621.608    21953621.5634   21953628.8864
     -2576.318       -2007.521
  -1435632.852 9  -1107725.97547  22317336.341    22317338.2994   22317343.9234
     -1603.766       -1249.688
 -11550877.266 9  -8515871.05248  19727231.320    19727231.7744   19727237.4124
       597.312         465.438
 -17880996.832 9 -13916991.43347  21975730.337    21975731.1414   21975737.2224
      3809.821        2968.692
 96 10  9 17  1 59.9960000  0  8 28 22 21 17  6 26 23  3            -0.003037801
 -17526638.235 9 -13635771.673 9  19516125.522    19516126.289    19516131.528
      1199.778         934.892
  -3631631.533 9  -2788859.91246  23290669.976    23290669.3044   23290676.2464
      -859.673        -669.875
 -21676138.531 9 -16865803.27148  20924640.144    20924640.7554   20924647.1824
      2698.960        2103.086
  -8028435.821 9  -6245430.65148  19742808.192    19742808.3734   19742814.1094
       424.047         330.426
   7211411.055 9   5621762.44746  21968356.436    21968355.6614   21968362.9684
     -2584.779       -2014.114
  -1387324.656 9  -1070083.25347  22326529.112    22326530.9814   22326536.7234
     -1616.361       -1259.502
 -11568636.762 9  -8529709.62148  19723851.757    19723852.2384   19723857.8544
       587.172         457.537
 -17995105.589 9 -14005907.33847  21954016.056    21954016.9684   21954023.0414
      3797.773        2959.304
 96 10  9 17  2 29.9960000  0  8 28 22 21 17  6 26 23  3            -0.003055321
 -17562302.176 9 -13663561.772 9  19509338.946    19509339.681    19509344.939
      1177.496         917.529
  -3605672.583 9  -2768632.18346  23295609.308    23295609.0354   23295616.1794
      -871.226        -678.877
 -21756942.190 9 -16928767.14148  20909263.797    20909264.3444   20909270.7974
      2687.673        2094.291
  -8040990.789 9  -6255213.75248  19740418.983    19740419.2344   19740425.0454
       412.637         321.535
   7289102.906 9   5682301.47947  21983140.981    21983139.9654   21983147.1264
     -2595.050       -2022.117
  -1338607.052 9  -1032121.50247  22335799.838    22335801.7044   22335807.3534
     -1631.806       -1271.537
 -11586075.932 9  -8543298.58148  19720533.265    19720533.6414   19720539.2524
       575.091         448.123
 -18108818.891 9 -14094515.09747  21932377.360    21932378.0464   21932384.1324
      3782.957        2947.759
 96 10  9 17  2 59.9960000  0  9  1 28 22 21 17  6 26 23  3         -0.003072797
   -433991.81819   -309895.49656  23261458.824           0.0005   23261467.1465
      4605.645        3588.814
 -17597330.625 9 -13690856.671 9  19502673.423    19502674.036    19502679.296
      1156.315         901.025
  -3579393.598 9  -2748155.09846  23300612.077    23300609.9444   23300617.0364
      -882.053        -687.314
 -21837442.905 9 -16991494.95748  20893945.141    20893945.5144   20893951.9714
      2677.527        2086.385
  -8053232.622 9  -6264752.85648  19738089.660    19738089.7194   19738095.5614
       402.041         313.279
   7367072.749 9   5743057.12547  21997978.277    21997977.2814   21997984.2204
     -2604.265       -2029.297
  -1289453.263 9   -993819.89947  22345154.070    22345155.4624   22345161.0184
     -1646.580       -1283.049
 -11603182.134 9  -8556628.08748  19717278.025    19717278.4544   19717284.1004
       563.918         439.417
 -18222126.797 9 -14182806.95647  21910816.354    21910816.3014   21910822.3044
      3769.389        2937.186
 96 10  9 17  3 29.9960000  0  9  1 28 22 21 17  6 26 23  3         -0.003090227
   -572130.154 9   -417535.70046  23235175.828    23235172.7695   23235181.0044
      4603.940        3587.486
 -17631697.460 9 -13717636.032 9  19496133.773    19496134.250    19496139.539
      1135.233         884.597
  -3552761.924 9  -2727403.18646  23305679.075    23305677.7604   23305684.9154
      -892.811        -695.697
 -21917611.501 9 -17053963.99248  20878689.717    20878690.0034   20878696.3144
      2667.615        2078.661
  -8065135.263 9  -6274027.65648  19735824.685    19735824.7204   19735830.5214
       391.974         305.434
   7445331.270 9   5804037.74047  22012870.250    22012869.5104   22012876.3604
     -2612.559       -2035.760
  -1239826.041 9   -955149.37047  22354597.253    22354599.1964   22354604.7014
     -1661.457       -1294.642
 -11619928.064 9  -8569676.86748  19714091.334    19714091.8114   19714097.4054
       552.991         430.902
 -18335002.872 9 -14270762.33447  21889336.766    21889336.6294   21889342.6434
      3756.295        2926.983
 96 10  9 17  3 59.9960000  0  9  1 28 22 21 17  6 26 23  3         -0.003107631
   -710200.598 9   -525122.99956  23208900.052    23208898.7504   23208906.9175
      4601.578        3585.645
 -17665419.275 9 -13743912.779 9  19489716.870    19489717.234    19489722.489
      1113.853         867.937
  -3525802.013 9  -2706395.49446  23310807.609    23310807.9354   23310815.1724
      -903.531        -704.050
 -21997482.916 9 -17116201.44848  20863490.673    20863490.9854   20863497.2854
      2657.985        2071.157
  -8076729.821 9  -6283062.38948  19733618.203    19733618.4014   19733624.1734
       381.938         297.614
   7523844.298 9   5865216.65847  22027810.832    22027810.1344   22027816.9024
     -2620.707       -2042.109
  -1189736.501 9   -916118.59547  22364129.040    22364130.8834   22364136.2814
     -1676.872       -1306.654
 -11636331.183 9  -8582458.52548  19710969.919    19710970.3774   19710975.9554
       541.347         421.829
 -18447485.341 9 -14358411.01347  21867931.567    21867931.8444   21867937.9554
      3743.522        2917.030
 96 10  9 17  4 29.9960000  0  9  1 28 22 21 17  6 26 23  3         -0.003125016
   -848192.824 9   -632649.34146  23182640.261    23182639.7075   23182647.7274
      4597.803        3582.704
 -17698502.971 9 -13769692.290 9  19483421.285    19483421.620    19483426.882
      1091.678         850.658
  -3498526.893 9  -2685142.18846  23315997.629    23315998.3264   23316005.5984
      -914.821        -712.848
 -22077062.334 9 -17178211.36748  20848347.159    20848347.5314   20848353.8564
      2647.215        2062.765
  -8088020.953 9  -6291860.68848  19731469.250    19731469.7794   19731475.5794
       370.662         288.827
   7602604.442 9   5926588.13647  22042798.332    22042797.8044   22042804.5094
     -2630.096       -2049.425
  -1139185.439 9   -876728.19147  22373747.968    22373750.4654   22373755.8354
     -1693.026       -1319.241
 -11652379.622 9  -8594963.81048  19707916.141    19707916.4994   19707922.0524
       528.454         411.782
 -18559595.867 9 -14445769.87047  21846597.097    21846597.9474   21846603.9874
      3730.631        2906.985
 96 10  9 17  4 59.9960000  0  9  1 28 22 21 17  6 26 23  3         -0.003142380
   -986096.421 9   -740106.63246  23156397.229    23156397.4004   23156405.6044
      4594.653        3580.249
 -17730949.870 9 -13794975.597 9  19477246.594    19477247.158    19477252.419
      1070.389         834.069
  -3470940.414 9  -2663646.25446  23321249.496    23321247.9534   23321255.1234
      -925.041        -720.811
 -22156342.231 9 -17239987.89248  20833260.422    20833261.0174   20833267.5064
      2636.940        2054.758
  -8098997.193 9  -6300413.62348  19729380.570    19729381.0534   19729386.9274
       360.151         280.637
   7681619.429 9   5988158.19147  22057834.143    22057833.9234   22057840.6154
     -2638.447       -2055.933
  -1088190.097 9   -836991.58147  22383452.293    22383454.6694   22383459.9764
     -1707.650       -1330.636
 -11668062.205 9  -8607184.00448  19704931.790    19704932.2274   19704937.7754
       516.073         402.135
 -18671357.267 9 -14532856.67247  21825329.598    21825330.5474   21825336.4394
      3718.862        2897.814
 96 10  9 17  5 29.9960000  0  9  1 28 22 21 17  6 26 23  3         -0.003159732
  -1123907.488 9   -847491.80646  23130173.690    23130172.7884   23130181.1304
      4591.537        3577.821
 -17762763.997 9 -13819765.829 9  19471192.527    19471193.145    19471198.441
      1049.328         817.658
  -3443066.166 9  -2641926.08646  23326553.653    23326552.2504   23326559.2854
      -934.211        -727.957
 -22235319.726 9 -17301528.78448  20818231.864    20818232.0514   20818238.5074
      2627.123        2047.109
  -8109673.736 9  -6308733.01548  19727348.792    19727349.4354   19727355.3024
       350.341         272.993
   7760874.374 9   6049915.22446  22072915.548    22072915.7394   22072922.4704
     -2646.634       -2062.312
  -1036767.488 9   -796922.05447  22393237.737    22393240.0334   22393245.3814
     -1721.586       -1341.495
 -11683380.529 9  -8619120.36148  19702016.586    19702017.2024   19702022.8104
       504.029         392.750
 -18782760.937 9 -14619664.71247  21804130.458    21804131.1614   21804137.0504
      3706.884        2888.481
 96 10  9 17  5 59.9960000  0 10  1 28 22 21 17  6 26 23  9  3      -0.003177071
  -1261599.508 9   -954784.22946  23103971.668    23103970.8304   23103979.1784
      4587.811        3574.918
 -17793933.769 9 -13844053.979 9  19465260.758    19465261.723    19465267.059
      1028.363         801.322
  -3414917.758 9  -2619992.30946  23331908.942    23331908.5954   23331915.8494
      -942.672        -734.550
 -22313990.058 9 -17362830.33848  20803261.279    20803261.6784   20803267.9524
      2617.186        2039.366
  -8120029.191 9  -6316802.21148  19725378.507    19725378.9224   19725384.6504
       339.622         264.641
   7840393.866 9   6111878.38946  22088048.163    22088047.8144   22088054.6664
     -2654.907       -2068.759
   -984914.573 9   -756517.21847  22403105.723    22403107.2454   22403112.5584
     -1735.515       -1352.349
 -11698324.300 9  -8630764.85648  19699172.962    19699173.4884   19699179.1304
       491.974         383.356
   -912161.48518   -475078.74055  24132818.070    24132817.2435   24132825.2815
      3061.366        2385.480
 -18893787.359 9 -14706178.79547  21783003.040    21783003.5104   21783009.4934
      3694.523        2878.849
 96 10  9 17  6 29.9960000  0 10  1 28 22 21 17  6 26 23  9  3      -0.003194386
  -1399164.172 9  -1061977.40846  23077793.883    23077793.0964   23077801.4424
      4582.896        3571.088
 -17824454.863 9 -13867836.653 9  19459452.923    19459453.758    19459459.026
      1005.894         783.814
  -3386495.035 9  -2597844.77846  23337317.519    23337317.2954   23337324.5744
      -952.459        -742.176
 -22392336.321 9 -17423879.36248  20788352.370    20788352.9024   20788359.1194
      2605.511        2030.268
  -8130038.208 9  -6324601.45148  19723473.768    19723474.2004   19723479.9864
       327.243         254.995
   7920180.212 9   6174049.49946  22103230.854    22103230.6194   22103237.6424
     -2664.562       -2076.282
   -932623.713 9   -715771.13747  22413057.316    22413057.8674   22413063.1644
     -1750.901       -1364.338
 -11712900.771 9  -8642123.15548  19696399.372    19696399.7314   19696405.3364
       479.570         373.691
  -1003918.295 9   -546577.55446  24115357.355    24115356.1784   24115364.6724
      3055.272        2380.731
 -19004420.707 9 -14792386.58847  21761949.797    21761950.6354   21761956.7444
      3680.589        2867.991
 96 10  9 17  6 59.9960000  0 10  1 28 22 21 17  6 26 23  9  3      -0.003211663
  -1536599.621 9  -1169069.88946  23051640.639    23051639.9304   23051648.3084
      4579.308        3568.292
 -17854312.676 9 -13891102.495 9  19453771.468    19453772.069    19453777.347
       984.380         767.049
  -3357798.766 9  -2575484.10246  23342778.752    23342778.1644   23342785.4984
      -960.805        -748.679
 -22470347.156 9 -17484667.01748  20773507.403    20773507.9264   20773514.1584
      2594.977        2022.060
  -8139684.881 9  -6332118.36548  19721637.732    19721638.3984   19721644.3334
       315.755         246.043
   8000238.496 9   6236432.49146  22118464.676    22118465.2534   22118472.3794
     -2672.879       -2082.763
   -879880.039 9   -674672.21547  22423095.324    22423094.8874   22423100.1294
     -1765.567       -1375.766
 -11727129.179 9  -8653210.22848  19693691.660    19693692.1744   19693697.7734
       468.897         365.374
  -1095498.661 9   -617938.85046  24097931.727    24097929.4394   24097937.5124
      3049.877        2376.528
 -19114642.352 9 -14878273.57747  21740975.380    21740976.1384   21740982.2604
      3667.065        2857.453
 96 10  9 17  7 29.9960000  0 10  1 28 22 21 17  6 26 23  9  3      -0.003228910
  -1673936.316 9  -1276085.42646  23025505.055    23025505.4914   23025513.8284
      4575.857        3565.603
 -17883532.903 9 -13913871.514 9  19448211.229    19448211.664    19448216.951
       962.899         750.311
  -3328860.705 9  -2552935.00846  23348286.236    23348285.0734   23348292.3444
      -969.294        -755.294
 -22548053.981 9 -17545217.77248  20758720.268    20758720.7614   20758727.0714
      2584.857        2014.174
  -8148994.887 9  -6339372.94048  19719866.300    19719866.8364   19719872.7314
       304.136         236.989
   8080537.059 9   6299002.72347  22133745.119    22133745.6424   22133752.8054
     -2680.966       -2089.064
   -826697.141 9   -633231.03747  22433215.481    22433215.4014   22433220.6494
     -1780.616       -1387.493
 -11741057.618 9  -8664063.56148  19691041.231    19691041.6544   19691047.2984
       458.886         357.574
  -1186925.082 9   -689180.23446  24080534.050    24080531.6804   24080539.6634
      3044.613        2372.426
 -19224459.071 9 -14963845.02747  21720078.051    21720078.7354   21720084.7904
      3653.440        2846.836
 96 10  9 17  7 59.9960000  0 10  1 28 22 21 17  6 26 23  9  3      -0.003246096
  -1811126.256 9  -1382986.61046  22999396.873    22999398.9814   22999407.2394
      4571.684        3562.351
 -17912064.821 9 -13936104.182 9  19442781.867    19442782.254    19442787.497
       940.645         732.970
  -3299618.015 9  -2530148.52246  23353850.533    23353849.7464   23353857.0454
      -978.904        -762.782
 -22625416.334 9 -17605500.09948  20743998.744    20743999.1664   20744005.5884
      2574.070        2005.769
  -8157907.518 9  -6346317.85548  19718170.366    19718170.9184   19718176.7894
       291.591         227.214
   8161111.173 9   6361787.68946  22149076.523    22149078.4454   22149085.5594
     -2689.038       -2095.354
   -773022.748 9   -591406.87247  22443429.866    22443429.2554   22443434.5124
     -1796.157       -1399.603
 -11754643.999 9  -8674650.35948  19688455.938    19688456.3004   19688461.9124
       448.154         349.211
  -1278148.461 8   -760263.38146  24063171.637    24063172.6474   24063180.5334
      3038.326        2367.527
 -19333831.944 9 -15049070.64047  21699265.086    21699265.8634   21699271.8054
      3639.482        2835.960
 96 10  9 17  8 29.9960000  0 10  1 28 22 21 17  6 26 23  9  3      -0.003263241
  -1948196.727 9  -1489794.68446  22973312.291    22973315.1924   22973323.4474
      4565.169        3557.274
 -17939929.442 9 -13957816.888 9  19437479.364    19437479.792    19437485.009
       915.814         713.621
  -3270084.696 9  -2507135.57846  23359469.467    23359469.7614   23359477.0194
      -990.977        -772.190
 -22702458.260 9 -17665532.75848  20729337.964    20729338.5814   20729344.9174
      2560.911        1995.515
  -8166457.856 9  -6352980.47948  19716543.420    19716543.7894   19716549.6634
       277.387         216.146
   8241925.580 9   6424759.87746  22164455.234    22164456.9894   22164464.1244
     -2699.879       -2103.802
   -718889.392 9   -549225.06147  22453730.244    22453730.3604   22453735.6114
     -1813.768       -1413.326
 -11767910.232 9  -8684987.69248  19685931.378    19685931.8134   19685937.4684
       434.926         338.903
  -1369180.418 8   -831197.37046  24045844.016    24045849.5804   24045857.7754
      3029.484        2360.637
 -19442789.052 9 -15133972.27347  21678531.601    21678532.0744   21678538.0524
      3623.038        2823.146
 96 10  9 17  8 59.9960000  0 10  1 28 22 21 17  6 26 23  9  3      -0.003280317
  -2085101.015 9  -1596473.27846  22947259.394    22947262.9224   22947271.1394
      4564.083        3556.428
 -17967083.714 9 -13978976.077 9  19432312.155    19432312.536    19432317.741
       896.693         698.722
  -3240224.021 9  -2483867.57946  23365151.278    23365151.9834   23365159.3394
      -997.574        -777.330
 -22779140.365 9 -17725285.05148  20714745.919    20714746.5564   20714752.6944
      2553.408        1989.668
  -8174619.735 9  -6359340.39648  19714990.157    19714990.6394   19714996.5294
       269.082         209.674
   8323041.699 9   6487967.17546  22179890.266    22179892.8594   22179900.0704
     -2705.775       -2108.396
   -664271.684 9   -506665.86947  22464123.846    22464123.8374   22464129.1034
     -1825.052       -1422.118
 -11780805.189 9  -8695035.71148  19683477.622    19683477.9594   19683483.6734
       426.887         332.639
  -1459991.304 8   -901959.01646  24028558.334    24028568.6034   24028576.9974
      3026.887        2358.613
 -19551277.058 9 -15218508.39047  21657887.264    21657887.4974   21657893.6044
      3611.601        2814.235
 96 10  9 17  9 29.9960000  0 10  1 28 22 21 17  6 26 23  9  3      -0.003297378
  -2221924.040 9  -1703088.54346  22921222.716    22921226.1974   22921234.3464
      4558.521        3552.094
 -17993612.216 9 -13999647.654 9  19427263.865    19427264.322    19427269.510
       873.061         680.307
  -3210110.439 9  -2460402.51446  23370882.241    23370882.5244   23370889.9684
     -1008.746        -786.036
 -22855542.333 9 -17784819.04348  20700207.411    20700207.7304   20700213.8214
      2541.370        1980.288
  -8182493.228 9  -6365475.59948  19713492.083    19713492.4404   19713498.3244
       256.905         200.186
   8404393.309 9   6551357.96246  22195372.276    22195373.4914   22195380.7474
     -2716.444       -2116.710
   -609271.644 9   -463808.73447  22474588.865    22474590.0714   22474595.5134
     -1840.415       -1434.090
 -11793402.796 9  -8704852.03248  19681080.505    19681080.7134   19681086.4384
       413.999         322.597
  -1550675.914 8   -972622.31646  24011302.963    24011311.8574   24011320.3584
      3019.999        2353.246
 -19659367.113 9 -15302734.40747  21637318.396    21637318.6654   21637324.8274
      3595.638        2801.796
 96 10  9 17  9 59.9960000  0 10  1 28 22 21 17  6 26 23  9  3      -0.003314412
  -2358638.369 9  -1809619.12446  22895207.894    22895210.1944   22895218.2144
      4554.542        3548.994
 -18019490.530 9 -14019812.580 9  19422339.159    19422339.865    19422345.028
       851.077         663.177
  -3179724.748 9  -2436725.39946  23376665.328    23376664.8854   23376672.2924
     -1017.954        -793.211
 -22931644.029 9 -17844119.04148  20685725.492    20685725.9754   20685732.2464
      2530.968        1972.183
  -8190055.342 9  -6371368.16248  19712053.185    19712053.4154   19712059.3364
       246.249         191.882
   8486013.512 9   6614958.03046  22210906.377    22210905.3584   22210912.5144
     -2726.073       -2124.213
   -553879.584 9   -420646.14047  22485129.457    22485130.8204   22485136.4584
     -1853.403       -1444.210
 -11805661.025 9  -8714403.90548  19678747.899    19678748.1074   19678753.8234
       402.147         313.361
  -1641212.850 8  -1043170.56346  23994083.482    23994083.1714   23994091.6864
      3014.734        2349.143
 -19767038.613 9 -15386634.27247  21616829.031    21616829.4994   21616835.5524
      3581.216        2790.558
 96 10  9 17 10 29.9960000  0 10  1 28 22 21 17  6 26 23  9  3      -0.003331416
  -2495224.007 9  -1916049.43846  22869216.386    22869218.7454   22869226.6114
      4550.295        3545.684
 -18044710.221 9 -14039464.302 9  19417540.045    19417540.704    19417545.894
       829.379         646.269
  -3149061.834 9  -2412832.25746  23382500.547    23382499.8224   23382507.1774
     -1027.099        -800.337
 -23007432.714 9 -17903175.14648  20671303.373    20671303.8764   20671310.2414
      2520.670        1964.158
  -8197307.765 9  -6377019.42348  19710672.703    19710673.3224   19710679.2594
       236.266         184.103
   8567927.250 9   6678786.84046  22226495.365    22226493.0264   22226500.1894
     -2735.714       -2131.725
   -498097.319 9   -377179.49547  22495744.052    22495745.7524   22495751.3624
     -1866.244       -1454.216
 -11817568.623 9  -8723682.56648  19676481.613    19676482.1294   19676487.8624
       390.884         304.585
  -1731593.087 8  -1113596.71146  23976887.729    23976884.6524   23976893.0484
      3009.679        2345.204
 -19874266.350 9 -15470188.34647  21596424.538    21596424.7394   21596430.5224
      3566.362        2778.983
 96 10  9 17 10 59.9960000  0 10  1 28 22 21 17  6 26 23  9  3      -0.003348398
  -2631704.697 9  -2022397.97246  22843245.142    22843247.2844   22843255.0504
      4547.044        3543.151
 -18069303.092 9 -14058627.590 9  19412860.216    19412860.854    19412866.049
       808.729         630.178
  -3118141.650 9  -2388738.65746  23388384.876    23388383.7994   23388391.0954
     -1035.662        -807.009
 -23082934.032 9 -17962007.34148  20656935.853    20656936.5224   20656942.7304
      2511.321        1956.874
  -8204277.766 9  -6382450.61348  19709346.347    19709347.0174   19709352.8664
       226.961         176.853
   8650103.289 9   6742820.04346  22242131.257    22242130.6964   22242137.8544
     -2743.851       -2138.066
   -441959.310 9   -333435.63747  22506427.378    22506428.4754   22506433.9344
     -1877.660       -1463.112
 -11829165.182 9  -8732718.84648  19674274.894    19674275.3764   19674281.1284
       380.888         296.796
  -1821841.977 8  -1183920.51545  23959713.285    23959710.6974   23959719.3194
      3005.206        2341.719
 -19981061.946 9 -15553405.69747  21576102.061    21576102.2424   21576107.8074
      3552.035        2767.819
 96 10  9 17 11 29.9960000  0 10  1 28 22 21 17  6 26 23  9  3      -0.003365336
  -2768033.396 9  -2128628.08846  22817303.234    22817304.9344   22817312.3174
      4543.009        3540.007
 -18093226.446 9 -14077269.176 9  19408307.568    19408308.374    19408313.601
       787.676         613.774
  -3086917.657 9  -2364408.28946  23394326.341    23394325.5944   23394333.0414
     -1044.401        -813.819
 -23158105.174 9 -18020582.24848  20642631.459    20642631.9124   20642638.1274
      2501.681        1949.362
  -8210910.730 9  -6387619.16048  19708084.690    19708084.8394   19708090.6314
       216.691         168.850
   8732555.781 9   6807068.64546  22257819.115    22257820.8824   22257828.0804
     -2751.328       -2143.892
   -385429.974 9   -289386.84947  22517185.414    22517185.7954   22517191.1454
     -1889.559       -1472.384
 -11840410.039 9  -8741481.07448  19672135.032    19672135.5784   19672141.3284
       370.135         288.417
  -1911887.288 8  -1254085.65046  23942577.227    23942575.8724   23942584.0824
      2999.350        2337.156
 -20087382.558 9 -15636252.91147  21555869.777    21555870.0124   21555875.7004
      3537.543        2756.527
 96 10  9 17 11 59.9960000  0 10  1 28 22 21 17  6 26 23  9  3      -0.003382256
  -2904235.670 9  -2234759.68446  22791384.568    22791386.5484   22791393.9084
      4537.345        3535.593
 -18116512.984 9 -14095414.545 9  19403876.446    19403877.083    19403882.307
       765.042         596.137
  -3055422.120 9  -2339866.34546  23400318.449    23400319.0434   23400326.5944
     -1055.003        -822.080
 -23232984.912 9 -18078930.08448  20628382.249    20628382.7434   20628389.0334
      2490.414        1940.582
  -8217226.319 9  -6392540.41348  19706883.062    19706883.0084   19706888.8674
       204.827         159.605
   8815232.778 9   6871492.19346  22273551.332    22273553.7644   22273561.1504
     -2760.112       -2150.737
   -328540.644 9   -245057.53947  22528011.697    22528011.6294   22528016.9794
     -1902.791       -1482.694
 -11851321.699 9  -8749983.67748  19670058.612    19670059.1644   19670064.8974
       357.702         278.729
  -2001751.695 8  -1324109.84945  23925474.901    23925475.2584   23925483.4984
      2991.879        2331.334
 -20193267.163 9 -15718760.39447  21535720.298    21535720.7314   21535726.7574
      3521.701        2744.183
 96 10  9 17 12 29.9960000  0 10  1 28 22 21 17  6 26 23  9  3      -0.003399154
  -3040300.855 9  -2340784.46546  22765491.969    22765494.3644   22765501.5144
      4532.354        3531.704
 -18139159.941 9 -14113061.532 9  19399566.831    19399567.505    19399572.761
       743.290         579.187
  -3023650.380 9  -2315109.21246  23406364.066    23406364.9864   23406372.6414
     -1064.380        -829.387
 -23307558.707 9 -18137039.51848  20614191.380    20614191.7614   20614198.0884
      2479.695        1932.230
  -8223231.789 9  -6397220.03148  19705740.012    19705740.1744   19705746.1494
       193.884         151.078
   8898120.432 9   6936079.86646  22289324.863    22289326.7814   22289334.3124
     -2767.218       -2156.274
   -271284.597 9   -200442.47847  22538906.151    22538907.1934   22538912.6094
     -1915.855       -1492.874
 -11861906.413 9  -8758231.50148  19668044.235    19668044.8794   19668050.6984
       346.427         269.943
  -2091424.605 8  -1393984.79045  23908413.289    23908410.8104   23908419.1774
      2984.815        2325.830
 -20298715.453 9 -15800927.89347  21515654.333    21515654.4844   21515660.7264
      3506.760        2732.540
 96 10  9 17 12 59.9960000  0 10  1 28 22 21 17  6 26 23  9  3      -0.003416040
  -3176246.691 9  -2446716.23546  22739623.089    22739624.8184   22739631.9944
      4529.931        3529.816
 -18161177.234 9 -14130217.879 9  19395376.988    19395377.752    19395383.038
       723.747         563.959
  -2991636.958 9  -2290163.74946  23412456.960    23412456.8444   23412464.3874
     -1070.563        -834.205
 -23381836.755 9 -18194918.51048  20600056.588    20600057.1614   20600063.4124
      2471.448        1925.804
  -8228920.265 9  -6401652.63248  19704657.614    19704657.7214   19704663.7104
       184.583         143.831
   8981199.716 9   7000816.88446  22305134.781    22305136.4334   22305143.9924
     -2772.031       -2160.024
   -213660.161 9   -155540.35747  22549871.359    22549872.7254   22549878.1664
     -1926.599       -1501.246
 -11872169.360 9  -8766228.60748  19666091.466    19666091.9054   19666097.7614
       336.944         262.554
  -2180907.655 8  -1463711.80345  23891385.736    23891382.8784   23891391.1604
      2980.032        2322.103
 -20403747.905 9 -15882771.36447  21495667.406    21495667.5244   21495673.6904
      3494.651        2723.105
 96 10  9 17 13 29.9960000  0 10  1 28 22 21 17  6 26 23  9  3      -0.003432919
  -3312064.711 9  -2552548.40546  22713777.630    22713779.5054   22713786.8634
      4524.917        3525.909
 -18182553.796 9 -14146874.948 9  19391309.328    19391309.993    19391315.240
       701.628         546.723
  -2959388.742 9  -2265035.31446  23418594.504    23418593.4744   23418600.8924
     -1079.096        -840.854
 -23455815.576 9 -18252564.33048  20585979.118    20585979.4974   20585985.7274
      2460.793        1917.501
  -8234273.762 9  -6405824.19248  19703638.682    19703639.0544   19703644.9084
       172.733         134.597
   9064468.151 9   7065701.29246  22320980.715    22320982.1414   22320989.7204
     -2779.036       -2165.483
   -155645.005 9   -110333.78047  22560910.599    22560912.5744   22560918.0624
     -1940.913       -1512.400
 -11882085.772 9  -8773955.69148  19664204.574    19664204.9074   19664210.7364
       324.525         252.877
  -2270204.024 7  -1533293.32045  23874390.819    23874390.2724   23874398.4134
      2973.568        2317.066
 -20508366.179 9 -15964292.09447  21475759.044    21475759.3884   21475765.4324
      3480.155        2711.809
 96 10  9 17 13 59.9960000  0 10  1 28 22 21 17  6 26 23  9  3      -0.003449765
  -3447730.789 9  -2658262.16046  22687962.093    22687962.9934   22687970.5994
      4519.242        3521.487
 -18203267.453 9 -14163015.476 9  19387367.496    19387368.321    19387373.535
       678.988         529.082
  -2926884.001 9  -2239706.99446  23424781.080    23424779.0654   23424786.3834
     -1088.080        -847.855
 -23529474.325 9 -18309960.74348  20571962.050    20571962.5794   20571968.8764
      2449.486        1908.690
  -8239282.372 9  -6409727.02148  19702685.370    19702685.8984   19702691.8024
       160.795         125.295
   9147953.236 9   7130754.51746  22336867.959    22336869.0504   22336876.6824
     -2786.856       -2171.576
    -97191.165 9    -64785.37847  22572033.977    22572036.0314   22572041.3694
     -1956.269       -1524.365
 -11891641.394 9  -8781401.62548  19662386.096    19662386.5004   19662392.3854
       312.442         243.461
  -2359320.51117  -1602734.65255  23857425.289    23857431.7185   23857440.0445
      2967.144        2312.060
 -20612556.585 9 -16045479.41547  21455931.886    21455932.5314   21455938.6314
      3465.479        2700.373
 96 10  9 17 14 29.9960000  0 10  1 28 22 21 17  6 26 23  9  3      -0.003466580
  -3583251.809 9  -2763862.89146  22662173.246    22662174.0894   22662181.8424
      4515.722        3518.744
 -18223328.562 9 -14178647.523 9  19383550.155    19383550.847    19383556.074
       658.610         513.202
  -2894149.157 9  -2214199.35146  23431008.455    23431008.2764   23431015.7254
     -1094.048        -852.505
 -23602824.742 9 -18367116.90348  20558003.924    20558004.4814   20558010.7894
      2440.820        1901.938
  -8243948.310 9  -6413362.83848  19701797.441    19701798.0034   19701803.9094
       150.318         117.131
   9231646.001 9   7195969.56546  22352794.857    22352795.4464   22352803.1094
     -2792.558       -2176.019
    -38296.416 9    -18893.40346  22583242.122    22583243.3164   22583248.6284
     -1969.624       -1534.772
 -11900874.013 9  -8788595.87748  19660628.923    19660629.5454   19660635.4754
       303.301         236.338
  -2448261.631 7  -1672039.35245  23840501.045    23840506.8404   23840514.9974
      2962.627        2308.541
 -20716325.853 9 -16126338.59347  21436184.932    21436185.7764   21436192.0304
      3452.692        2690.409
 96 10  9 17 14 59.9960000  0 10  1 28 22 21 17  6 26 23  9  3      -0.003483384
  -3718661.333 9  -2869376.73046  22636405.323    22636406.3274   22636414.3414
      4511.332        3515.324
 -18242771.126 9 -14193797.587 9  19379850.468    19379851.094    19379856.280
       637.419         496.690
  -2861221.454 9  -2188541.45446  23437272.203    23437274.1724   23437281.7544
     -1101.458        -858.279
 -23675916.597 9 -18424071.58448  20544095.061    20544095.5944   20544101.8914
      2431.837        1894.938
  -8248293.277 9  -6416748.54648  19700971.164    19700971.2674   19700977.1354
       139.399         108.623
   9315522.749 9   7261327.97046  22368755.065    22368756.7874   22368764.4954
     -2799.230       -2181.218
     20993.705 9     27306.63546  22594525.111    22594525.8994   22594531.4064
     -1982.986       -1545.184
 -11909831.398 9  -8795575.66648  19658924.607    19658925.0634   19658930.9634
       293.728         228.879
  -2537066.987 8  -1741238.28545  23823606.654    23823607.6394   23823616.0214
      2957.604        2304.626
 -20819704.078 9 -16206893.04247  21416512.982    21416513.4204   21416519.7994
      3439.035        2679.767
 96 10  9 17 15 29.9960000  0 10  1 28 22 21 17  6 26 23  9  3      -0.003500162
  -3853933.334 9  -2974783.41046  22610663.816    22610664.8614   22610672.9134
      4505.828        3511.035
 -18261576.109 9 -14208450.831 9  19376271.986    19376272.587    19376277.773
       615.343         479.488
  -2828056.100 9  -2162698.34846  23443581.274    23443585.3144   23443592.8874
     -1110.391        -865.240
 -23748740.104 9 -18480817.15748  20530237.370    20530237.7494   20530244.1034
      2422.136        1887.379
  -8252317.527 9  -6419884.34848  19700204.895    19700205.4164   19700211.3434
       128.027          99.761
   9399594.575 9   7326838.39446  22384751.762    22384755.1734   22384762.8894
     -2806.707       -2187.044
     80680.662 9     73815.92746  22605882.764    22605884.0364   22605889.6464
     -1996.972       -1556.082
 -11918511.754 9  -8802339.58548  19657272.991    19657273.2934   19657279.1674
       284.160         221.423
  -2625724.521 8  -1810322.00145  23806741.280    23806736.6124   23806745.2794
      2951.749        2300.064
 -20922667.622 9 -16287124.38547  21396919.464    21396920.1494   21396926.4624
      3424.203        2668.210
 96 10  9 17 15 59.9960000  0 10  1 28 22 21 17  6 26 23  9  3      -0.003516909
  -3989071.927 9  -3080086.15046  22584948.433    22584948.8074   22584956.7634
      4503.568        3509.274
 -18279754.365 9 -14222615.725 9  19372812.656    19372813.369    19372818.592
       596.622         464.900
  -2794664.905 9  -2136679.28146  23449936.044    23449939.5224   23449946.9954
     -1115.449        -869.181
 -23821305.956 9 -18537361.96648  20516428.550    20516428.8904   20516435.2604
      2415.645        1882.321
  -8256037.310 9  -6422782.90648  19699497.183    19699497.5744   19699503.4894
       119.894          93.424
   9483864.993 9   7392503.54846  22400787.881    22400791.2964   22400799.0324
     -2811.062       -2190.438
    140739.799 9    120615.21346  22617310.817    22617312.9644   22617318.5244
     -2006.645       -1563.619
 -11926946.123 9  -8808911.82348  19655667.987    19655668.2284   19655674.1204
       278.107         216.707
  -2714224.206 8  -1879282.71946  23789899.612    23789895.5364   23789904.3374
      2948.096        2297.218
 -21025221.731 9 -16367036.66547  21377403.974    21377404.7534   21377410.9764
      3412.690        2659.239
 96 10  9 17 16 29.9960000  0 10  1 28 22 21 17  6 26 23  9  3      -0.003533678
  -4124142.208 9  -3185335.64646  22559246.055    22559245.8094   22559253.6594
      4499.932        3506.441
 -18297367.144 9 -14236339.979 9  19369460.949    19369461.758    19369466.994
       576.454         449.185
  -2761125.853 9  -2110545.01046  23456321.516    23456321.8084   23456329.4994
     -1121.673        -874.031
 -23893668.240 9 -18593748.14748  20502658.484    20502658.7634   20502665.1334
      2407.341        1875.850
  -8259506.175 9  -6425485.92548  19698837.196    19698837.5364   19698843.4594
       110.325          85.968
   9568264.617 9   7458269.38246  22416850.221    22416851.9844   22416859.8084
     -2816.693       -2194.826
    201076.348 9    167630.66346  22628793.005    22628794.7084   22628800.0814
     -2016.779       -1571.516
 -11935183.318 9  -8815330.42148  19654100.311    19654100.7024   19654106.6404
       269.847         210.270
  -2802599.971 8  -1948146.86746  23773080.344    23773078.3014   23773086.9174
      2942.722        2293.030
 -21127416.348 9 -16446668.82447  21357956.630    21357957.6924   21357963.9694
      3399.192        2648.721
 96 10  9 17 16 59.9960000  0 10  1 28 22 21 17  6 26 23  9  3      -0.003550443
  -4259082.908 9  -3290484.17346  22533566.660    22533567.4274   22533575.2064
      4494.665        3502.336
 -18314355.987 9 -14249578.053 9  19366228.123    19366228.860    19366234.107
       554.735         432.261
  -2727371.732 9  -2084243.19446  23462747.177    23462745.0564   23462752.7994
     -1129.859        -880.410
 -23965754.095 9 -18649918.93348  20488940.744    20488941.2574   20488947.6234
      2396.993        1867.787
  -8262676.052 9  -6427955.97348  19698234.089    19698234.3424   19698240.2434
        99.584          77.598
   9652854.645 9   7524183.58146  22432948.072    22432948.8794   22432956.8274
     -2823.757       -2200.330
    261730.303 9    214893.43847  22640335.620    22640336.8954   22640342.0554
     -2028.313       -1580.504
 -11943142.864 9  -8821532.66948  19652585.582    19652586.0624   19652591.9814
       259.251         202.014
  -2890794.146 8  -2016869.55445  23756289.839    23756295.3864   23756304.1394
      2935.563        2287.452
 -21229183.812 9 -16525968.14747  21338590.832    21338591.9744   21338598.2464
      3383.903        2636.808
 96 10  9 17 17 29.9960000  0 10  1 28 22 21 17  6 26 23  9  3      -0.003567195
  -4393870.585 9  -3395513.45846  22507916.086    22507918.1944   22507925.9974
      4492.670        3500.782
 -18330700.060 9 -14262313.711 9  19363117.987    19363118.667    19363123.976
       536.340         417.927
  -2693385.265 9  -2057760.29646  23469214.761    23469212.4554   23469220.0784
     -1134.213        -883.802
 -24037529.146 9 -18705847.53448  20475282.169    20475282.9164   20475289.2754
      2389.468        1861.923
  -8265520.107 9  -6430172.14748  19697692.845    19697693.1274   19697699.0354
        91.396          71.218
   9737644.410 9   7590253.43046  22449081.801    22449083.8134   22449091.7584
     -2827.510       -2203.255
    322732.056 9    262427.22347  22651943.664    22651945.2104   22651950.5244
     -2037.037       -1587.302
 -11950781.830 9  -8827485.12448  19651132.005    19651132.4334   19651138.3754
       251.492         195.968
  -2978771.549 8  -2085423.26245  23739551.077    23739553.7834   23739562.3764
      2931.061        2283.944
 -21330497.424 9 -16604913.81747  21319311.999    21319312.7954   21319318.9524
      3371.801        2627.377
 96 10  9 17 17 59.9960000  0 10  1 28 22 21 17  6 26 23  9  3      -0.003583940
  -4528520.896 9  -3500435.70346  22482292.675    22482295.0704   22482302.8844
      4483.666        3493.766
 -18346416.048 9 -14274559.942 9  19360127.301    19360127.933    19360133.288
       511.040         398.213
  -2659203.140 9  -2031124.91446  23475718.798    23475717.1604   23475724.6304
     -1144.914        -892.141
 -24108991.028 9 -18761532.10548  20461683.691    20461684.1354   20461690.5444
      2374.343        1850.137
  -8268039.448 9  -6432135.28048  19697213.438    19697213.7424   19697219.6624
        76.155          59.342
   9822623.571 9   7656470.85646  22465252.438    22465254.8004   22465262.7234
     -2837.972       -2211.407
    384069.617 9    310222.68347  22663615.897    22663617.2654   22663623.0984
     -2052.495       -1599.347
 -11958101.502 9  -8833188.76648  19649739.109    19649739.5414   19649745.4514
       236.029         183.919
  -3066528.248 8  -2153805.07246  23722849.282    23722854.2094   23722862.6544
      2919.214        2274.712
 -21431372.299 9 -16683517.61047  21300116.680    21300117.1444   21300123.0714
      3352.827        2612.592
 96 10  9 17 18 29.9960000  0 10  1 28 22 21 17  6 26 23  9  3      -0.003600675
  -4663016.480 9  -3605237.37946  22456699.444    22456701.3404   22456709.2634
      4480.170        3491.042
 -18361495.977 9 -14286310.555 9  19357257.392    19357258.256    19357263.702
       491.903         383.301
  -2624821.007 9  -2004333.67546  23482261.714    23482259.9104   23482267.5644
     -1149.617        -895.805
 -24180125.870 9 -18816961.83748  20448147.209    20448147.6004   20448153.9914
      2365.632        1843.350
  -8270220.462 9  -6433834.79148  19696798.486    19696798.7434   19696804.7304
        66.936          52.158
   9907794.504 9   7722837.72646  22481460.854    22481462.2734   22481470.2194
     -2842.526       -2214.955
    445754.099 9    358288.47047  22675352.732    22675355.2504   22675361.5184
     -2062.197       -1606.907
 -11965080.720 9  -8838627.12648  19648411.091    19648411.4354   19648417.3814
       227.046         176.919
  -3154062.033 8  -2222013.09246  23706191.658    23706197.2474   23706205.5854
      2914.160        2270.774
 -21531793.271 9 -16761767.70747  21281006.804    21281007.7114   21281013.6224
      3339.628        2602.308
 96 10  9 17 18 59.9960000  0 10  1 28 22 21 17  6 26 23  9  3      -0.003617378
  -4797334.484 9  -3709900.67446  22431140.198    22431141.3334   22431149.4264
      4474.592        3486.695
 -18375930.600 9 -14297558.325 9  19354510.634    19354511.418    19354516.961
       470.643         366.735
  -2590221.084 9  -1977372.76946  23488845.293    23488843.9964   23488851.8694
     -1156.612        -901.256
 -24250933.166 9 -18872136.35348  20434673.105    20434673.4954   20434679.7824
      2355.252        1835.261
  -8272050.512 9  -6435260.83148  19696450.225    19696450.4594   19696456.5154
        55.409          43.176
   9993170.443 9   7789364.31546  22497708.986    22497708.8864   22497716.6804
     -2848.901       -2219.923
    507808.703 9    406642.64146  22687161.321    22687163.7564   22687170.0744
     -2074.486       -1616.483
 -11971728.338 9  -8843807.09848  19647146.334    19647146.5344   19647152.3144
       216.391         168.616
  -3241374.793 8  -2290048.95646  23689577.732    23689582.0554   23689590.5374
      2906.835        2265.066
 -21631749.241 9 -16839655.47247  21261985.855    21261986.5904   21261992.6524
      3324.476        2590.501
 96 10  9 17 19 29.9960000  0 10  1 28 22 21 17  6 26 23  9  3      -0.003634063
  -4931497.697 9  -3814443.36546  22405609.436    22405610.8564   22405619.0254
      4469.385        3482.638
 -18389738.839 9 -14308318.009 9  19351883.242    19351883.833    19351889.377
       449.564         350.310
  -2555436.161 8  -1950267.73546  23495466.394    23495463.3664   23495471.1924
     -1162.665        -905.973
 -24321447.735 9 -18927082.76848  20421254.419    20421255.0054   20421261.3004
      2345.279        1827.490
  -8273551.947 9  -6436430.79048  19696164.177    19696164.7724   19696170.8014
        44.487          34.665
  10078722.894 9   7856028.45446  22513990.250    22513989.3074   22513996.7684
     -2855.046       -2224.711
    570217.824 9    455273.05146  22699038.789    22699039.9204   22699045.9644
     -2086.359       -1625.734
 -11978076.449 9  -8848753.68348  19645937.913    19645938.4784   19645944.2734
       206.665         161.038
  -3328476.952 8  -2357920.66046  23673006.344    23673007.0064   23673015.4994
      2899.735        2259.534
 -21731264.819 9 -16917200.08547  21243048.709    21243049.2344   21243055.4124
      3309.549        2578.869
 96 10  9 17 19 59.9960000  0 10  1 28 22 21 17  6 26 23  9  3      -0.003650771
  -5065554.746 9  -3918903.33046  22380098.834    22380100.5944   22380108.8014
      4465.262        3479.425
 -18402966.374 9 -14318625.190 9  19349366.351    19349366.776    19349372.293
       429.710         334.839
  -2520523.897 9  -1923063.43546  23502106.413    23502107.0004   23502114.8064
     -1167.411        -909.671
 -24391713.536 9 -18981835.31948  20407883.318    20407883.7854   20407890.2224
      2336.669        1820.781
  -8274789.942 9  -6437395.48548  19695928.852    19695929.2414   19695935.2634
        35.447          27.621
  10164407.119 9   7922795.28446  22530294.434    22530294.6124   22530301.9944
     -2859.810       -2228.423
    632921.135 9    504132.71446  22710970.898    22710972.1774   22710977.9124
     -2096.483       -1633.623
 -11984192.589 9  -8853519.51148  19644773.915    19644774.5514   19644780.4184
       198.580         154.738
  -3415423.579 8  -2425671.19246  23656459.193    23656461.6214   23656469.9794
      2894.355        2255.341
 -21830379.225 9 -16994432.09147  21224187.976    21224188.4524   21224194.5094
      3295.488        2567.913
 96 10  9 17 20 29.9960000  0 10  1 28 22 21 17  6 26 23  9  3      -0.003667425
  -5199410.240 9  -4023206.24046  22354627.030    22354628.7184   22354636.8354
      4459.106        3474.628
 -18415516.311 9 -14328404.379 9  19346978.135    19346978.648    19346984.179
       407.616         317.623
  -2485384.899 9  -1895682.41746  23508790.758    23508793.8804   23508801.5434
     -1174.618        -915.287
 -24461650.869 9 -19036331.94448  20394574.659    20394575.1594   20394581.5684
      2326.479        1812.841
  -8275670.536 9  -6438081.68648  19695761.121    19695761.6724   19695767.7074
        23.990          18.694
  10250312.651 9   7989734.56246  22546641.082    22546642.0624   22546649.3414
     -2866.533       -2233.662
    696014.502 9    553296.32646  22722978.158    22722978.5334   22722984.3054
     -2108.969       -1643.352
 -11989996.189 9  -8858041.81648  19643669.838    19643670.2264   19643676.0304
       189.109         147.358
  -3502136.575 9  -2493239.70646  23639956.171    23639960.6494   23639969.0574
      2887.070        2249.665
 -21928986.203 9 -17071268.68947  21205423.868    21205424.3204   21205430.2584
      3279.106        2555.148
 96 10  9 17 20 59.9960000  0 10  1 28 22 21 17  6 26 23  9  3      -0.003684069
  -5333135.091 9  -4127407.34746  22329180.386    22329181.6254   22329189.6974
      4455.490        3471.810
 -18427450.913 9 -14337704.079 9  19344707.170    19344707.661    19344713.133
       387.552         301.988
  -2450078.249 9  -1868170.82246  23515512.546    23515512.5294   23515520.0844
     -1179.624        -919.188
 -24531330.247 9 -19090627.55448  20381315.219    20381315.6374   20381321.9464
      2318.400        1806.545
  -8276257.169 9  -6438538.82448  19695649.446    19695650.0844   19695656.1484
        14.674          11.434
  10336364.014 9   8056787.45446  22563016.775    22563017.2374   22563024.3874
     -2870.718       -2236.923
    759428.764 9    602710.00046  22735044.107    22735045.6464   22735051.6914
     -2119.057       -1651.213
 -11995566.336 9  -8862382.19248  19642609.534    19642610.2554   19642616.0744
       181.612         141.516
  -3588670.910 9  -2560669.01346  23623491.260    23623493.6234   23623502.0014
      2881.260        2245.138
 -22027152.756 9 -17147762.10247  21186743.403    21186743.8114   21186749.8844
      3264.789        2543.991
 96 10  9 17 21 29.9960000  0 10  1 28 22 21 17  6 26 23  9  3      -0.003700694
  -5466709.687 9  -4231491.38746  22303762.227    22303763.1474   22303771.0544
      4448.430        3466.309
 -18438745.381 9 -14346504.985 9  19342557.641    19342558.404    19342563.893
       364.316         283.882
  -2414585.842 9  -1840514.44646  23522266.633    23522266.5324   23522274.1914
     -1187.825        -925.578
 -24600731.184 9 -19144706.20548  20368108.568    20368109.0864   20368115.3634
      2307.221        1797.835
  -8276528.722 9  -6438750.44048  19695597.832    19695598.4544   19695604.5134
         2.200           1.714
  10422575.251 9   8123964.93546  22579422.944    22579422.7324   22579429.8224
     -2877.849       -2242.480
    823182.366 9    652388.09346  22747176.097    22747177.3744   22747183.6304
     -2132.140       -1661.408
 -12000873.121 9  -8866517.36148  19641599.883    19641600.4254   19641606.2694
       171.079         133.308
  -3674993.964 9  -2627933.61846  23607065.171    23607066.8904   23607074.8764
      2872.378        2238.217
 -22124845.174 9 -17223886.06547  21168152.400    21168153.3854   21168159.6424
      3246.819        2529.989
 96 10  9 17 21 59.9960000  0 10  1 28 22 21 17  6 26 23  9  3      -0.003717282
  -5600099.795 9  -4335431.66046  22278378.740    22278379.8104   22278387.6224
      4445.495        3464.022
 -18449377.587 9 -14354789.841 9  19340534.614    19340535.286    19340540.705
       345.772         269.433
  -2378869.112 9  -1812683.24646  23529062.200    23529063.4514   23529070.9394
     -1192.099        -928.908
 -24669831.022 9 -19198550.22148  20354959.069    20354959.7884   20354966.0724
      2300.823        1792.849
  -8276455.089 9  -6438693.07548  19695612.070    19695612.4984   19695618.4224
        -6.105          -4.757
  10508964.979 9   8191281.49246  22595863.511    22595862.3124   22595869.3284
     -2880.193       -2244.306
    887288.924 9    702341.20246  22759376.064    22759376.6664   22759382.6364
     -2140.385       -1667.832
 -12005896.085 9  -8870431.37248  19640644.027    19640644.5684   19640650.4384
       164.959         128.539
  -3761084.825 9  -2695017.36546  23590682.982    23590684.2584   23590692.6244
      2868.112        2234.892
 -22222033.919 9 -17299617.56547  21149657.886    21149658.9864   21149665.2334
      3233.757        2519.811
 96 10  9 17 22 29.9960000  0 10  1 28 22 21 17  6 26 23  9  3      -0.003733880
  -5733372.987 9  -4439280.82746  22253018.309    22253018.7094   22253026.5404
      4439.567        3459.403
 -18459425.907 9 -14362619.708 9  19338622.849    19338623.255    19338628.588
       324.433         252.805
  -2342996.175 9  -1784730.39246  23535890.925    23535890.0144   23535897.4414
     -1199.031        -934.310
 -24738722.023 9 -19252231.50848  20341849.872    20341850.2934   20341856.5704
      2292.050        1786.013
  -8276093.467 9  -6438411.31048  19695680.956    19695681.3034   19695687.2344
       -17.539         -13.667
  10595447.239 9   8258670.14046  22612320.432    22612319.4404   22612326.5314
     -2884.962       -2248.022
    951673.649 9    752511.07446  22771628.541    22771628.7894   22771634.6354
     -2151.462       -1676.464
 -12010706.792 9  -8874179.97948  19639728.989    19639729.2144   19639735.0264
       155.907         121.486
  -3847009.652 9  -2761971.74946  23574332.883    23574333.2534   23574341.7634
      2860.490        2228.953
 -22318808.264 9 -17375026.13547  21131242.451    21131243.5584   21131249.7424
      3218.241        2507.720
 96 10  9 17 22 59.9960000  0 10  1 28 22 21 17  6 26 23  9  3      -0.003750479
  -5866491.928 9  -4543009.80746  22227686.387    22227686.9654   22227694.8814
      4434.797        3455.686
 -18468859.413 9 -14369970.516 9  19336827.516    19336828.111    19336833.511
       304.167         237.013
  -2306943.521 9  -1756637.48946  23542752.234    23542750.4444   23542758.1534
     -1204.715        -938.739
 -24807371.189 9 -19305724.36048  20328786.480    20328786.8444   20328793.0684
      2284.243        1779.930
  -8275419.753 9  -6437886.34948  19695809.287    19695809.5684   19695815.4964
       -27.663         -21.556
  10682058.843 9   8326159.60446  22628800.291    22628801.0434   22628808.2844
     -2889.512       -2251.568
   1016360.728 9    802916.56446  22783938.217    22783938.3874   22783944.2424
     -2161.223       -1684.070
 -12015252.658 9  -8877722.22748  19638863.780    19638864.1734   19638870.0134
       146.756         114.355
  -3932728.641 9  -2828765.67745  23558020.396    23558021.3684   23558029.5554
      2853.900        2223.818
 -22415142.571 9 -17450091.82647  21112911.456    21112911.7904   21112917.9804
      3203.686        2496.379
 96 10  9 17 23 29.9960000  0 10  1 28 22 21 17  6 26 23  9  3      -0.003767104
  -5999487.167 9  -4646642.39447  22202378.112    22202378.8334   22202386.8384
      4431.518        3453.131
 -18477709.891 9 -14376867.010 9  19335143.517    19335143.991    19335149.358
       285.797         222.699
  -2270747.775 9  -1728433.03946  23549637.296    23549638.2484   23549645.9894
     -1208.455        -941.653
 -24875808.186 9 -19359051.88348  20315763.350    20315763.7054   20315769.9164
      2278.067        1775.117
  -8274468.505 9  -6437145.12548  19695990.090    19695990.6224   19695996.5444
       -35.928         -27.996
  10768784.999 9   8393738.30046  22645301.962    22645304.4584   22645311.9104
     -2892.390       -2253.810
   1081313.279 9    853528.88946  22796298.613    22796298.4754   22796304.5804
     -2168.965       -1690.103
 -12019543.783 9  -8881065.96848  19638047.301    19638047.5984   19638053.4614
       139.305         108.549
  -4018279.163 9  -2895428.39645  23541739.799    23541741.6784   23541749.4914
      2849.335        2220.261
 -22511067.358 9 -17524838.41347  21094657.314    21094657.8394   21094664.2004
      3191.219        2486.664
 96 10  9 17 23 59.9960000  0 10  1 28 22 21 17  6 26 23  9  3      -0.003783730
  -6132324.433 9  -4750151.88747  22177100.310    22177100.7274   22177108.8634
      4424.661        3447.788
 -18485949.144 9 -14383287.224 9  19333575.425    19333576.120    19333581.524
       263.819         205.573
  -2234385.826 9  -1700099.11046  23556558.372    23556557.8984   23556565.4964
     -1215.172        -946.887
 -24943992.392 9 -19412182.41848  20302788.313    20302788.5984   20302794.8414
      2267.843        1767.150
  -8273207.565 9  -6436162.60348  19696230.515    19696230.5744   19696236.5194
       -47.870         -37.301
  10855671.172 9   8461441.68346  22661834.756    22661838.3804   22661846.0024
     -2899.513       -2259.361
   1146554.948 9    904366.49746  22808714.067    22808713.6964   22808719.9994
     -2180.272       -1698.913
 -12023546.133 9  -8884184.69448  19637285.598    19637285.9884   19637291.8704
       127.856          99.628
  -4103626.364 9  -2961932.68845  23525501.563    23525500.6164   23525508.5674
      2840.918        2213.702
 -22606570.956 9 -17599256.81247  21076482.751    21076484.0934   21076490.5104
      3175.838        2474.679
 96 10  9 17 24 29.9960000  0 10  1 28 22 21 17  6 26 23  9  3      -0.003800347
  -6264974.696 9  -4853515.66747  22151857.700    22151858.2514   22151866.4374
      4419.055        3443.419
 -18493546.328 9 -14389207.124 9  19332129.557    19332130.391    19332135.777
       243.069         189.404
  -2197852.106 9  -1671631.31546  23563507.869    23563510.0934   23563517.5824
     -1219.980        -950.634
 -25011887.705 9 -19465087.85248  20289868.275    20289868.5614   20289874.8044
      2258.836        1760.132
  -8271605.924 9  -6434914.59048  19696535.599    19696535.4584   19696541.3554
       -58.347         -45.465
  10942751.407 9   8529296.29346  22678405.332    22678409.2474   22678417.2094
     -2905.429       -2263.971
   1212128.059 9    955462.37846  22821191.613    22821192.0574   22821198.1134
     -2190.773       -1707.096
 -12027219.950 9  -8887047.42448  19636586.489    19636586.8974   19636592.7734
       117.474          91.538
  -4188743.627 9  -3028257.75045  23509305.048    23509303.2674   23509311.3164
      2833.881        2208.219
 -22701619.587 9 -17673320.68147  21058396.012    21058397.0554   21058403.4194
      3161.013        2463.127
 96 10  9 17 24 59.9960000  0 10  1 28 22 21 17  6 26 23  9  3      -0.003816910
  -6397388.873 9  -4956695.48346  22126660.315    22126660.6114   22126668.7774
      4410.412        3436.685
 -18500453.335 9 -14394589.219 9  19330815.002    19330815.979    19330821.393
       219.313         170.893
  -2161103.595 8  -1642996.14345  23570501.467    23570503.0484   23570510.7944
     -1228.058        -956.928
 -25079437.144 9 -19517723.76948  20277013.933    20277014.3384   20277020.6514
      2246.285        1750.352
  -8269624.488 9  -6433370.63048  19696912.446    19696912.4484   19696918.4464
       -71.891         -56.019
  11030082.068 9   8597346.02446  22695024.571    22695027.8494   22695035.9634
     -2914.408       -2270.967
   1278079.445 9   1006852.99446  22833741.675    22833742.2144   22833748.1454
     -2203.991       -1717.396
 -12030515.782 9  -8889615.62548  19635959.290    19635959.7634   19635965.6384
       104.398          81.349
  -4273576.095 9  -3094360.96245  23493161.558    23493160.0274   23493168.2044
      2823.505        2200.134
 -22796147.008 9 -17746978.41148  21040408.655    21040409.2214   21040415.4454
      3142.566        2448.753
 96 10  9 17 25 29.9960000  0 10  1 28 22 21 17  6 26 23  9  3      -0.003833429
  -6529565.439 9  -5059690.15646  22101508.381    22101508.2204   22101516.2024
      4402.460        3430.488
 -18506679.407 9 -14399440.720 9  19329630.119    19329631.148    19329636.579
       196.997         153.504
  -2124141.465 8  -1614194.57245  23577533.750    23577536.5404   23577544.2904
     -1234.820        -962.197
 -25146631.497 9 -19570082.99248  20264227.093    20264227.5874   20264233.9224
      2234.684        1741.312
  -8267263.114 9  -6431530.62148  19697361.596    19697361.7784   19697367.7514
       -84.270         -65.665
  11117629.944 9   8665565.01246  22711684.304    22711687.9024   22711695.9864
     -2920.759       -2275.916
   1344394.133 9   1058526.73146  22846359.245    22846361.2724   22846367.2744
     -2215.752       -1726.560
 -12033468.984 9  -8891916.82048  19635397.180    19635397.7414   19635403.7164
        93.766          73.064
  -4358116.607 9  -3160236.65145  23477073.836    23477072.4054   23477080.3814
      2813.743        2192.527
 -22890142.503 9 -17820221.65347  21022521.948    21022522.3984   21022528.5554
      3125.064        2435.115
 96 10  9 17 25 59.9960000  0 10  1 28 22 21 17  6 26 23  9  3      -0.003849928
  -6661541.238 9  -5162528.37746  22076394.115    22076393.9754   22076401.8054
      4396.305        3425.692
 -18512274.082 9 -14403800.227 9  19328565.432    19328566.456    19328571.959
       176.390         137.447
  -2087014.992 8  -1585264.76155  23584590.148    23584600.2054   23584607.1645
     -1239.883        -966.143
 -25213518.646 9 -19622202.84048  20251498.952    20251499.4114   20251505.6724
      2224.909        1733.695
  -8264565.804 9  -6429428.82748  19697875.065    19697875.0944   19697881.0454
       -95.059         -74.072
  11205326.810 8   8733900.10246  22728372.591    22728376.1164   22728384.4164
     -2925.045       -2279.256
   1411028.374 9   1110449.46047  22859039.458    22859041.2114   22859047.3564
     -2226.144       -1734.658
 -12036145.852 9  -8894002.70248  19634887.849    19634888.3484   19634894.3074
        85.159          66.358
  -4442406.874 9  -3225917.32245  23461033.852    23461032.4764   23461040.1704
      2805.996        2186.490
 -22983648.900 9 -17893083.78847  21004727.815    21004728.6144   21004734.7984
      3108.925        2422.539
 96 10  9 17 26 29.9960000  0 10  1 28 22 21 17  6 26 23  9  3      -0.003866378
  -6793312.957 9  -5265207.58847  22051318.763    22051318.6144   22051326.2224
      4389.350        3420.273
 -18517230.545 9 -14407662.421 9  19327622.325    19327623.246    19327628.804
       154.967         120.754
  -2049713.757 8  -1556198.98145  23591696.569    23591699.1954   23591706.7034
     -1246.047        -970.946
 -25280102.045 9 -19674086.00648  20238828.611    20238829.0804   20238835.2914
      2214.808        1725.824
  -8261522.686 9  -6427057.59248  19698453.717    19698454.1364   19698460.1714
      -106.878         -83.282
  11293159.489 9   8802341.00146  22745087.059    22745090.1784   22745098.8674
     -2929.559       -2282.773
   1477988.629 9   1162626.22847  22871782.850    22871783.3984   22871789.6374
     -2236.815       -1742.973
 -12038552.924 9  -8895878.35648  19634429.750    19634430.3024   19634436.2564
        76.174          59.356
  -4526440.684 9  -3291398.18445  23445042.650    23445041.4244   23445049.1854
      2797.073        2179.537
 -23076637.657 9 -17965542.56747  20987032.376    20987033.4644   20987039.6854
      3091.335        2408.832
 96 10  9 17 26 59.9960000  0 10  1 28 22 21 17  6 26 23  9  3      -0.003882840
  -6924924.706 9  -5367762.13547  22026273.702    22026273.6724   22026281.1214
      4383.957        3416.070
 -18521593.990 9 -14411062.523 9  19326792.016    19326792.839    19326798.430
       135.052         105.235
  -2012270.149 9  -1527022.14045  23598817.305    23598824.8774   23598832.3904
     -1250.987        -974.795
 -25346418.885 9 -19725761.45648  20226208.960    20226209.3914   20226215.5754
      2205.417        1718.507
  -8258174.190 9  -6424448.39248  19699090.635    19699091.3134   19699097.3524
      -117.171         -91.302
  11381074.732 8   8870846.24046  22761817.721    22761820.0634   22761828.8174
     -2932.272       -2284.887
   1545209.325 9   1215005.91747  22884574.474    22884575.3524   22884581.5274
     -2245.375       -1749.643
 -12040738.518 9  -8897581.42848  19634013.863    19634014.4174   19634020.3874
        68.774          53.590
  -4610255.620 8  -3356708.50545  23429091.058    23429091.7204   23429099.8324
      2789.794        2173.865
 -23169153.839 9 -18037633.09048  20969427.504    20969428.2104   20969434.5094
      3075.562        2396.542
 96 10  9 17 27 29.9960000  0 10  1 28 22 21 17  6 26 23  9  3      -0.003899294
  -7056371.362 9  -5470188.02747  22001258.987    22001260.1164   22001267.4884
      4379.117        3412.299
 -18525356.006 9 -14413993.984 9  19326075.788    19326076.873    19326082.531
       115.613          90.088
  -1974682.414 9  -1497733.09046  23605977.390    23605977.6284   23605985.1984
     -1254.912        -977.854
 -25412453.646 9 -19777217.10148  20213642.917    20213643.3494   20213649.5394
      2196.908        1711.876
  -8254512.566 9  -6421595.19148  19699787.439    19699788.1354   19699794.1034
      -126.995         -98.957
  11469073.965 8   8939416.94345  22778561.513    22778565.5714   22778574.7504
     -2934.859       -2286.903
   1612694.124 9   1267591.40447  22897417.601    22897417.5084   22897423.6124
     -2253.814       -1756.219
 -12042699.049 9  -8899109.12448  19633640.887    19633641.3614   19633647.2914
        61.689          48.069
  -4693849.007 9  -3421846.15045  23413183.154    23413184.4544   23413192.4444
      2783.070        2168.626
 -23261198.738 9 -18109356.38548  20951911.553    20951912.6334   20951918.9224
      3060.722        2384.978
 96 10  9 17 27 59.9960000  0 10  1 28 22 21 17  6 26 23  9  3      -0.003915756
  -7187654.879 9  -5572486.79447  21976276.540    21976277.6514   21976284.9794
      4372.609        3407.228
 -18528512.711 9 -14416453.765 9  19325474.887    19325476.166    19325481.802
        94.309          73.487
  -1936956.112 9  -1468335.98346  23613152.403    23613156.7674   23613164.2114
     -1260.619        -982.301
 -25478217.550 9 -19828461.69048  20201128.288    20201128.8954   20201135.1174
      2186.766        1703.974
  -8250537.827 9  -6418498.01448  19700543.962    19700544.5354   19700550.5304
      -138.447        -107.881
  11557188.695 8   9008077.64145  22795328.622    22795333.2384   22795342.4144
     -2939.999       -2290.908
   1680450.461 9   1320388.49947  22910311.369    22910311.0654   22910317.2564
     -2263.760       -1763.969
 -12044419.719 9  -8900449.90948  19633313.390    19633313.8784   19633319.8884
        52.530          40.932
  -4777222.717 9  -3486812.63245  23397320.534    23397319.0374   23397326.9774
      2774.509        2161.955
 -23352779.871 9 -18180718.29948  20934484.528    20934485.3494   20934491.5404
      3044.008        2371.954
 96 10  9 17 28 29.9960000  0 10  1 28 22 21 17  6 26 23  9  3      -0.003932202
  -7318753.014 9  -5674641.11247  21951329.003    21951330.3904   21951337.7384
      4366.894        3402.774
 -18531045.609 9 -14418427.475 9  19324993.083    19324994.184    19324999.819
        74.169          57.794
  -1899080.144 9  -1438822.35246  23620365.104    23620364.5874   23620371.8884
     -1264.892        -985.630
 -25543686.144 9 -19879476.18148  20188670.125    20188670.5914   20188676.8334
      2177.449        1696.714
  -8246236.962 9  -6415146.70748  19701362.527    19701363.0064   19701369.0234
      -148.634        -115.819
  11645442.623 8   9076846.77745  22812123.674    22812127.6114   22812136.7564
     -2943.984       -2294.014
   1748488.402 9   1373405.02647  22923258.361    22923258.2234   22923264.4214
     -2272.425       -1770.721
 -12045879.123 9  -8901587.12348  19633035.712    19633036.1754   19633042.1704
        44.315          34.531
  -4860353.193 8  -3551589.59245  23381503.319    23381499.6674   23381507.6214
      2767.016        2156.116
 -23443868.189 9 -18251696.20748  20917150.732    20917151.7884   20917158.0054
      3028.197        2359.634
 96 10  9 17 28 59.9960000  0 10  1 28 22 21 17  6 26 23  9  3      -0.003948645
  -7449671.331 9  -5776655.32747  21926415.994    21926417.4264   21926424.7794
      4361.862        3398.854
 -18532964.473 9 -14419922.710 9  19324628.139    19324629.026    19324634.588
        54.676          42.605
  -1861062.475 9  -1409198.22946  23627597.428    23627599.2544   23627606.7484
     -1268.681        -988.583
 -25608863.464 9 -19930263.70048  20176267.071    20176267.7174   20176273.9464
      2168.816        1689.986
  -8241625.515 9  -6411553.39348  19702239.765    19702240.5314   19702246.5834
      -157.875        -123.019
  11733836.569 8   9145725.03445  22828944.723    22828948.3814   22828957.7284
     -2948.002       -2297.144
   1816801.650 9   1426636.05747  22936258.865    22936257.8474   22936264.0814
     -2280.956       -1777.368
 -12047080.417 9  -8902523.20348  19632806.952    19632807.5804   19632813.5434
        36.701          28.598
  -4943239.733 8  -3616176.47745  23365727.855    23365726.9224   23365734.6674
      2759.561        2150.307
 -23534479.174 9 -18322302.16948  20899907.738    20899909.1384   20899915.3984
      3013.353        2348.067
 96 10  9 17 29 29.9960000  0 10  1 28 22 21 17  6 26 23  9  3      -0.003965088
  -7580442.675 9  -5878555.02047  21901531.689    21901532.4964   21901539.8524
      4354.669        3393.249
 -18534308.981 9 -14420970.395 9  19324372.292    19324373.194    19324378.728
        33.485          26.092
  -1822948.950 9  -1379499.47146  23634852.850    23634852.1054   23634859.9504
     -1273.779        -992.555
 -25673812.710 9 -19980873.49248  20163907.765    20163908.2944   20163914.5134
      2159.673        1682.862
  -8236744.485 9  -6407750.02048  19703169.080    19703169.3924   19703175.4124
      -169.086        -131.755
  11822337.723 8   9214686.81645  22845787.537    22845789.7664   22845798.9024
     -2953.685       -2301.573
   1885370.749 9   1480066.45746  22949307.385    22949306.2384   22949312.3914
     -2291.860       -1785.865
 -12048066.010 9  -8903291.21248  19632619.407    19632620.0114   19632625.9674
        27.417          21.364
  -5025906.067 8  -3680591.75745  23349998.092    23349995.8694   23350003.9004
      2750.076        2142.916
 -23624650.380 9 -18392565.45548  20882749.385    20882750.1504   20882756.4094
      2996.501        2334.936
 96 10  9 17 29 59.9960000  0 10  1 28 22 21 17  6 26 23  9  3      -0.003981525
  -7711022.620 9  -5980305.56747  21876683.825    21876683.9614   21876691.4104
      4349.782        3389.441
 -18535049.766 9 -14421547.652 9  19324231.298    19324232.238    19324237.787
        14.982          11.674
  -1784716.762 9  -1349708.22546  23642129.169    23642127.4174   23642135.3684
     -1275.977        -994.268
 -25738520.783 9 -20031295.35748  20151594.197    20151594.7604   20151601.0354
      2153.231        1677.842
  -8231559.380 9  -6403709.70548  19704155.981    19704156.1154   19704162.0974
      -177.617        -138.403
  11910964.860 8   9283746.75145  22862654.979    22862655.0744   22862663.6124
     -2955.545       -2303.022
   1954229.474 9   1533722.54846  22962409.941    22962409.7084   22962415.8354
     -2299.631       -1791.920
 -12048802.261 9  -8903864.93048  19632479.399    19632479.8844   19632485.9024
        20.806          16.212
  -5108320.609 8  -3744810.83145  23334314.588    23334313.0394   23334320.9374
      2743.226        2137.579
 -23714347.694 9 -18462459.47748  20865680.546    20865681.3534   20865687.5724
      2982.353        2323.911
 96 10  9 17 30 29.9960000  0 10  1 28 22 21 17  6 26 23  9  3      -0.003997949
  -7841399.118 9  -6081897.56847  21851873.818    21851874.0134   21851881.7304
      4343.025        3384.175
 -18535175.300 9 -14421645.493 9  19324207.618    19324208.364    19324213.948
        -5.533          -4.311
  -1746356.501 9  -1319817.22546  23649430.268    23649427.1814   23649435.1434
     -1280.280        -997.621
 -25802971.907 9 -20081517.00348  20139329.504    20139330.0984   20139336.3454
      2144.730        1671.218
  -8226051.646 9  -6399417.98248  19705204.118    19705204.2014   19705210.2654
      -188.530        -146.906
  11999700.873 8   9352891.50545  22879542.531    22879541.1794   22879549.3694
     -2959.106       -2305.797
   2023384.245 9   1587609.32246  22975568.977    22975569.4834   22975575.5894
     -2309.598       -1799.687
 -12049280.492 9  -8904237.58448  19632388.460    19632388.8484   19632394.9124
        12.121           9.445
  -5190468.870 8  -3808822.44545  23318682.468    23318680.7204   23318688.6494
      2734.374        2130.681
 -23803560.451 9 -18531975.90948  20848703.350    20848704.6784   20848710.9344
      2966.254        2311.367
 96 10  9 17 30 59.9960000  0 10  1 28 22 21 17  6 26 23  9  3      -0.004014345
  -7971574.848 9  -6183333.13247  21827102.180    21827102.2914   21827110.2044
      4334.905        3377.848
 -18534693.589 9 -14421270.153 9  19324299.348    19324300.101    19324305.582
       -26.899         -20.960
  -1707879.798 9  -1289835.44946  23656754.711    23656749.1464   23656756.8334
     -1285.125       -1001.396
 -25867183.690 9 -20131552.15948  20127110.488    20127111.0264   20127117.2424
      2135.631        1664.128
  -8220219.413 9  -6394873.40348  19706314.255    19706314.0494   19706320.0984
      -200.486        -156.223
  12088533.928 7   9422111.88045  22896448.263    22896445.7524   22896453.9104
     -2963.406       -2309.148
   2092830.421 9   1641723.14946  22988784.447    22988784.7414   22988790.9494
     -2320.419       -1808.119
 -12049506.921 9  -8904414.04248  19632345.306    19632345.8334   19632351.8254
         2.713           2.114
  -5272355.713 8  -3872630.32846  23303102.493    23303098.3594   23303106.0694
      2724.489        2122.978
 -23892309.250 9 -18601130.81947  20831815.377    20831816.2704   20831822.5214
      2949.808        2298.552
 96 10  9 17 31 29.9950000  0 10  1 28 22 21 17  6 26 23  9  3      -0.004030750
  -8101496.797 9  -6284570.96347  21802378.132    21802378.9104   21802386.9224
      4326.347        3371.179
 -18533574.751 9 -14420398.343 9  19324512.085    19324513.059    19324518.423
       -48.255         -37.601
  -1669270.749 9  -1259750.47046  23664098.251    23664096.2144   23664104.0024
     -1289.534       -1004.832
 -25931121.973 9 -20181374.17648  20114943.299    20114943.8964   20114950.2484
      2126.262        1656.828
  -8214030.232 9  -6390050.67448  19707491.651    19707491.8224   19707497.8784
      -212.539        -165.615
  12177476.282 8   9491417.45545  22913373.607    22913370.5744   22913377.0514
     -2966.990       -2311.940
   2162588.346 9   1696079.92046  23002057.655    23002059.3164   23002065.4864
     -2330.655       -1816.095
 -12049460.158 9  -8904377.61848  19632354.479    19632354.8474   19632360.8334
        -6.382          -4.973
  -5353956.998 8  -3936215.71245  23287571.478    23287569.7454   23287577.8434
      2715.302        2115.820
 -23980551.079 9 -18669890.68948  20815023.602    20815024.3534   20815030.5834
      2932.589        2285.134
 96 10  9 17 31 59.9950000  0 10  1 28 22 21 17  6 26 23  9  3      -0.004047150
  -8231199.301 9  -6385637.79047  21777696.779    21777697.3214   21777705.2664
      4320.090        3366.304
 -18531843.040 9 -14419048.987 9  19324841.690    19324842.599    19324847.969
       -67.785         -52.819
  -1630553.029 9  -1229580.85246  23671465.227    23671464.1014   23671471.8984
     -1292.325       -1007.006
 -25994793.162 9 -20230988.09848  20102827.393    20102827.7544   20102833.9874
      2117.929        1650.334
  -8207509.800 9  -6384969.84548  19708732.490    19708732.6554   19708738.7464
      -222.736        -173.561
  12266498.401 7   9560785.16345  22930310.104    22930310.6274   22930318.3374
     -2968.594       -2313.190
   2232612.921 9   1750644.45046  23015382.627    23015384.6034   23015390.7204
     -2338.236       -1822.002
 -12049168.941 9  -8904150.70648  19632409.811    19632410.2584   19632416.2514
       -13.569         -10.573
  -5435309.172 8  -3999606.97645  23272090.976    23272088.7104   23272096.8854
      2707.650        2109.857
 -24068303.247 9 -18738268.99948  20798324.856    20798325.6644   20798331.9254
      2916.861        2272.879
 96 10  9 17 32 29.9950000  0 10  1 28 22 21 17  6 26 23  9  3      -0.004063556
  -8360719.362 9  -6486562.46247  21753049.667    21753050.4724   21753058.2904
      4313.536        3361.197
 -18529524.523 9 -14417242.378 9  19325283.106    19325283.844    19325289.204
       -87.668         -68.313
  -1591747.687 9  -1199343.02346  23678849.459    23678848.5394   23678856.4154
     -1295.601       -1009.559
 -26058216.513 9 -20280408.89448  20090758.440    20090758.6604   20090764.8244
      2109.538        1643.796
  -8200682.853 9  -6379650.17148  19710031.372    19710031.7644   19710037.8764
      -233.084        -181.624
  12355576.600 8   9630196.55745  22947261.229    22947262.2414   22947269.4344
     -2970.965       -2315.038
   2302873.391 9   1805392.79346  23028752.730    23028754.8894   23028760.6644
     -2346.601       -1828.520
 -12048661.834 9  -8903755.57748  19632506.533    19632506.7504   19632512.7954
       -21.161         -16.489
  -5516429.455 8  -4062817.50146  23256653.493    23256652.2384   23256660.4024
      2699.508        2103.513
 -24155569.883 9 -18806268.98348  20781718.467    20781719.3564   20781725.6434
      2900.107        2259.824
 96 10  9 17 32 59.9950000  0 10  1 28 22 21 17  6 26 23  9  3      -0.004079951
  -8490029.525 9  -6587323.54847  21728443.003    21728443.4784   21728451.2804
      4306.999        3356.103
 -18526605.372 9 -14414967.728 9  19325838.916    19325839.468    19325844.613
      -107.138         -83.484
  -1552837.193 9  -1169023.21546  23686253.060    23686253.0044   23686260.8634
     -1298.702       -1011.976
 -26121388.849 9 -20329634.08448  20078736.816    20078737.3024   20078743.5984
      2101.613        1637.620
  -8193545.598 9  -6374088.69848  19711389.563    19711389.9844   19711396.0204
      -242.869        -189.249
  12444732.842 8   9699668.78445  22964231.601    22964228.5614   22964235.7944
     -2973.021       -2316.640
   2373378.523 9   1860331.79646  23042168.206    23042171.6154   23042177.2594
     -2354.000       -1834.286
 -12047920.654 9  -8903178.04648  19632647.515    19632647.7844   19632653.8764
       -28.360         -22.099
  -5597296.542 8  -4125830.83345  23241266.337    23241263.6774   23241271.9614
      2691.534        2097.299
 -24242331.593 9 -18873875.51948  20765208.326    20765209.2834   20765215.3944
      2883.614        2246.972
 96 10  9 17 33 29.9950000  0 10  1 28 22 21 17  6 26 23  9  3      -0.004096335
  -8619138.107 9  -6687927.58647  21703874.562    21703874.8914   21703882.6534
      4300.057        3350.694
 -18523087.126 9 -14412226.256 9  19326508.411    19326508.965    19326514.061
      -127.649         -99.467
  -1513814.936 9  -1138616.29346  23693679.550    23693678.9574   23693686.7724
     -1303.094       -1015.398
 -26184302.076 9 -20378657.38048  20066764.875    20066765.3824   20066771.6814
      2092.343        1630.397
  -8186099.951 9  -6368286.91948  19712806.476    19712806.9194   19712812.8634
      -253.832        -197.791
  12533962.954 7   9769198.52445  22981212.608    22981209.0144   22981215.8994
     -2976.084       -2319.026
   2444117.902 9   1915453.32246  23055629.531    23055632.8494   23055638.6474
     -2362.218       -1840.689
 -12046950.516 9  -8902422.11148  19632832.119    19632832.4664   19632838.4804
       -36.693         -28.592
  -5677907.527 8  -4188644.52246  23225929.006    23225923.8904   23225932.0944
      2682.212        2090.035
 -24328570.029 9 -18941074.29148  20748797.622    20748798.7044   20748804.8134
      2865.617        2232.948
 96 10  9 17 33 59.9950000  0 10  1 28 22 21 17  6 26 23  9  3      -0.004112718
  -8748056.231 9  -6788383.22447  21679342.560    21679342.5444   21679350.2564
      4294.095        3346.048
 -18518968.720 9 -14409017.135 9  19327292.099    19327292.698    19327297.844
      -147.250        -114.740
  -1474671.255 9  -1108114.73946  23701128.087    23701127.7774   23701135.6714
     -1306.768       -1018.261
 -26246953.166 9 -20427476.40348  20054842.709    20054843.2934   20054849.5224
      2084.226        1624.072
  -8178335.232 9  -6362236.50548  19714283.939    19714284.5054   19714290.4474
      -264.221        -205.886
  12623275.900 7   9838792.86445  22998208.779    22998205.1924   22998212.2114
     -2978.407       -2320.837
   2515092.194 9   1970757.91346  23069135.241    23069138.7174   23069144.7664
     -2369.785       -1846.586
 -12045738.822 9  -8901477.95348  19633062.885    19633063.1114   19633069.0604
       -44.428         -34.619
  -5758244.738 8  -4251244.89546  23210640.965    23210635.9624   23210644.4104
      2673.225        2083.032
 -24414295.093 9 -19007873.05048  20732484.845    20732485.7294   20732491.9004
      2849.086        2220.067
 96 10  9 17 34 29.9950000  0 10  1 28 22 21 17  6 26 23  9  3      -0.004129089
  -8876766.670 9  -6888677.02947  21654849.696    21654849.8024   21654857.3724
      4286.988        3340.510
 -18514240.277 9 -14405332.655 9  19328191.967    19328192.522    19328197.724
      -167.368        -130.417
  -1435397.683 9  -1077511.98446  23708600.550    23708601.1314   23708609.2774
     -1310.777       -1021.385
 -26309345.098 9 -20476093.48448  20042970.050    20042970.4954   20042976.7724
      2075.711        1617.437
  -8170239.536 9  -6355928.18348  19715824.555    19715825.0834   19715830.9754
      -274.875        -214.188
  12712688.060 7   9908464.44055  23015224.050    23015219.3864   23015226.7415
     -2981.627       -2323.346
   2586319.734 9   2026259.81846  23082690.790    23082692.8144   23082699.1234
     -2377.852       -1852.872
 -12044276.706 9  -8900338.65048  19633340.875    19633341.3154   19633347.2344
       -52.406         -40.836
  -5838287.162 8  -4313615.62746  23195410.261    23195404.6084   23195412.7114
      2663.446        2075.412
 -24499509.610 9 -19074273.98648  20716269.076    20716269.9584   20716276.0674
      2832.653        2207.262
 96 10  9 17 34 59.9950000  0 10  1 28 22 21 17  6 26 23  9  3      -0.004145470
  -9005276.808 9  -6988814.75347  21630395.058    21630395.1024   21630402.5984
      4280.271        3335.276
 -18508926.755 9 -14401192.266 9  19329203.123    19329203.600    19329208.829
      -186.977        -145.696
  -1396020.138 9  -1046828.29046  23716094.435    23716094.4384   23716102.5514
     -1314.364       -1024.180
 -26371494.798 9 -20524521.81748  20031143.548    20031143.7994   20031150.1484
      2067.411        1610.970
  -8161832.631 9  -6349377.37848  19717424.496    19717424.8484   19717430.8084
      -285.707        -222.629
  12802178.205 7   9978196.82345  23032256.382    23032249.5224   23032255.8854
     -2984.383       -2325.493
   2657759.966 9   2081927.46846  23096286.167    23096287.5334   23096293.7194
     -2385.035       -1858.469
 -12042594.946 9  -8899028.20548  19633660.864    19633661.3064   19633667.2934
       -59.773         -46.576
  -5918050.777 8  -4375769.04146  23180233.716    23180226.1264   23180234.2914
      2654.109        2068.137
 -24584249.686 9 -19140305.21448  20700143.686    20700144.5414   20700150.4574
      2816.392        2194.591
 96 10  9 17 35 29.9950000  0 10  1 28 22 21 17  6 26 23  9  3      -0.004161862
  -9133595.274 9  -7088803.11047  21605976.555    21605976.9134   21605984.3714
      4273.071        3329.666
 -18503035.284 9 -14396601.529 9  19330323.851    19330324.696    19330329.974
      -206.972        -161.277
  -1356558.279 9  -1016078.87846  23723600.849    23723603.9294   23723611.8684
     -1317.611       -1026.710
 -26433402.260 9 -20572761.39148  20019362.715    20019363.2244   20019369.5514
      2058.569        1604.080
  -8153113.274 9  -6342583.09348  19719083.444    19719084.1164   19719090.1174
      -296.698        -231.193
  12891735.52217  10047981.55355  23049301.598    23049292.0025          0.0005
     -2987.460       -2327.891
   2729415.942 9   2137763.23646  23109921.600    23109923.2674   23109929.4004
     -2393.098       -1864.752
 -12040703.557 9  -8897554.41448  19634020.808    19634021.2454   19634027.2814
       -67.584         -52.663
  -5997541.056 8  -4437709.50146  23165107.378    23165099.5414   23165107.9014
      2644.110        2060.345
 -24668506.637 9 -19205959.99148  20684110.467    20684111.0094   20684116.8144
      2799.744        2181.619
 96 10  9 17 35 59.9950000  0 10  1 28 22 21 17  6 26 23  9  3      -0.004178259
  -9261696.728 9  -7188622.38447  21581599.362    21581599.9514   21581607.4324
      4267.411        3325.255
 -18496549.644 9 -14391547.809 9  19331558.012    19331558.886    19331564.226
      -224.949        -175.285
  -1317011.026 9   -985262.90646  23731127.521    23731129.6774   23731137.7124
     -1318.457       -1027.369
 -26495054.374 9 -20620802.00148  20007630.831    20007631.1914   20007637.4924
      2052.013        1598.971
  -8144070.121 9  -6335536.50448  19720804.159    19720804.9114   19720810.9944
      -305.634        -238.156
  12981375.86317  10117831.03055  23066358.272           0.0005          0.0005
     -2988.281       -2328.531
   2801305.108 9   2193780.68946  23123601.827    23123603.2944   23123609.5654
     -2398.958       -1869.318
 -12038585.343 9  -8895903.86648  19634423.855    19634424.3334   19634430.3964
       -73.102         -56.963
  -6076735.774 8  -4499419.64546  23150035.182    23150029.4354   23150037.4364
      2636.099        2054.103
 -24752271.556 9 -19271231.36248  20668170.363    20668171.0434   20668176.9604
      2784.928        2170.074
 96 10  9 17 36 29.9950000  0 11  1 28 22 21 17  6 26 23  9  3 31   -0.004194652
  -9389574.083 9  -7288267.02347  21557264.712    21557265.6574   21557273.2224
      4259.229        3318.880
 -18489477.970 9 -14386037.430 9  19332903.802    19332904.567    19332909.888
      -244.964        -190.881
  -1277395.742 9   -954393.90546  23738667.416    23738668.1574   23738676.2144
     -1321.213       -1029.517
 -26556460.552 9 -20668650.96248  19995945.635    19995945.9824   19995952.3304
      2043.124        1592.045
  -8134714.906 9  -6328246.75348  19722584.403    19722585.1654   19722591.2804
      -316.484        -246.611
  13071082.87517  10187732.38854  23083427.548           0.0005          0.0005
     -2990.799       -2330.493
   2873417.174 9   2249971.85846  23137323.698    23137325.7154   23137332.2274
     -2406.983       -1875.571
 -12036258.545 9  -8894090.79148  19634866.599    19634867.1394   19634873.2324
       -80.575         -62.786
  -6155645.496 8  -4560907.72346  23135020.153    23135013.2814   23135021.3274
      2626.196        2046.386
 -24835541.975 9 -19336117.41248  20652324.570    20652325.2124   20652331.2334
      2767.865        2156.778
    -23407.34518         0.000 1  23812903.362           0.000           0.000
      4170.602        3249.820
 96 10  9 17 36 59.9950000  0 11  1 28 22 21 17  6 26 23  9  3 31   -0.004211031
  -9517207.510 9  -7387721.59447  21532977.052    21532977.7744   21532985.4524
      4249.580        3311.361
 -18481815.580 9 -14380066.763 9  19334361.754    19334362.580    19334368.075
      -265.963        -207.244
  -1237706.382 9   -923467.19946  23746216.795    23746220.4904   23746228.7604
     -1324.746       -1032.270
 -26617607.968 9 -20716298.28948  19984309.520    19984310.0284   19984316.3574
      2033.287        1584.379
  -8125042.356 9  -6320709.71348  19724424.999    19724425.8274   19724431.9634
      -328.364        -255.868
  13160849.61117     35550.47652  23100509.766           0.0005          0.0005
     -2994.088       -2333.055
   2945767.839 9   2306348.93246  23151092.025    23151093.6194   23151100.2894
     -2416.586       -1883.054
 -12033708.139 9  -8892103.48048  19635351.919    19635352.4484   19635358.4464
       -89.547         -69.777
  -6234270.731 8  -4622174.10046  23120057.949    23120051.4554   23120059.5594
      2615.538        2038.082
 -24918298.819 9 -19400603.28048  20636576.390    20636577.1504   20636583.2484
      2749.178        2142.217
   -148419.692 8    -85197.27753  23789118.438           0.0005          0.0005
      4163.390        3244.200
 96 10  9 17 37 29.9950000  0 11  1 28 22 21 17  6 26 23  9  3 31   -0.004227400
  -9644586.207 9  -7486977.68547  21508738.227    21508738.3754   21508746.0154
      4243.021        3306.250
 -18473561.238 9 -14373634.831 9  19335932.723    19335933.381    19335938.874
      -283.737        -221.094
  -1197953.796 9   -892491.27546  23753783.568    23753785.3124   23753793.2274
     -1324.948       -1032.427
 -26678491.638 9 -20763740.10648  19972723.822    19972724.2374   19972730.5814
      2026.184        1578.845
  -8115052.573 9  -6312925.49848  19726326.281    19726326.8114   19726332.9764
      -337.067        -262.650
  13250677.10116    105514.52454  23117595.824           0.0005          0.0005
     -2993.681       -2332.738
   3018374.626 9   2362925.59247  23164908.718    23164910.2234   23164916.9784
     -2423.017       -1888.065
 -12030924.561 9  -8889934.47548  19635881.501    19635882.1154   19635888.0944
       -95.382         -74.324
  -6312611.183 9  -4683218.57246  23105148.245    23105143.8174   23105151.8674
      2607.796        2032.049
 -25000538.726 9 -19464686.33648  20620926.564    20620927.3854   20620933.5304
      2734.226        2130.566
   -273256.986 8   -182467.48154  23765352.199           0.0004          0.0005
      4159.360        3241.060
 96 10  9 17 37 59.9950000  0 11  1 28 22 21 17  6 26 23  9  3 31   -0.004243775
  -9771722.507 9  -7586044.90647  21484545.391    21484545.1054   21484552.6104
      4233.854        3299.107
 -18464729.467 9 -14366752.948 9  19337613.433    19337614.033    19337619.603
      -303.965        -236.856
  -1158145.293 9   -861471.69446  23761358.684    23761360.8924   23761368.8424
     -1327.802       -1034.651
 -26739122.223 9 -20810984.72048  19961186.136    19961186.6354   19961192.9824
      2017.086        1571.755
  -8104749.276 9  -6304896.97948  19728287.298    19728287.5044   19728293.6494
      -348.666        -271.688
  13340545.80617    175495.09354  23134689.857           0.0005          0.0005
     -2996.894       -2335.242
   3091208.567 9   2419679.24146  23178768.133    23178770.0374   23178776.7834
     -2431.543       -1894.709
 -12027922.766 9  -8887595.42148  19636452.833    19636453.3864   19636459.2614
      -103.628         -80.749
  -6390682.924 9  -4744053.67946  23090289.300    23090287.1204   23090295.1924
      2598.189        2024.563
 -25082289.157 9 -19528387.97248  20605370.062    20605370.6814   20605376.9284
      2716.775        2116.968
   -397914.76717   -279597.64754  23741539.013           0.0005          0.0005
      4152.150        3235.442
 96 10  9 17 38 29.9950000  0 11  1 28 22 21 17  6 26 23  9  3 31   -0.004260123
  -9898601.587 9  -7684911.69647  21460400.795    21460400.8344   21460408.1804
      4224.791        3292.045
 -18455306.326 9 -14359410.261 9  19339406.382    19339407.174    19339412.774
      -324.341        -252.733
  -1118266.268 8   -830397.14446  23768947.882    23768949.5224   23768957.8004
     -1330.913       -1037.075
 -26799495.100 9 -20858028.51748  19949697.550    19949698.0814   19949704.4414
      2007.634        1564.390
  -8094115.918 9  -6296611.26548  19730310.748    19730310.9964   19730317.1604
      -360.282        -280.739
  13430488.90617     29782.71252  23151815.936           0.0005          0.0005
     -2986.760       -2327.345
   3164292.247 9   2476627.48846  23192675.220    23192677.4314   23192684.0104
     -2440.634       -1901.793
 -12024690.253 9  -8885076.59648  19637068.094    19637068.5604   19637074.3774
      -111.940         -87.226
  -6468477.944 9  -4804673.13346  23075485.871    23075483.1494   23075491.2424
      2588.078        2016.684
 -25163526.764 9 -19591690.01048  20589910.905    20589911.6734   20589917.8964
      2698.902        2103.041
   -522357.51518    -78338.81452  23717884.797           0.0005          0.0005
      4143.979        3229.075
 96 10  9 17 38 59.9950000  0 11  1 28 22 21 17  6 26 23  9  3 31   -0.004276451
 -10025216.095 9  -7783572.30347  21436306.456    21436306.9494   21436314.2524
      4217.084        3286.039
 -18445272.367 9 -14351591.618 9  19341315.847    19341316.571    19341322.239
      -343.860        -267.943
  -1078308.630 9   -799261.35845  23776550.213    23776553.2164   23776561.6704
     -1332.210       -1038.086
 -26859587.593 9 -20904853.84148  19938262.547    19938262.9034   19938269.2174
      1999.277        1557.878
  -8083136.289 9  -6288055.73748  19732399.800    19732400.3694   19732406.6074
      -371.106        -289.173
  13520528.32217     99953.28454  23168958.504           0.0005          0.0005
     -3002.111       -2339.307
   3237635.967 9   2533778.37746  23206632.606    23206634.3604   23206640.8314
     -2448.158       -1907.656
 -12021209.961 9  -8882364.69848  19637730.408    19637730.8584   19637736.6864
      -119.203         -92.885
  -6545971.341 9  -4865057.54246  23060738.425    23060736.6064   23060744.6634
      2578.913        2009.543
 -25244229.311 9 -19654575.11148  20574553.570    20574554.6154   20574560.7564
      2682.042        2089.903
   -646541.041 8   -175015.27754  23694286.621           0.0004          0.0005
      4135.631        3222.570
 96 10  9 17 39 29.9950000  0 11  1 28 22 21 17  6 26 23  9  3 31   -0.004292800
 -10151641.675 9  -7882085.69847  21412248.648    21412248.9604   21412256.2864
      4211.443        3281.644
 -18434677.420 9 -14343335.838 9  19343332.091    19343332.816    19343338.407
      -362.394        -282.385
  -1038336.786 8   -768114.58345  23784155.322    23784159.5804   23784167.7304
     -1332.706       -1038.472
 -26919452.830 9 -20951502.07748  19926870.492    19926870.8994   19926877.2394
      1991.929        1552.152
  -8071850.202 9  -6279261.41248  19734547.498    19734548.0724   19734554.2954
      -381.126        -296.981
  13610622.55917    170173.44554  23186108.211           0.0005          0.0005
     -3003.598       -2340.466
   3311175.683 9   2591081.97046  23220628.052    23220628.6744   23220635.0254
     -2454.356       -1912.485
 -12017547.683 9  -8879510.98348  19638427.342    19638427.7834   19638433.6864
      -124.846         -97.282
  -6623208.854 9  -4925242.57646  23046039.659    23046038.8094   23046046.8904
      2570.278        2002.814
 -25324453.808 9 -19717087.71448  20559287.919    20559288.4734   20559294.5864
      2666.162        2077.529
   -770492.723 9   -271508.07854  23670708.048           0.0004          0.0005
      4127.893        3216.540
 96 10  9 17 39 59.9950000  0 11  1 28 22 21 17  6 26 23  9  3 31   -0.004309175
 -10277885.348 9  -7980457.36347  21388225.273    21388225.4994   21388232.8994
      4203.079        3275.126
 -18423515.926 9 -14334638.580 9  19345456.368    19345456.796    19345462.325
      -383.279        -298.659
   -998344.027 9   -736951.48546  23791767.134    23791770.0464   23791778.2854
     -1335.188       -1040.406
 -26979094.937 9 -20997976.43748  19915520.837    19915521.3704   19915527.7964
      1982.542        1544.838
  -8060261.548 9  -6270231.30148  19736752.928    19736753.3914   19736759.5384
      -392.875        -306.136
  13700759.18017     25161.26352  23203260.431           0.0005          0.0005
     -3006.741       -2342.915
   3384901.576 9   2648530.65246  23234657.408    23234658.2994   23234664.8824
     -2462.516       -1918.844
 -12013709.663 9  -8876520.32748  19639157.471    19639158.1004   19639164.1064
      -132.632        -103.350
  -6700177.156 9  -4985217.86546  23031391.543    23031392.1094   23031400.2934
      2559.167        1994.156
 -25404180.509 9 -19779212.42348  20544116.288    20544116.9464   20544123.1134
      2647.313        2062.841
   -894204.958 9    -71436.25353  23647172.581           0.0005          0.0005
      4118.132        3208.934
 96 10  9 17 40 29.9950000  0 11  1 28 22 21 17  6 26 23  9  3 31   -0.004325542
 -10403908.404 9  -8078657.12647  21364243.882    21364244.0014   21364251.3534
      4196.443        3269.956
 -18411760.007 9 -14325478.150 9  19347693.185    19347693.883    19347699.491
      -402.437        -313.587
   -958304.041 8   -705751.54346  23799384.449    23799389.6244   23799397.7464
     -1336.258       -1041.240
 -27038478.260 9 -21044249.15148  19904220.625    19904221.0924   19904227.5104
      1974.285        1538.404
  -8048361.982 9  -6260958.95048  19739017.517    19739017.8234   19739023.9804
      -402.548        -313.674
  13790965.47017     95436.85754  23220415.144           0.0005          0.0005
     -3008.605       -2344.368
   3458843.964 9   2706148.02746  23248727.309    23248729.0454   23248736.0134
     -2468.860       -1923.787
 -12009673.634 9  -8873375.38648  19639925.521    19639926.1564   19639932.1024
      -138.499        -107.921
  -6776827.095 9  -5044945.02946  23016806.645    23016806.0574   23016814.1774
      2548.750        1986.039
 -25483370.862 9 -19840919.20148  20529046.620    20529047.4934   20529053.6504
      2630.060        2049.397
  -1017663.368 9   -167655.06354  23623683.284           0.0004          0.0005
      4110.395        3202.905
 96 10  9 17 40 59.9950000  0 10  1 28 22 21 17 26 23  9  3 31      -0.004341857
 -10529700.963 9  -8176677.24947  21340306.130    21340306.3594   21340313.7574
      4189.368        3264.443
 -18399401.154 9 -14315847.898 9  19350044.921    19350045.744    19350051.304
      -421.841        -328.707
   -918196.664 8   -674499.08746  23807012.999    23807021.9884   23807030.2244
     -1338.005       -1042.601
 -27097592.269 9 -21090312.00548  19892971.363    19892972.0004   19892978.4744
      1966.283        1532.168
  -8036132.588 9  -6251429.57048  19741344.567    19741344.9784   19741351.1994
      -413.183        -321.961
   3533003.567 9   2763934.66746  23262838.719    23262841.2164   23262848.3764
     -2475.535       -1928.988
 -12005422.795 9  -8870063.06448  19640734.341    19640735.1074   19640740.9884
      -145.345        -113.256
  -6853138.312 9  -5104408.24846  23002285.081    23002284.5264   23002292.6754
      2538.352        1977.937
 -25562014.573 9 -19902200.02548  20514081.279    20514082.1254   20514088.2124
      2612.433        2035.662
  -1140855.055 9   -263666.01954  23600242.286           0.0004          0.0005
      4102.056        3196.407
 96 10  9 17 41 29.9950000  0 10  1 28 22 21 17 26 23  9  3 31      -0.004358200
 -10655275.112 9  -8274527.20047  21316410.672    21316410.3844   21316417.8184
      4181.711        3258.476
 -18386459.203 9 -14305763.286 9  19352507.873    19352508.584    19352514.147
      -441.248        -343.830
   -878022.405 8   -643194.51445  23814658.853    23814666.4914   23814674.8614
     -1340.683       -1044.688
 -27156458.317 9 -21136181.65348  19881769.725    19881770.2004   19881776.6404
      1957.780        1525.543
  -8023577.663 9  -6241646.54448  19743733.520    19743734.0814   19743740.3964
      -423.978        -330.372
   3607368.065 9   2821880.94246  23276990.076    23276992.4614   23276999.6084
     -2482.354       -1934.302
 -12000959.207 9  -8866584.96348  19641583.964    19641584.5264   19641590.4294
      -152.632        -118.934
  -6929127.975 9  -5163620.95846  22987823.552    22987824.3434   22987832.3654
      2527.333        1969.350
 -25640118.971 9 -19963060.59548  20499218.635    20499219.2664   20499225.4574
      2594.095        2021.373
  -1263805.037 8    -63072.28952  23576846.310           0.0005          0.0005
      4094.287        3190.354
 96 10  9 17 41 59.9950000  0 10  1 28 22 21 17 26 23  9  3 31      -0.004374533
 -10780614.564 9  -8372194.28847  21292559.632    21292559.1234   21292566.5674
      4173.309        3251.929
 -18372949.920 9 -14295236.590 9  19355078.434    19355079.313    19355084.865
      -460.282        -358.661
   -837780.647 9   -611837.34546  23822318.660    23822324.0404   23822332.6894
     -1342.987       -1046.483
 -27215080.096 9 -21181860.96248  19870614.451    19870614.8614   19870621.3044
      1949.390        1519.005
  -8010715.897 9  -6231624.42048  19746181.149    19746181.6114   19746187.9504
      -434.451        -338.533
   3681922.126 9   2879974.92846  23291178.528    23291179.7754   23291186.8084
     -2488.886       -1939.392
 -11996285.058 9  -8862942.78448  19642473.408    19642473.9574   19642479.9344
      -159.887        -124.587
  -7004800.406 9  -5222586.43146  22973424.386    22973424.3344   22973432.2934
      2516.659        1961.033
 -25717686.231 9 -20023502.62148  20484457.865    20484458.6274   20484464.9474
      2576.253        2007.470
  -1386539.347 8   -158642.47354  23553485.700           0.0004          0.0005
      4086.911        3184.606
 96 10  9 17 42 29.9950000  0 10  1 28 22 21 17 26 23  9  3 31      -0.004390886
 -10905738.261 9  -8469693.24547  21268749.216    21268748.8824   21268756.3484
      4167.063        3247.062
 -18358896.117 9 -14284285.598 9  19357752.937    19357753.727    19357759.245
      -477.787        -372.302
   -797496.069 9   -580446.83646  23829988.717    23829990.1594   23829999.0174
     -1343.817       -1047.130
 -27273480.668 9 -21227367.90548  19859501.153    19859501.6164   19859508.0384
      1942.892        1513.942
  -7997559.216 9  -6221372.48648  19748684.686    19748685.2914   19748691.5774
      -444.075        -346.032
   3756646.969 9   2938201.97946  23305398.730    23305399.6634   23305406.4654
     -2493.719       -1943.158
 -11991414.240 9  -8859147.35648  19643400.219    19643400.8264   19643406.8854
      -165.980        -129.335
  -7080182.994 9  -5281326.05846  22959079.355    22959079.2924   22959087.4044
      2507.788        1954.120
 -25794745.441 9 -20083548.77348  20469793.704    20469794.7334   20469801.1344
      2559.891        1994.720
  -1509071.822 8   -254040.26654  23530167.059           0.0004          0.0005
      4080.557        3179.655
 96 10  9 17 42 59.9950000  0 10  1 28 22 21 17 26 23  9  3 31      -0.004407239
 -11030600.302 9  -8566988.28647  21244988.517    21244988.2974   21244995.9014
      4156.070        3238.496
 -18344253.817 9 -14272876.036 9  19360539.249    19360540.081    19360545.606
      -499.209        -388.994
   -757124.033 8   -548988.16245  23837668.168    23837672.7444   23837681.8684
     -1348.410       -1050.709
 -27331622.611 9 -21272673.31848  19848437.180    19848437.6394   19848443.9874
      1932.323        1505.706
  -7984036.352 9  -6210835.21548  19751258.101    19751258.6544   19751264.9194
      -458.128        -356.983
   3831583.743 9   2996594.19246  23319658.452    23319659.7954   23319666.3164
     -2502.731       -1950.180
 -11986294.837 9  -8855158.22348  19644374.366    19644375.0104   19644381.0674
      -176.071        -137.198
  -7155240.596 9  -5339812.46946  22944797.182    22944796.4474   22944804.4184
      2495.204        1944.315
 -25871252.073 9 -20143164.34148  20455234.969    20455236.0764   20455242.4344
      2539.753        1979.028
  -1631351.903 9    -54795.60952  23506903.236           0.0005          0.0005
      4070.662        3171.944
 96 10  9 17 43 29.9950000  0 10  1 28 22 21 17 26 23  9  3 31      -0.004423600
 -11155198.018 9  -8664077.37347  21221278.006    21221278.0814   21221285.7824
      4149.670        3233.509
 -18329048.514 9 -14261027.772 9  19363432.738    19363433.572    19363439.152
      -515.091        -401.370
   -716699.816 8   -517488.87245  23845359.524    23845365.4014   23845374.0834
     -1347.067       -1049.663
 -27389511.574 9 -21317781.60148  19837421.234    19837421.7234   19837428.0694
      1926.443        1501.124
  -7970180.121 9  -6200038.18448  19753895.172    19753895.4724   19753901.7244
      -466.031        -363.141
   3906703.981 8   3055129.35446  23333951.695    23333954.6354   23333961.0884
     -2505.852       -1952.612
 -11980963.814 9  -8851004.19648  19645389.023    19645389.5344   19645395.5644
      -179.813        -140.114
  -7229998.010 9  -5398064.93946  22930571.408    22930570.4964   22930578.4414
      2487.881        1938.609
 -25947235.979 9 -20202372.58448  20440776.209    20440776.8854   20440783.1864
      2525.288        1967.757
  -1753422.039 9   -149808.67754  23483679.485           0.0004          0.0005
      4066.556        3168.745
 96 10  9 17 43 59.9950000  0 10  1 28 22 21 17 26 23  9  3 31      -0.004439976
 -11279531.840 9  -8760960.83347  21197617.916    21197618.1594   21197625.8894
      4141.749        3227.337
 -18313299.582 9 -14248755.909 9  19366429.887    19366430.523    19366436.180
      -532.470        -414.912
   -676259.924 8   -485977.38445  23853057.115    23853061.0394   23853069.5484
     -1346.522       -1049.238
 -27447165.147 9 -21362706.47248  19826450.260    19826450.6264   19826456.9534
      1919.535        1495.742
  -7956030.332 9  -6189012.41048  19756587.900    19756588.1124   19756594.3834
      -474.976        -370.111
   3981981.634 8   3113787.18846  23348273.758    23348279.3294   23348285.7444
     -2510.378       -1956.139
 -11975461.088 9  -8846716.37548  19646436.197    19646436.7014   19646442.6554
      -184.657        -143.888
  -7304471.111 9  -5456095.89046  22916398.925    22916398.6814   22916406.6094
      2479.356        1931.966
 -26022728.045 9 -20261197.58148  20426410.420    20426411.2644   20426417.4964
      2509.772        1955.666
  -1875301.186 9   -244661.05354  23460491.342           0.0004          0.0005
      4060.930        3164.361
 96 10  9 17 44 29.9950000  0 10  1 28 22 21 17 26 23  9  3 31      -0.004456374
 -11403624.279 9  -8857656.20547  21174003.955    21174004.1694   21174011.8744
      4133.155        3220.640
 -18297024.963 9 -14236074.405 9  19369526.742    19369527.499    19369533.122
      -550.312        -428.815
   -635824.870 8   -454469.56945  23860752.744    23860755.7604   23860763.9024
     -1347.056       -1049.654
 -27504607.276 9 -21407466.56948  19815519.259    19815519.7244   19815526.1304
      1912.073        1489.927
  -7941601.402 9  -6177769.11148  19759333.496    19759333.8164   19759340.1464
      -484.858        -377.811
   4057402.936 8   3172556.95846  23362623.686    23362631.2434   23362638.0794
     -2515.474       -1960.110
 -11969802.486 9  -8842307.09448  19647513.235    19647513.5744   19647519.4364
      -190.332        -148.311
  -7378680.413 9  -5513921.29346  22902278.049    22902277.1524   22902285.0554
      2470.040        1924.706
 -26097743.716 9 -20319651.36548  20412135.139    20412136.2754   20412142.5304
      2493.398        1942.908
  -1997003.001 8    -46637.45752  23437331.055           0.0005          0.0005
      4054.591        3159.422
 96 10  9 17 44 59.9950000  0 10  1 28 22 21 17 26 23  9  3 31      -0.004472765
 -11527431.834 9  -8954129.59447  21150444.135    21150444.3324   21150451.9404
      4120.976        3211.150
 -18280199.703 9 -14222963.820 9  19372728.162    19372729.241    19372734.900
      -571.315        -445.180
   -595360.926 8   -422939.26445  23868456.909    23868455.8494   23868464.0694
     -1350.392       -1052.254
 -27561804.016 9 -21452035.45448  19804635.154    19804635.6044   19804641.9734
      1901.028        1481.321
  -7926861.837 9  -6166283.75948  19762138.073    19762138.6734   19762145.0104
      -497.558        -387.708
   4132996.513 8   3231460.95845  23377009.596    23377015.9694   23377023.2764
     -2523.957       -1966.720
 -11963961.989 9  -8837756.06248  19648624.347    19648624.9654   19648630.8544
      -199.023        -155.083
  -7452592.877 9  -5571515.38046  22888214.212    22888211.9014   22888219.9654
      2457.519        1914.950
 -26172251.951 9 -20377709.73848  20397957.097    20397957.8714   20397964.1074
      2473.877        1927.696
  -2118500.076 8   -141306.28554  23414205.009           0.0004          0.0005
      4044.955        3151.913
 96 10  9 17 45 29.9950000  0 10  1 28 22 21 17 26 23  9  3 31      -0.004489144
 -11650945.999 9  -9050374.38547  21126940.102    21126940.4024   21126947.8444
      4112.630        3204.647
 -18262801.489 9 -14209406.803 9  19376038.637    19376039.967    19376045.784
      -589.421        -459.289
   -554861.282 8   -391381.21645  23876163.689    23876162.6664   23876170.6384
     -1350.464       -1052.310
 -27618727.879 9 -21496391.69648  19793802.808    19793803.3234   19793809.7494
      1893.180        1475.205
  -7911805.552 9  -6154551.62448  19765003.342    19765003.8034   19765010.1604
      -507.157        -395.187
   4208783.534 8   3290515.72345  23391434.404    23391437.6914   23391445.4974
     -2529.288       -1970.874
 -11957919.425 9  -8833047.58848  19649774.367    19649774.8494   19649780.7454
      -204.733        -159.532
  -7526181.482 9  -5628857.09946  22874210.434    22874208.5684   22874216.4104
      2447.507        1907.148
 -26246225.237 9 -20435351.26648  20383880.360    20383881.2174   20383887.4554
      2456.655        1914.277
  -2239753.110 8   -235782.76554  23391130.552           0.0004          0.0005
      4037.341        3145.980
 96 10  9 17 45 59.9950000  0 10  1 28 22 21 17 26 23  9  3 31      -0.004505532
 -11774223.199 9  -9146434.51547  21103481.415    21103481.5484   21103488.9144
      4105.603        3199.171
 -18244858.071 9 -14195424.945 9  19379453.481    19379454.537    19379460.331
      -607.123        -473.083
   -514354.693 9   -359817.67645  23883872.888    23883870.6864   23883879.2194
     -1350.345       -1052.217
 -27675426.595 9 -21540572.52148  19783013.440    19783013.9284   19783020.3094
      1886.349        1469.882
  -7896455.026 9  -6142590.20248  19767924.302    19767924.9634   19767931.3084
      -516.696        -402.620
   4284734.368 9   3349698.11545  23405891.313    23405891.0374   23405898.7044
     -2534.320       -1974.795
 -11951693.600 9  -8828196.30948  19650958.956    19650959.5514   19650965.5834
      -210.727        -164.203
  -7599468.798 9  -5685964.06646  22860265.401    22860262.4564   22860270.2304
      2438.000        1899.740
 -26319674.429 9 -20492584.40748  20369903.339    20369904.3024   20369910.5854
      2439.575        1900.968
  -2360759.521 8    -38496.76852  23368101.005           0.0005          0.0005
      4029.324        3139.733
 96 10  9 17 46 29.9950000  0 10  1 28 22 21 17 26 23  9  3 31      -0.004521945
 -11897262.059 9  -9242308.89847  21080067.903    21080067.9304   21080075.4134
      4096.493        3192.072
 -18226360.424 9 -14181011.209 9  19382973.603    19382974.591    19382980.297
      -626.547        -488.218
   -473820.882 8   -328233.00345  23891590.057    23891584.4754   23891592.3824
     -1352.386       -1053.807
 -27731896.475 9 -21584575.03448  19772267.735    19772268.1304   19772274.3264
      1877.821        1463.237
  -7880781.073 9  -6130376.76048  19770907.170    19770907.6924   19770914.0474
      -528.560        -411.865
   4360858.344 9   3409015.41145  23420379.566    23420377.3104   23420384.8414
     -2540.918       -1979.936
 -11945257.875 9  -8823181.47148  19652183.426    19652184.2174   19652190.3134
      -218.659        -170.384
  -7672442.186 9  -5742826.41046  22846378.866    22846375.9254   22846383.7694
      2426.349        1890.662
 -26392589.429 9 -20549401.29548  20356027.889    20356029.0694   20356035.3464
      2421.061        1886.541
  -2481486.365 8   -132569.59855  23345128.197           0.0004          0.0005
      4018.612        3131.386
 96 10  9 17 46 59.9950000  0 10  1 28 22 21 17 26 23  9  3 31      -0.004538376
 -12020051.361 9  -9337988.84547  21056701.192    21056701.7814   21056709.3684
      4089.883        3186.922
 -18207298.869 9 -14166158.071 9  19386600.732    19386601.850    19386607.563
      -643.993        -501.813
   -433256.471 8   -296624.45445  23899313.614    23899303.4484   23899311.7034
     -1351.631       -1053.219
 -27788125.448 9 -21628389.81048  19761567.531    19761568.0404   19761574.3204
      1870.998        1457.921
  -7864778.925 9  -6117907.59448  19773952.392    19773952.8424   19773959.2214
      -537.940        -419.174
   4437157.363 9   3468469.08445  23434899.853    23434897.2364   23434904.1374
     -2545.299       -1983.350
 -11938613.035 9  -8818003.69048  19653447.663    19653448.7444   19653454.8164
      -224.157        -174.668
  -7745088.407 9  -5799433.81546  22832553.869    22832551.9034   22832559.7254
      2416.755        1883.186
 -26464968.997 9 -20605800.96848  20342255.009    20342255.7084   20342261.9764
      2404.487        1873.626
  -2601908.885 8   -226405.27755  23322217.356           0.0004          0.0005
      4009.774        3124.499
